GEFSSE_con_prob3kmehi_000.txt.gz
EHI
2 9 24 28 14 2 0 0 0 0 0 0 0 0 0 0 0 0 0 0 0 0 0 0 0 0 0 0 0 0 0 0 0 0 0 0 0 0 0 0 0 0 0
5 9 28 43 29 7 1 0 0 0 0 0 0 0 0 0 0 0 0 0 0 0 0 0 0 0 0 0 0 0 0 0 0 0 0 0 0 0 0 1 1 0 0
24 18 33 58 53 28 13 5 1 0 0 0 0 0 0 0 0 0 0 0 0 0 0 0 0 0 0 0 0 0 0 0 0 0 0 0 0 0 1 3 4 2 1
57 43 47 71 77 62 44 25 10 2 0 0 0 0 0 0 0 0 0 0 0 0 0 0 0 0 0 0 0 0 0 0 0 0 0 0 0 0 1 3 6 5 4
78 72 74 86 92 88 78 57 30 9 1 0 0 0 0 0 0 0 0 0 0 0 0 0 0 0 0 0 0 0 0 0 0 0 0 0 0 0 0 1 4 6 6
85 87 92 96 98 98 95 81 52 20 3 0 0 0 0 0 0 0 0 0 0 0 0 0 0 0 0 0 0 0 0 0 0 0 0 0 0 2 4 4 5 6 7
91 92 95 99 100 100 99 92 70 37 12 3 0 0 0 0 0 0 0 0 0 0 0 0 0 0 0 0 0 0 0 0 0 0 0 0 1 8 18 21 18 13 9
94 93 94 96 98 99 99 97 85 64 42 24 11 3 0 0 0 0 0 0 0 0 0 0 0 0 0 0 1 1 0 0 0 0 0 0 1 11 29 43 43 33 23
90 92 90 88 90 93 97 98 95 87 77 62 41 20 8 3 1 0 0 0 0 0 0 0 0 1 2 5 6 4 1 0 0 0 0 0 1 8 24 47 64 62 51
81 87 83 70 65 70 78 87 91 87 82 75 59 36 16 6 2 0 0 0 0 0 0 0 0 4 11 17 17 13 6 1 0 0 0 1 2 5 16 43 72 82 79
57 62 58 41 30 34 45 57 63 59 52 50 42 27 13 5 2 0 0 0 0 0 0 2 5 10 18 24 23 19 10 3 1 0 1 3 6 11 27 53 76 86 87
21 24 22 14 7 10 16 22 25 23 21 22 20 13 7 4 3 2 1 2 2 1 3 7 10 12 13 16 16 14 9 4 2 1 1 4 8 17 42 69 82 85 86
6 4 3 2 2 2 4 5 5 7 10 13 15 12 7 5 5 5 5 8 10 11 15 20 19 12 8 7 7 6 4 2 1 1 2 4 5 16 46 78 88 87 87
23 14 5 3 1 0 0 1 3 7 11 16 17 14 11 11 13 13 13 17 24 26 32 36 27 14 8 6 4 2 1 0 1 1 4 7 11 24 54 81 90 89 88
50 32 16 10 4 0 0 1 4 8 13 15 16 17 19 22 29 32 28 27 32 37 43 45 32 18 12 10 6 2 0 0 1 3 4 11 26 45 67 82 89 90 90
70 53 35 25 13 3 1 5 16 25 21 13 10 16 24 36 50 60 53 38 31 32 36 37 29 18 14 14 9 4 1 0 2 4 3 9 32 57 73 82 87 90 92
84 77 65 53 40 27 17 19 33 40 29 12 6 11 23 43 69 83 74 47 24 21 27 33 29 18 11 11 9 4 1 1 3 3 1 5 23 50 72 83 88 90 91
96 95 90 83 72 56 37 29 32 31 20 10 7 9 17 38 64 80 73 47 21 20 38 49 40 21 8 4 3 1 0 0 1 1 0 2 13 41 71 86 89 90 91
100 99 94 87 77 63 45 28 19 13 8 6 7 8 11 22 37 51 55 44 27 33 56 64 46 22 7 2 0 0 0 0 0 0 0 1 9 34 64 81 85 89 92
96 92 81 70 63 55 39 21 10 5 4 3 4 6 8 11 16 27 39 43 43 51 63 60 39 17 5 1 0 0 0 0 0 0 0 1 5 19 40 56 66 78 85
72 71 64 57 48 38 26 13 6 3 2 1 3 5 7 9 10 15 24 39 55 67 67 57 37 18 6 1 0 0 0 0 0 0 0 0 1 4 13 22 33 49 60
35 40 44 42 34 27 19 11 6 5 3 1 3 6 7 7 8 9 12 26 46 58 58 53 45 29 12 2 0 0 0 0 0 0 0 0 0 0 1 3 9 18 24
12 14 19 22 26 30 27 16 7 4 3 1 2 4 4 4 5 8 10 16 26 32 31 36 46 40 19 5 1 0 0 0 0 0 0 0 0 0 0 0 1 2 3
3 2 3 7 16 26 26 16 5 2 1 0 1 1 1 1 2 5 9 12 14 14 10 15 28 30 18 7 3 1 0 0 0 0 0 0 0 0 0 0 0 0 0
0 0 0 1 5 11 12 7 2 0 0 0 0 0 0 0 0 1 3 5 6 7 3 4 9 11 9 5 2 0 0 0 0 0 0 0 0 0 0 0 0 0 0
0 0 0 0 1 2 2 1 0 0 0 0 0 0 0 0 0 0 0 0 1 2 1 1 1 2 2 2 1 0 0 0 0 0 0 0 0 0 0 0 0 0 0

GEFSSE_con_prob3kmehi_006.txt.gz
EHI
0 2 4 2 0 0 0 0 0 0 1 1 1 0 0 0 0 0 0 0 0 0 0 0 0 0 0 0 0 0 0 0 0 0 0 0 0 0 0 0 0 0 0
0 2 3 2 0 0 0 0 0 0 0 0 0 0 0 0 0 0 0 0 0 0 0 0 0 0 0 0 0 0 0 0 0 0 0 0 0 0 0 0 0 0 0
0 1 1 1 0 0 0 0 0 0 0 0 0 0 0 0 0 0 0 0 0 0 0 0 0 0 0 0 0 0 0 0 0 0 0 0 0 0 0 0 0 0 0
0 0 0 0 0 0 0 0 0 0 0 0 0 0 0 0 0 0 0 0 0 0 0 0 0 0 0 0 0 0 0 0 0 0 0 0 0 0 0 0 0 0 0
1 0 0 0 0 0 0 0 1 0 0 0 0 0 0 0 0 0 0 0 0 0 0 0 0 0 0 0 0 0 0 0 0 0 0 0 0 0 0 0 0 0 0
3 2 2 2 1 0 0 0 0 0 0 0 0 0 0 0 0 0 0 0 0 0 0 0 0 0 0 0 0 0 0 0 0 0 0 0 0 0 0 0 0 0 0
19 11 8 11 8 2 1 0 0 0 0 0 0 0 0 0 0 0 0 0 0 0 0 0 0 0 0 0 0 0 0 0 0 0 0 0 0 0 0 0 0 0 0
48 31 21 20 13 6 3 1 0 0 0 0 0 0 0 0 0 0 0 0 0 0 0 0 0 0 0 0 0 0 0 0 0 0 0 0 0 0 0 0 0 0 0
64 50 34 23 13 7 5 1 0 0 0 0 0 0 0 0 0 0 0 0 0 0 0 0 0 0 0 0 0 0 0 0 0 0 0 0 0 0 0 0 0 0 0
55 51 45 37 24 15 11 6 2 1 1 1 0 0 0 0 0 0 0 0 0 0 0 0 0 0 0 0 0 0 0 0 0 0 0 0 0 0 0 0 0 0 0
35 44 56 62 54 43 37 30 23 17 11 7 4 1 0 0 0 0 0 0 0 0 0 0 0 0 0 0 0 0 0 0 0 0 0 0 0 0 0 0 0 0 0
16 29 50 66 73 73 70 64 56 48 38 27 16 6 1 0 0 0 0 0 0 0 0 0 0 0 0 0 0 0 0 0 0 0 0 0 0 0 0 0 0 0 0
4 11 24 41 57 68 71 66 65 66 60 47 32 18 9 5 1 0 0 0 0 0 0 0 0 0 0 0 0 0 0 0 0 0 0 0 0 0 0 0 0 0 0
0 1 5 14 26 35 38 35 37 47 48 39 31 30 30 21 9 4 2 1 1 0 0 0 0 0 0 0 0 0 0 0 0 0 0 0 0 0 0 0 0 0 0
0 0 0 3 7 11 11 9 10 16 18 15 16 29 45 43 28 16 8 5 3 1 1 0 0 0 0 0 0 0 0 0 0 0 0 0 0 0 0 0 0 0 0
5 4 2 1 2 3 3 1 0 1 2 2 4 17 36 43 38 26 14 7 7 6 5 3 2 1 1 0 0 0 0 0 0 0 0 0 0 0 0 0 0 0 0
31 26 18 11 6 3 1 0 0 0 1 0 1 6 14 21 23 19 12 7 7 9 10 9 7 4 3 1 0 0 1 0 0 0 0 0 0 0 0 0 0 0 0
69 62 49 35 21 10 3 1 0 0 0 0 0 1 3 4 6 7 5 3 3 6 9 10 8 6 4 2 0 1 2 1 0 0 0 0 0 0 0 0 0 0 0
78 74 64 48 30 15 5 1 0 0 1 0 0 1 1 1 1 2 1 0 0 1 4 4 5 6 5 2 0 0 1 0 0 0 0 0 0 0 0 0 0 0 0
48 48 45 36 22 11 3 1 0 0 0 0 0 1 1 0 0 0 0 0 0 0 0 0 1 4 5 2 0 0 0 0 0 0 0 0 0 0 0 0 0 0 0
16 18 20 17 10 4 1 0 0 0 0 0 0 0 0 0 0 0 0 0 0 0 0 0 1 2 2 1 0 0 0 0 0 0 0 0 0 0 0 0 0 0 0
2 4 7 6 3 1 0 0 0 0 0 0 0 0 0 0 0 0 0 0 0 0 0 1 2 2 1 0 0 1 0 0 0 0 0 0 0 0 0 0 0 0 0
0 1 1 1 2 1 0 0 0 0 0 0 0 0 0 0 0 0 0 0 0 0 0 0 2 2 1 0 0 0 0 0 0 0 0 0 0 0 0 0 0 0 0
0 0 0 1 1 1 1 1 1 1 0 0 0 0 0 0 0 0 0 0 0 0 0 0 1 2 2 1 1 0 0 0 0 0 0 0 0 0 0 0 0 0 0
0 0 0 0 0 1 2 2 2 1 0 0 0 0 0 0 0 0 0 0 0 0 0 0 0 1 2 2 1 0 0 0 0 0 0 0 0 0 0 0 0 0 0
0 0 0 0 0 0 1 2 1 1 0 0 0 0 0 0 0 0 0 0 0 0 0 0 0 0 1 1 1 0 0 0 0 0 0 0 0 0 0 0 0 0 0

GEFSSE_con_prob3kmehi_012.txt.gz
EHI
0 0 0 0 0 0 0 0 0 0 0 0 0 0 0 0 0 0 0 0 0 0 0 0 0 0 0 0 0 0 0 0 0 0 0 0 0 0 0 0 0 0 0
0 0 0 0 0 0 0 0 0 0 0 0 0 0 0 0 0 0 0 0 0 0 0 0 0 0 0 0 0 0 0 0 0 0 0 0 0 0 0 0 0 0 0
0 0 0 0 0 0 0 0 0 0 0 0 0 0 0 0 0 0 0 0 0 0 0 0 0 0 0 0 0 0 0 0 0 0 0 0 0 0 0 0 0 0 0
0 0 0 0 0 0 0 0 0 0 0 0 0 0 0 0 0 0 0 0 0 0 0 0 0 0 0 0 0 0 0 0 0 0 0 0 0 0 0 0 0 0 0
0 0 0 0 0 0 0 0 0 0 0 0 0 0 0 0 0 0 0 0 0 0 0 0 0 0 0 0 0 0 0 0 0 0 0 0 0 0 0 0 0 0 0
0 0 0 0 0 0 0 0 0 0 0 0 0 0 0 0 0 0 0 0 0 0 0 0 0 0 0 0 0 0 0 0 0 0 0 0 0 1 0 0 0 0 0
0 0 0 0 0 0 0 0 0 0 0 0 0 1 1 0 0 0 0 0 0 0 0 0 0 0 0 0 0 0 0 0 0 0 0 0 2 3 2 0 0 0 0
0 0 0 0 0 0 0 0 0 0 0 0 0 1 1 0 0 0 0 0 0 0 0 0 0 0 0 0 0 0 0 0 0 0 0 4 12 12 4 0 0 0 0
0 0 0 0 0 1 0 0 1 0 0 0 0 1 1 0 0 0 0 0 0 0 0 0 0 0 0 0 0 0 0 0 0 0 0 13 29 23 6 0 0 0 0
0 0 0 0 0 0 0 0 1 1 0 0 0 0 0 0 0 0 0 0 0 0 0 0 0 0 0 0 0 0 0 0 0 0 1 20 39 27 4 0 0 0 0
0 0 0 0 0 0 0 1 1 1 0 0 0 0 0 0 0 0 1 2 1 0 0 0 0 0 0 0 0 1 0 0 0 0 6 26 38 19 1 0 0 0 0
0 0 0 0 0 0 0 1 1 2 3 2 0 0 0 0 0 1 3 5 2 0 0 0 0 0 0 0 1 2 1 0 0 0 13 36 34 12 0 0 0 0 0
0 0 0 0 0 0 0 1 2 5 9 7 2 1 4 5 5 8 12 8 2 0 0 0 0 0 0 0 0 1 0 0 0 1 16 36 29 8 0 0 0 0 0
0 0 0 0 0 0 0 0 2 7 10 10 5 4 11 20 22 26 30 21 9 4 3 2 2 1 0 0 0 0 0 0 0 2 13 23 17 5 0 0 0 0 0
0 0 0 0 0 2 2 2 2 3 4 5 6 5 15 32 40 40 42 34 19 12 10 7 5 2 1 1 0 0 0 0 0 2 6 9 7 2 0 0 0 0 0
1 0 1 3 7 11 10 7 5 2 0 1 3 2 10 28 36 33 31 27 19 16 19 16 10 6 5 3 2 1 2 2 2 2 3 3 3 2 1 0 0 0 0
2 3 5 11 21 29 26 20 15 8 3 3 2 1 3 11 17 16 14 12 14 19 25 25 20 19 19 16 11 10 10 9 6 4 2 2 2 2 3 3 2 1 1
5 8 15 25 39 48 42 32 25 18 14 13 10 6 3 2 5 7 8 8 12 19 23 27 32 38 40 35 28 22 19 14 9 5 2 2 3 4 6 9 6 3 2
13 18 32 48 59 57 44 31 23 20 20 18 15 11 5 2 2 3 4 5 7 11 14 19 31 41 42 38 32 24 20 18 16 12 7 6 6 7 8 14 14 7 2
30 37 51 66 66 50 32 20 13 11 11 11 10 7 4 1 0 0 1 1 2 4 6 9 16 22 25 24 19 18 22 26 29 27 21 13 10 8 7 14 19 14 10
46 51 60 61 47 28 15 8 5 2 2 2 2 1 0 0 0 0 0 0 0 1 3 3 4 5 7 8 8 11 18 27 36 38 31 22 12 6 5 9 16 20 22
39 42 45 37 20 8 3 2 1 0 0 0 0 0 0 0 0 0 0 0 0 0 0 0 0 0 0 1 3 5 7 16 26 31 34 31 21 12 6 3 8 16 19
18 19 19 14 6 2 1 1 1 0 0 0 0 1 2 1 0 0 0 0 0 0 0 0 0 0 0 0 0 0 1 5 11 20 28 29 28 22 8 0 3 7 9
7 7 6 6 9 13 14 13 9 3 0 0 0 2 4 2 0 0 0 0 0 0 0 0 0 0 0 0 0 0 0 1 3 9 15 17 20 20 11 5 4 4 5
6 5 4 8 21 33 35 31 21 8 1 0 0 2 3 2 0 0 0 0 0 0 0 0 0 0 0 0 0 0 1 2 1 2 4 8 12 14 16 15 11 9 11
7 5 3 9 26 44 48 40 27 12 4 1 0 0 1 0 0 0 0 0 0 0 0 0 0 0 0 0 0 0 1 1 1 0 1 4 10 16 22 23 17 16 19

GEFSSE_con_prob3kmehi_018.txt.gz
EHI
3 7 13 9 2 0 0 0 0 0 0 0 0 0 0 0 0 0 0 0 0 0 0 0 0 0 0 0 0 0 0 0 0 0 0 0 0 0 0 0 0 0 0
3 7 14 11 3 1 0 0 0 0 0 0 0 0 0 0 0 0 0 0 0 0 0 0 0 0 0 0 0 0 0 0 0 0 0 0 0 0 0 0 0 0 0
2 5 9 9 3 1 0 0 0 0 0 0 0 0 0 0 0 0 0 0 0 0 0 0 0 0 0 0 0 0 0 0 0 0 0 0 0 0 0 0 0 0 0
1 1 3 4 2 0 0 0 0 0 0 0 0 0 0 0 0 0 0 0 0 0 0 0 0 0 0 0 0 0 0 0 0 0 0 0 0 0 0 0 0 0 0
0 0 1 2 1 0 0 0 0 0 0 0 0 0 0 0 0 0 0 0 0 0 0 0 0 0 0 0 0 0 0 0 0 0 0 0 1 2 1 0 0 0 0
0 0 1 2 1 0 0 0 0 0 0 0 0 0 0 0 0 0 0 0 0 0 0 0 0 0 0 0 0 0 0 0 0 0 0 3 12 17 12 4 0 0 0
4 2 2 2 1 0 0 0 0 0 0 0 0 0 0 0 0 0 0 0 0 0 0 0 0 0 0 0 0 0 0 0 0 0 0 12 37 52 41 20 6 1 0
18 11 4 2 1 0 0 0 0 0 0 0 0 0 0 0 0 0 0 0 0 0 0 0 0 0 0 1 1 1 1 0 0 0 0 21 62 85 75 52 26 9 2
39 27 9 1 0 0 0 0 0 0 0 0 0 0 0 0 0 0 0 0 0 0 0 0 0 0 1 3 5 5 4 2 0 0 0 25 72 98 95 81 55 28 12
55 42 16 1 1 1 0 0 1 2 2 1 0 0 0 0 0 2 3 2 0 0 1 1 1 2 3 6 11 15 12 5 1 0 1 27 73 99 99 93 75 47 27
46 42 23 15 16 7 5 11 11 8 7 4 2 3 3 1 1 7 15 14 10 11 14 15 15 12 8 7 17 27 23 8 0 0 7 36 78 99 99 94 79 55 35
21 24 24 37 40 19 19 37 31 20 25 22 14 17 22 14 5 12 30 37 30 30 36 40 37 28 14 6 14 30 27 9 1 2 15 48 82 97 97 90 72 47 30
8 8 15 43 56 36 38 61 57 47 58 59 45 47 55 45 27 27 47 61 56 51 54 55 50 36 17 6 9 21 22 11 4 7 23 52 77 87 85 74 54 30 17
22 11 14 45 67 58 55 70 78 79 85 86 81 79 82 77 63 58 70 81 77 70 66 62 54 42 25 14 13 18 21 18 16 21 33 52 67 70 64 53 36 18 8
57 38 38 66 85 82 71 73 84 92 93 93 95 95 94 93 88 84 86 89 84 77 73 67 62 54 39 28 22 20 23 26 28 33 42 53 60 60 53 43 29 14 6
84 75 75 88 97 96 88 83 86 92 94 94 96 97 97 98 96 92 89 86 79 72 68 67 63 56 44 33 24 20 23 28 31 36 43 51 58 58 52 42 28 14 8
97 96 95 97 99 100 98 95 92 92 95 97 96 94 94 94 93 92 90 85 77 71 69 65 59 53 44 34 25 20 25 32 32 32 39 46 50 50 48 41 28 16 12
100 100 98 97 98 100 99 96 91 91 94 91 88 88 85 76 73 78 81 76 68 67 65 59 57 57 50 41 31 23 27 38 36 30 33 38 38 37 39 38 30 23 19
99 100 99 98 98 97 95 88 80 80 79 69 67 73 65 46 40 48 53 49 44 44 42 40 48 53 46 37 25 19 28 40 41 33 31 32 31 29 30 32 32 28 25
97 98 98 97 95 93 90 81 70 65 53 39 44 52 38 18 16 21 21 20 18 16 16 20 26 28 24 18 10 10 21 33 39 41 38 36 35 33 28 27 29 29 30
92 93 93 92 88 86 85 77 66 52 31 17 28 36 23 8 7 7 6 5 4 3 4 6 7 7 5 3 1 2 9 17 27 38 44 47 48 46 37 30 32 36 38
77 78 80 82 76 72 70 61 49 37 19 11 26 42 37 24 14 7 4 2 0 0 0 1 2 2 1 0 0 0 1 5 12 23 37 49 57 58 50 42 42 44 47
48 53 63 73 67 58 51 35 25 24 15 14 35 59 64 50 32 19 9 3 1 0 0 1 2 2 1 0 0 0 0 1 3 8 18 34 50 61 59 51 45 44 46
23 35 57 71 69 62 52 37 31 31 25 30 51 72 76 63 45 30 16 7 3 1 0 0 1 1 0 0 0 0 0 0 0 2 5 13 30 49 60 56 46 41 42
16 30 54 70 74 73 70 65 61 56 51 56 70 79 78 66 50 37 25 14 6 1 0 0 0 0 0 0 0 0 0 0 0 0 0 2 10 29 50 59 52 45 48
16 28 50 67 73 78 82 83 81 76 72 76 81 84 81 71 55 41 31 22 9 1 0 0 0 1 1 1 0 0 0 0 0 0 0 0 3 15 39 57 57 53 57

GEFSSE_con_prob3kmehi_024.txt.gz
EHI
0 7 14 8 1 0 0 0 0 0 0 0 0 0 0 0 0 0 0 0 0 0 0 0 0 0 0 0 0 0 0 0 0 0 0 0 0 0 0 0 0 0 0
0 7 17 15 6 2 0 0 0 0 0 0 0 0 0 0 0 0 0 0 0 0 0 0 0 0 0 0 0 0 0 0 0 0 0 0 0 0 0 0 0 0 0
1 7 22 31 24 11 2 0 0 0 0 0 0 0 0 0 0 0 0 0 0 0 0 0 0 0 0 0 0 0 0 0 0 0 0 0 0 0 0 0 0 0 0
2 7 28 51 48 25 6 0 0 0 0 0 0 0 0 0 0 0 0 0 0 0 0 0 0 0 0 0 0 0 0 0 0 0 0 0 0 0 0 0 0 0 0
2 10 37 68 69 42 14 2 0 0 0 0 0 0 0 0 0 0 0 0 0 0 0 0 0 0 0 0 0 0 0 0 0 0 0 0 0 0 0 0 0 0 0
1 11 43 76 80 57 29 10 3 1 0 0 0 0 0 0 0 0 0 0 0 0 0 0 0 0 0 0 0 0 0 0 0 0 0 0 0 0 1 0 0 0 0
1 10 42 76 85 69 45 23 10 3 0 0 0 0 0 0 0 0 0 0 0 0 0 0 0 0 0 0 0 0 0 0 0 0 0 0 0 2 4 4 2 1 1
1 8 31 62 75 69 52 31 16 6 1 0 0 0 0 0 0 0 0 0 0 0 0 0 0 0 0 0 0 0 0 0 0 0 0 0 1 5 12 14 12 7 3
1 6 19 35 47 49 40 27 15 5 0 0 0 0 0 0 0 0 0 0 0 0 0 0 0 0 0 0 0 0 0 0 0 0 0 0 1 8 22 30 28 20 14
0 3 9 16 21 22 20 16 10 3 0 0 0 0 0 0 0 0 0 0 0 0 0 0 0 0 0 0 0 0 0 0 0 0 0 0 0 8 27 44 44 38 37
0 1 4 8 9 8 8 7 4 1 0 0 0 0 0 0 0 0 0 0 0 0 0 0 0 0 0 0 0 0 0 0 0 0 0 0 1 6 23 47 57 58 59
3 1 1 2 4 5 5 3 1 0 0 0 0 0 0 0 0 0 0 0 0 0 0 0 0 1 1 1 1 1 0 0 0 0 1 1 2 5 18 40 59 66 68
17 9 2 1 2 3 3 2 0 0 0 0 0 0 0 0 0 0 0 0 0 0 1 1 3 5 6 3 2 1 0 0 1 1 2 1 2 4 12 29 48 59 61
41 25 8 3 2 2 1 1 0 0 0 0 0 1 2 1 1 0 0 0 0 0 1 2 6 10 9 4 1 1 0 0 0 1 1 1 1 3 8 20 36 45 46
52 35 16 7 5 3 2 2 2 2 3 4 4 6 9 8 4 1 0 0 0 0 1 2 5 8 7 2 0 0 0 0 0 0 0 0 1 2 6 14 25 30 29
41 31 20 15 14 15 18 20 20 20 20 20 17 20 25 22 11 3 0 0 0 0 0 1 2 4 3 1 0 0 0 0 0 0 0 0 1 3 6 10 14 16 16
24 23 21 20 26 36 46 50 52 50 45 38 32 34 37 29 14 4 0 0 0 0 0 0 0 1 2 1 0 0 0 0 0 0 0 0 1 3 5 7 8 8 7
14 15 17 21 30 48 63 71 72 68 57 45 38 36 33 24 11 3 0 0 0 0 0 0 0 0 0 0 0 0 0 0 0 0 0 0 1 3 4 5 7 7 5
6 7 10 16 26 43 58 65 65 57 45 36 30 24 19 13 6 1 0 0 0 0 0 0 0 0 0 0 0 0 0 0 0 0 0 0 1 2 2 3 6 7 7
1 2 5 10 18 29 40 43 39 32 24 19 15 10 6 4 2 0 0 0 0 0 0 0 0 0 0 0 0 0 0 0 0 0 0 0 0 1 1 2 4 7 8
0 1 4 7 10 15 19 19 15 11 8 6 4 2 0 0 0 0 0 0 0 0 0 0 0 0 0 0 0 0 0 0 0 0 0 0 0 0 0 0 2 4 5
1 1 3 4 5 5 7 7 4 2 1 1 0 0 0 0 0 0 0 0 0 0 0 0 0 0 0 0 0 0 0 0 0 0 0 0 0 0 0 0 1 1 1
0 1 1 1 1 2 2 2 1 1 1 1 0 0 0 0 0 0 0 0 0 0 0 0 0 0 0 0 0 0 0 0 0 0 0 0 0 0 0 0 0 0 0
0 0 0 0 0 0 0 0 0 1 1 1 0 0 0 0 0 0 0 0 0 0 0 0 0 0 0 0 0 0 0 0 0 0 0 0 0 0 0 0 0 0 0
0 0 0 0 0 0 0 0 0 1 1 0 1 1 0 0 0 0 0 0 0 0 0 0 0 0 0 0 0 0 0 0 0 0 0 0 0 0 0 0 0 0 0
0 0 0 0 0 0 0 0 0 0 0 1 2 3 1 0 0 0 0 0 0 0 0 0 0 0 0 0 0 0 0 0 0 0 0 0 0 0 0 0 0 0 0

GEFSSE_con_prob3kmehi_030.txt.gz
EHI
0 4 10 8 5 3 1 3 10 26 43 52 56 54 40 20 7 1 0 0 0 0 0 0 0 0 0 0 0 0 0 0 0 0 0 0 0 0 0 0 0 0 0
1 5 10 11 7 3 1 1 5 14 27 36 38 35 25 12 4 1 0 0 0 0 0 0 0 0 0 0 0 0 0 0 0 0 0 0 0 0 0 0 0 0 0
3 5 11 15 13 7 2 0 0 3 9 14 15 13 8 4 1 0 0 0 0 0 0 0 0 0 0 0 0 0 0 0 0 0 0 0 0 0 0 0 0 0 0
6 5 11 22 24 16 7 2 0 0 1 3 3 2 1 1 0 0 0 0 0 0 0 0 0 0 0 0 0 0 0 0 0 0 0 0 0 0 0 0 0 0 0
4 4 16 35 41 30 16 5 0 1 1 0 0 0 0 0 0 0 0 0 0 0 0 0 0 0 0 0 0 0 0 0 0 0 0 0 0 0 0 0 0 0 0
4 6 25 52 60 47 29 13 4 3 2 1 0 0 0 0 0 0 0 0 0 0 0 0 0 0 0 0 0 0 0 0 0 0 0 0 0 0 0 0 0 0 0
9 11 33 64 76 65 47 27 14 9 6 2 1 0 0 0 0 0 0 0 0 0 0 0 0 0 0 0 0 0 0 0 0 0 0 0 0 0 0 0 0 0 0
16 19 37 65 81 80 67 48 34 24 16 8 3 1 0 0 0 0 0 0 0 0 0 0 0 0 0 0 0 0 0 0 0 0 0 0 0 0 0 0 0 0 0
20 27 41 57 74 82 79 66 53 41 28 16 6 2 1 0 0 0 0 0 0 0 0 0 0 0 0 0 0 0 0 0 0 0 0 0 0 0 0 0 0 0 0
20 30 41 50 61 71 72 65 55 43 30 18 8 2 1 0 0 0 0 0 0 0 0 0 0 0 0 0 0 0 0 0 0 0 0 0 0 0 1 1 1 0 0
17 25 34 41 49 56 56 50 42 33 24 16 7 3 2 1 0 0 0 0 0 0 0 0 0 0 0 0 0 0 0 0 0 0 0 0 0 0 2 3 3 1 1
11 16 22 27 34 42 44 38 32 28 24 18 10 5 5 4 1 0 0 0 0 0 0 0 0 0 0 0 0 0 0 0 0 0 0 0 0 0 1 3 3 2 2
5 8 13 17 21 29 34 32 29 30 29 24 17 10 7 5 2 0 0 0 0 0 0 0 0 1 1 0 0 0 0 0 0 0 0 0 0 0 0 1 2 2 2
4 4 8 12 15 20 24 24 23 25 27 26 22 15 10 7 5 2 1 0 0 0 0 0 1 1 0 0 0 0 0 0 0 0 1 0 0 1 1 0 1 2 3
7 6 8 11 14 16 17 15 14 14 16 19 19 16 12 10 8 5 2 1 0 0 0 0 0 0 0 0 0 0 0 0 0 0 0 0 0 1 1 0 1 2 3
10 10 10 9 11 12 12 11 9 7 8 11 13 12 11 9 8 4 1 0 0 0 0 0 0 0 0 0 0 0 0 0 0 0 0 0 0 1 1 0 0 1 1
9 10 9 7 7 8 8 9 7 4 4 6 8 8 6 5 4 2 0 0 0 0 0 0 0 0 0 0 0 0 0 0 0 0 0 0 0 0 0 0 0 0 0
5 5 4 4 6 6 6 6 5 4 2 3 4 4 3 2 1 1 0 0 0 0 0 0 0 0 1 0 0 0 0 0 0 0 0 0 0 0 0 0 0 0 0
2 2 1 2 4 5 5 4 4 4 2 2 2 2 1 1 1 0 0 0 0 0 0 0 0 0 0 0 0 0 0 0 0 0 0 0 0 0 0 0 0 0 0
1 1 0 1 2 3 2 2 3 4 3 3 3 2 1 0 1 1 0 0 0 0 0 0 0 0 0 0 0 0 0 0 0 0 0 0 0 0 0 0 0 0 0
0 0 0 0 1 1 1 1 1 2 2 2 3 2 1 0 0 1 0 0 0 0 0 0 0 0 0 0 0 0 0 0 0 0 0 0 0 0 0 0 0 0 0
0 0 0 0 0 0 0 0 0 0 0 1 2 1 0 0 0 1 0 0 0 0 0 0 0 0 0 0 0 0 0 0 0 0 0 0 0 0 0 0 0 0 0
0 0 0 0 0 0 0 0 0 0 0 0 0 0 0 0 0 0 0 0 0 0 0 0 0 0 0 0 0 0 0 0 0 0 0 0 0 0 0 0 0 0 0
0 0 0 0 0 0 0 0 0 0 0 0 0 0 0 0 0 0 0 0 0 0 0 0 0 0 0 0 0 0 0 0 0 0 0 0 0 0 0 0 0 0 0
0 0 0 0 0 0 0 0 0 0 0 0 0 0 0 0 0 0 0 0 0 0 0 0 0 0 0 0 0 0 0 0 0 0 0 0 0 0 0 0 0 0 0
0 0 0 0 0 0 0 0 0 0 0 0 0 0 0 0 0 0 0 0 0 0 0 0 0 0 0 0 0 0 0 0 0 0 0 0 0 0 0 0 0 0 0

GEFSSE_con_prob3kmehi_036.txt.gz
EHI
25 36 29 10 2 0 0 1 5 9 13 20 24 20 11 4 1 0 0 0 0 0 0 0 0 0 0 0 0 0 0 0 0 0 0 0 0 0 0 0 0 0 0
31 39 29 10 2 0 0 1 5 11 17 25 32 29 18 8 2 1 0 0 0 0 0 0 0 0 0 0 0 0 0 0 0 0 0 0 0 0 0 0 0 0 0
32 36 25 8 2 0 0 1 5 11 18 28 37 36 23 9 3 1 0 0 0 0 0 0 0 0 0 0 0 0 0 0 0 0 0 0 0 0 0 0 0 0 0
21 26 21 9 3 0 0 0 3 7 11 19 26 26 17 7 1 0 0 0 0 0 0 0 0 0 0 0 0 0 0 0 0 0 0 0 0 0 0 0 0 0 0
12 19 20 11 3 0 0 0 1 2 4 6 9 9 6 3 1 0 0 0 0 0 0 0 0 0 0 0 0 0 0 0 0 0 0 0 0 0 0 0 0 0 0
8 14 17 10 2 0 0 0 0 1 1 1 1 1 1 1 0 0 0 0 0 0 0 0 0 0 0 0 0 0 0 0 0 0 0 0 0 0 0 0 0 0 0
3 8 12 8 2 1 0 0 0 0 0 0 0 0 0 0 0 0 0 0 0 0 0 0 0 0 0 0 0 0 0 0 0 0 0 0 0 0 0 0 0 0 0
0 5 9 6 2 1 0 1 1 1 1 0 0 0 0 0 0 0 0 0 0 0 0 0 0 0 0 0 0 0 0 0 0 0 0 0 0 0 0 0 0 0 0
0 2 5 4 3 4 5 7 7 7 6 5 4 2 1 1 0 0 0 0 0 0 0 0 0 0 0 0 0 0 0 0 0 0 0 2 3 2 0 0 0 0 0
1 2 2 3 6 10 14 19 21 21 18 13 10 7 5 2 0 0 0 1 1 0 0 0 0 0 0 0 0 0 0 0 0 0 1 6 9 4 0 0 0 0 0
7 6 5 8 13 15 20 28 33 34 31 22 15 14 10 5 1 1 5 8 5 1 0 0 0 0 0 0 0 0 0 0 0 0 6 15 15 5 0 0 0 0 0
15 12 11 15 19 19 22 31 37 41 42 35 26 24 24 18 11 10 15 18 9 2 0 0 0 0 1 2 3 2 0 0 0 0 12 27 19 4 0 0 0 0 0
18 15 16 20 21 22 25 31 37 43 48 48 43 43 46 46 39 33 32 28 19 11 6 6 6 4 3 5 6 4 2 1 1 2 18 32 20 3 0 0 0 0 1
19 18 18 21 24 26 29 31 34 41 45 48 54 58 63 66 63 59 55 46 34 26 18 15 16 11 6 6 5 3 2 2 2 6 22 33 20 3 0 0 1 1 1
26 22 18 20 24 28 31 32 32 36 37 39 48 57 61 65 67 67 68 61 46 33 25 22 19 14 11 9 5 2 1 2 3 7 20 27 17 4 1 1 1 1 1
29 23 17 14 16 21 24 25 26 29 29 28 34 44 48 51 57 58 58 55 44 33 32 27 19 14 13 12 6 1 1 3 3 5 12 17 13 5 1 2 4 4 4
23 21 15 8 6 8 10 12 15 17 17 17 23 29 32 35 42 44 42 38 36 35 38 34 23 14 11 8 6 4 5 5 4 4 8 13 11 4 1 4 8 11 11
15 15 11 6 3 2 3 5 7 7 7 10 16 20 20 20 25 31 31 27 27 30 33 30 22 13 8 6 6 7 7 6 3 4 7 10 9 5 4 6 9 12 13
8 8 8 6 3 2 2 4 5 5 5 7 11 14 13 10 11 18 22 20 19 21 20 17 14 11 8 6 5 5 5 3 1 2 3 4 5 5 6 7 7 7 7
4 4 5 4 3 1 2 3 3 3 3 3 7 9 8 5 4 8 13 15 15 13 11 10 9 8 5 3 1 1 1 0 0 0 0 0 1 2 3 4 4 3 2
2 2 2 2 1 1 2 2 1 1 1 1 2 3 3 2 3 6 10 14 14 10 8 7 6 5 2 1 0 0 0 0 0 0 1 0 0 0 0 1 1 2 1
1 1 1 1 0 0 1 1 0 0 0 0 0 0 0 0 2 5 8 11 13 11 7 5 4 2 1 0 0 1 0 0 0 0 0 0 0 0 0 0 1 1 1
0 0 0 0 0 0 0 0 0 0 0 0 0 0 0 0 1 3 5 7 9 9 6 3 1 1 0 0 0 0 0 0 0 0 0 0 0 0 0 0 0 0 0
0 0 0 0 0 0 0 0 0 0 0 0 0 0 0 0 1 1 2 3 4 4 3 2 1 0 0 0 0 0 0 0 0 0 0 0 0 0 0 0 0 0 0
0 0 0 0 0 0 0 0 0 0 0 0 0 0 0 0 0 0 0 1 1 0 0 0 0 0 0 0 0 0 0 0 0 0 0 0 0 0 0 0 0 0 0
0 0 0 0 0 0 0 0 0 0 0 0 0 0 0 0 0 0 0 0 0 0 0 0 0 0 0 0 0 0 0 0 0 0 0 0 0 0 0 0 0 0 0

GEFSSE_con_prob3kmehi_042.txt.gz
EHI
71 62 57 46 24 8 2 0 0 0 0 0 0 0 0 0 0 0 0 0 0 0 0 0 0 0 0 0 0 0 0 0 0 0 0 0 0 0 0 0 0 0 0
69 55 49 41 22 8 2 0 0 0 0 0 0 0 0 0 0 0 0 0 0 0 0 0 0 0 0 0 0 0 0 0 0 0 0 0 0 0 0 0 0 0 0
55 39 32 29 18 9 4 2 1 0 0 0 0 0 0 0 0 0 0 0 0 0 0 0 0 0 0 0 0 0 0 0 0 0 0 0 0 0 0 0 0 0 0
32 21 16 16 12 8 6 5 3 2 1 1 2 2 1 1 0 0 0 0 0 0 0 0 0 0 0 0 0 0 0 0 0 0 0 0 0 0 0 0 0 0 0
23 19 15 12 9 7 6 6 5 4 3 2 3 4 3 2 1 0 0 0 0 0 0 0 0 0 0 0 0 0 0 0 0 0 0 0 0 0 0 0 0 0 0
32 29 24 17 9 5 4 4 4 4 4 4 4 5 5 3 1 0 0 0 0 0 1 1 0 0 0 0 0 0 0 0 0 0 1 2 3 2 0 0 0 0 0
47 42 33 24 13 5 3 2 2 2 2 3 3 4 4 2 0 0 0 0 1 2 4 3 1 0 0 0 0 0 0 0 0 0 3 11 15 9 3 0 0 0 0
65 55 38 25 15 5 2 2 1 1 1 1 2 3 3 2 0 0 1 2 4 8 11 11 6 2 1 1 1 0 0 0 0 0 8 27 38 28 12 4 0 0 0
74 60 34 17 11 4 1 1 1 2 3 2 1 1 1 1 1 1 4 7 11 16 21 19 13 7 5 5 3 1 0 0 0 0 11 41 63 55 33 14 4 1 0
61 51 28 15 10 5 6 9 8 7 7 4 2 2 3 2 2 3 7 13 22 29 30 27 22 19 17 12 7 4 2 0 0 0 12 45 76 78 56 32 13 3 1
39 36 30 27 22 14 19 28 23 16 15 11 9 11 10 6 3 5 15 29 41 45 43 37 35 35 31 19 10 8 6 2 0 0 13 49 82 87 72 49 25 9 3
30 33 37 42 42 35 40 47 36 25 28 26 22 26 28 21 14 14 31 55 65 62 57 52 49 47 38 22 16 17 11 3 0 1 19 58 85 87 76 58 37 18 7
42 45 49 56 62 61 62 61 46 37 42 44 39 43 49 45 36 33 49 74 82 75 67 62 58 51 37 25 26 28 16 3 0 4 26 64 84 82 74 61 45 27 15
64 65 67 71 76 75 71 65 56 51 53 55 54 56 61 62 55 52 60 75 82 78 69 62 59 51 38 29 30 33 24 9 3 7 29 59 74 74 68 56 42 29 22
81 80 79 77 75 71 66 61 59 61 59 58 60 62 63 65 63 59 59 62 65 64 60 53 48 44 39 33 30 32 30 20 12 11 25 45 57 61 57 45 31 23 20
81 80 77 69 63 62 60 60 60 58 56 55 59 62 60 59 58 55 51 49 47 45 42 39 33 32 34 33 29 28 29 27 24 20 23 34 44 45 42 34 23 18 16
68 70 66 56 52 55 57 58 55 50 46 48 51 55 54 48 45 44 43 41 39 34 29 25 23 23 24 25 25 23 24 28 29 27 26 31 35 31 25 22 19 18 17
54 57 54 46 43 44 43 42 38 35 35 35 38 41 41 37 31 31 34 35 32 28 21 17 16 16 16 17 18 18 20 24 25 23 23 24 24 20 14 12 14 16 17
39 41 39 35 31 27 22 20 19 20 22 25 27 28 27 24 20 20 23 25 23 19 14 10 10 11 10 11 12 11 13 16 16 14 13 15 15 13 10 8 8 10 11
20 21 21 20 19 14 9 7 8 10 14 16 20 20 16 12 11 10 11 13 13 11 7 5 5 6 6 6 6 6 7 8 9 8 7 8 9 9 7 6 6 5 4
7 7 6 7 8 7 5 4 4 6 8 10 12 11 7 4 4 4 4 6 7 5 3 1 1 2 2 3 3 3 3 3 3 4 4 4 5 5 4 5 7 7 5
1 1 1 1 3 4 3 2 1 1 2 4 5 5 2 1 1 1 3 4 4 2 1 0 0 0 1 1 1 2 2 1 1 1 2 2 1 2 2 4 8 11 10
0 0 1 3 4 6 4 1 0 0 0 1 1 1 1 0 0 0 1 3 3 1 0 0 0 0 0 0 0 1 1 0 0 0 1 0 0 0 1 2 8 12 12
0 0 3 8 11 9 5 1 0 0 0 0 0 0 0 0 0 0 0 1 1 1 0 1 1 1 0 0 0 0 0 0 0 0 0 0 0 0 0 1 5 10 12
0 0 4 11 14 11 6 2 0 0 0 0 0 0 0 0 0 0 0 0 0 0 0 1 2 2 1 0 0 0 0 0 0 0 0 0 0 0 0 0 2 6 10
0 0 3 9 13 11 7 3 1 0 0 0 0 0 0 0 0 0 0 0 0 0 0 1 2 2 1 0 0 0 0 0 0 0 0 0 0 0 0 1 2 5 7

GEFSSE_con_prob3kmehi_048.txt.gz
EHI
12 26 47 61 67 66 50 27 11 3 0 0 0 0 0 0 0 0 0 0 0 0 0 0 0 0 0 0 0 0 0 0 0 0 0 0 0 0 0 0 0 0 0
23 32 49 63 69 70 55 31 13 5 2 0 0 0 0 0 0 0 0 0 0 0 0 0 0 0 0 0 0 0 0 0 0 0 0 0 0 0 0 0 0 0 0
39 38 48 62 72 75 64 40 22 12 6 2 0 0 0 0 0 0 0 0 0 0 0 0 0 0 0 0 0 0 0 0 0 0 0 0 0 0 0 0 0 0 0
40 36 43 60 72 77 72 54 35 21 12 5 1 0 0 0 0 0 0 0 0 0 0 0 0 0 0 0 0 0 0 0 0 0 0 0 0 0 0 0 0 0 0
27 27 40 60 72 77 78 69 51 32 18 8 3 1 0 0 0 0 0 0 0 0 0 0 0 0 0 0 0 0 0 0 0 0 0 0 0 0 0 0 0 0 0
15 19 35 55 66 72 77 75 62 42 23 9 3 1 0 0 0 0 0 0 0 0 0 0 1 1 0 0 0 0 0 0 0 0 0 0 0 1 2 1 0 0 0
9 13 26 42 53 61 68 67 57 40 22 10 5 3 1 0 0 0 0 0 0 0 0 1 2 2 1 0 0 0 0 0 0 0 0 0 1 4 6 3 1 0 0
5 7 15 25 36 45 50 49 41 29 18 9 5 3 1 0 1 0 0 0 0 0 1 2 3 3 1 0 0 0 0 0 0 0 0 0 3 9 12 9 5 2 1
1 2 5 10 17 25 30 28 24 20 15 8 3 1 0 0 1 1 1 2 1 1 2 5 8 7 5 3 1 0 0 0 0 0 0 0 5 13 18 16 12 7 4
3 2 1 2 5 9 12 13 13 13 11 6 2 1 1 1 1 2 3 3 3 4 7 12 17 19 17 12 7 3 1 0 0 0 0 1 7 15 21 21 17 12 9
13 9 6 4 3 2 3 5 5 6 6 5 3 3 3 3 3 4 4 5 5 7 11 20 30 36 34 26 19 12 6 3 1 0 0 1 7 19 29 29 24 17 14
32 25 19 15 10 7 6 5 4 3 3 5 5 5 5 6 6 5 5 5 7 9 13 22 35 45 45 40 33 24 15 7 2 0 0 2 11 28 43 44 35 25 19
56 49 42 37 30 24 20 15 10 6 7 10 11 9 7 8 7 6 5 4 8 14 18 23 32 39 43 42 38 30 20 10 3 0 0 4 16 36 52 53 44 34 26
70 66 61 57 50 42 35 26 19 15 15 18 16 14 14 12 9 6 4 4 7 15 21 24 25 29 33 34 30 22 15 9 3 0 0 6 21 38 50 54 46 35 28
62 61 59 56 52 45 36 28 23 20 18 17 15 16 19 17 11 5 3 2 4 11 16 17 17 19 23 24 20 13 9 6 3 1 0 7 21 35 45 49 40 27 21
44 42 41 38 35 30 25 21 18 15 12 9 9 13 15 13 8 4 1 1 1 4 8 8 9 11 13 15 14 10 7 5 3 1 0 5 15 27 36 38 29 19 14
24 23 22 19 16 14 13 12 10 7 4 3 5 7 8 6 4 3 1 0 1 2 3 4 4 5 6 7 8 8 7 6 3 1 1 3 8 14 22 25 22 17 13
8 8 7 6 4 4 6 7 5 2 1 1 2 4 4 3 3 2 1 1 1 2 2 2 3 2 2 2 2 3 5 5 3 1 2 3 3 5 9 13 15 13 11
1 1 0 1 1 1 2 2 1 0 0 0 1 1 2 1 1 1 1 0 1 1 1 1 1 1 0 0 0 0 2 3 3 2 2 2 2 2 4 5 6 6 6
0 0 0 0 0 0 0 0 0 0 0 0 0 0 0 0 0 0 0 0 0 0 0 0 0 0 0 0 0 0 0 1 2 3 2 1 1 2 2 2 2 3 3
0 0 0 0 0 0 0 0 0 0 0 0 0 0 0 0 0 0 0 0 0 0 0 0 0 0 0 0 0 0 0 0 1 2 2 2 1 1 2 1 1 2 2
0 0 0 0 0 0 0 0 0 0 0 0 0 0 0 0 0 0 0 0 0 0 0 0 0 0 0 0 0 0 0 0 0 1 1 1 1 1 1 1 0 1 1
0 0 0 1 0 0 0 0 0 0 0 0 0 0 0 0 0 0 0 0 0 0 0 0 0 0 0 0 0 0 0 0 0 0 0 0 0 0 0 0 0 0 0
0 0 0 0 0 0 0 0 0 0 0 0 0 0 0 0 0 0 0 0 0 0 0 0 0 0 0 0 0 0 0 0 0 0 0 0 0 0 0 0 0 0 0
0 0 0 0 0 0 0 0 0 0 0 0 0 0 0 0 0 0 0 0 0 0 0 0 0 0 0 0 0 0 0 0 0 0 0 0 0 0 0 0 0 0 1
0 0 0 0 0 0 0 0 0 0 0 0 0 0 0 0 0 0 0 0 0 0 0 0 0 0 0 0 0 0 0 0 0 0 0 0 0 0 0 0 0 1 1

GEFSSE_con_prob3kmehi_054.txt.gz
EHI
0 0 1 8 24 47 67 77 82 85 87 87 83 80 76 68 55 37 18 6 2 0 0 0 0 0 0 0 0 0 0 0 0 0 0 0 0 0 0 0 0 0 0
1 0 1 9 27 49 65 73 75 75 76 77 75 73 68 59 46 29 13 5 2 0 0 0 0 0 0 0 0 0 0 0 0 0 0 0 0 0 0 0 0 0 0
3 1 2 11 30 52 65 68 67 63 61 59 55 52 47 38 27 15 6 2 1 0 0 0 0 0 0 0 0 0 0 0 0 0 0 0 0 0 0 0 0 0 0
4 2 3 12 30 49 62 66 63 56 49 41 33 27 24 18 11 5 2 1 0 0 0 0 0 0 0 0 0 0 0 0 0 0 0 0 0 0 0 0 0 0 0
4 2 4 14 28 45 59 65 63 54 43 32 21 15 12 8 3 1 0 0 0 0 0 0 0 0 0 0 0 0 0 0 0 0 0 0 0 0 0 0 0 0 0
5 3 6 17 31 45 57 63 61 51 40 28 17 11 8 4 1 0 0 0 0 0 0 0 0 0 0 0 0 0 0 0 0 0 0 0 0 0 0 0 0 0 0
9 5 7 18 32 43 51 53 52 45 34 22 13 9 5 1 0 0 0 0 0 0 0 0 0 0 0 0 0 0 0 0 0 0 0 0 0 0 0 0 0 0 0
10 7 8 14 24 33 36 36 35 34 28 18 9 5 2 0 0 0 0 0 0 0 0 0 0 0 0 0 0 0 0 0 0 0 0 0 0 0 0 0 0 0 0
6 6 7 10 15 20 22 22 22 23 21 15 8 3 1 0 0 0 0 0 0 0 0 0 0 0 0 1 1 1 2 1 0 0 0 0 0 0 0 0 1 1 0
2 3 5 8 11 13 14 14 15 16 14 11 8 4 2 1 1 0 0 0 0 0 0 0 0 0 1 3 3 4 4 3 1 0 0 0 0 0 0 0 1 2 1
4 3 3 5 8 10 11 10 11 11 10 9 8 6 4 3 2 1 1 0 0 0 0 0 1 1 3 4 4 5 6 4 2 1 0 0 0 0 0 0 1 2 3
8 5 3 2 4 8 9 8 6 6 6 7 7 8 6 4 4 4 4 2 1 1 1 1 2 3 4 5 5 7 8 6 3 2 0 0 0 0 0 0 1 2 2
13 9 5 3 4 6 6 5 5 4 4 4 5 7 7 6 6 6 6 5 4 3 3 3 4 5 5 4 5 7 8 7 5 2 0 0 0 0 0 0 0 1 1
21 16 9 5 5 5 4 5 6 4 3 3 3 4 7 8 7 7 7 6 5 4 4 3 3 4 4 4 5 6 7 7 4 2 0 0 0 0 0 0 0 0 0
21 15 8 5 5 4 3 4 4 4 3 2 2 3 6 8 7 7 7 5 4 4 3 3 2 3 4 5 5 5 5 5 3 1 0 0 1 1 1 0 0 0 0
12 7 3 2 2 2 1 1 2 1 1 1 1 1 4 5 5 5 5 3 2 2 3 2 2 2 4 5 4 4 4 3 2 1 0 1 1 1 2 2 1 1 1
4 2 1 0 0 0 0 0 1 0 0 0 0 0 1 1 1 2 1 1 1 1 1 1 1 2 3 4 3 2 2 1 1 0 0 1 1 1 2 5 5 5 5
1 1 1 0 0 0 0 0 0 0 0 0 0 0 0 0 0 0 0 0 0 0 0 0 0 1 1 2 2 2 2 1 0 0 0 1 1 1 2 6 8 8 9
0 0 0 0 0 0 0 0 0 0 0 0 0 0 0 0 0 0 0 0 0 0 0 0 0 0 0 1 1 1 1 0 0 0 0 0 1 1 2 4 6 7 8
0 0 0 0 0 0 0 0 0 0 0 0 0 0 0 0 0 0 0 0 0 0 0 0 0 0 0 0 0 0 0 0 0 0 0 0 0 0 1 2 4 5 5
0 0 0 0 0 0 0 0 0 0 0 0 0 0 0 0 0 0 0 0 0 0 0 0 0 0 0 0 0 0 0 0 0 0 0 0 0 0 0 0 2 3 4
0 0 0 0 0 0 0 0 0 0 0 0 0 0 0 0 0 0 0 0 0 0 0 0 0 0 0 0 0 0 0 0 0 0 0 0 0 0 0 0 0 1 1
0 0 0 0 0 0 0 0 0 0 0 0 0 0 0 0 0 0 0 0 0 0 0 0 0 0 0 0 0 0 0 0 0 0 0 0 0 0 0 0 1 1 0
0 0 0 0 0 0 0 0 0 0 0 0 0 0 0 0 0 0 0 0 0 0 0 0 0 0 0 0 0 0 0 0 0 0 0 0 0 0 0 0 1 1 1
0 0 0 0 0 0 0 0 0 0 0 0 0 0 0 0 0 0 0 0 0 0 0 0 0 0 0 0 0 0 0 0 0 0 0 0 0 0 0 0 1 1 0
0 0 0 0 0 0 0 0 0 0 0 0 0 0 0 0 0 0 0 0 0 0 0 0 0 0 0 0 0 0 0 0 0 0 0 0 0 0 0 0 0 0 0

GEFSSE_con_prob3kmehi_060.txt.gz
EHI
0 0 0 0 1 3 7 15 26 38 45 42 34 25 17 10 6 4 1 1 0 0 0 0 0 0 0 0 0 0 0 0 0 0 0 0 0 0 0 0 0 0 0
0 0 0 0 1 4 8 15 28 42 50 49 43 36 24 15 9 5 2 1 1 0 0 0 0 0 0 0 0 0 0 0 0 0 0 0 0 0 0 0 0 0 0
0 0 0 1 1 4 9 16 28 41 49 51 50 44 33 20 10 4 2 2 1 0 0 0 0 0 0 0 0 0 0 0 0 0 0 0 0 0 0 0 0 0 0
0 0 0 1 2 4 8 17 28 36 40 42 43 39 29 17 8 3 1 1 0 0 0 0 0 0 0 0 0 0 0 0 0 0 0 0 0 0 0 0 0 0 0
0 0 0 1 1 3 6 14 24 29 29 28 27 23 16 9 4 1 0 0 0 0 0 0 0 0 0 0 0 0 0 0 0 0 0 0 0 0 0 0 0 0 0
0 0 0 1 1 1 4 9 16 19 18 15 13 10 6 3 1 0 0 0 0 0 0 0 0 0 0 0 0 0 0 0 0 0 0 0 0 0 0 0 0 0 0
0 0 0 1 0 1 2 5 8 10 9 8 7 5 4 2 1 0 0 0 0 0 0 0 0 0 0 0 0 0 0 0 0 0 0 0 0 0 0 0 0 0 0
0 0 0 1 0 0 1 2 5 7 8 7 6 4 3 2 1 0 0 0 0 0 0 0 0 0 0 0 0 0 0 0 0 0 0 0 0 0 0 0 0 0 0
0 0 0 1 0 0 0 2 4 7 9 8 5 3 2 1 1 1 1 1 0 0 0 0 0 0 0 0 0 0 0 0 0 0 0 0 0 0 0 0 0 0 0
0 0 0 1 1 1 2 4 6 7 8 6 3 2 1 1 2 2 3 2 1 0 0 0 0 0 0 0 0 0 0 0 0 0 0 1 0 0 0 0 0 0 0
1 1 1 1 1 1 2 4 6 6 5 3 2 1 1 2 3 4 5 5 3 2 1 0 0 0 1 1 1 1 1 0 0 0 4 7 5 1 0 0 0 0 0
2 3 2 1 1 2 3 5 8 8 6 3 2 1 2 4 6 7 8 7 6 4 2 1 1 1 3 5 7 6 3 1 1 1 10 19 12 2 1 0 0 0 0
5 6 5 5 5 6 8 10 11 11 10 8 6 5 7 10 11 10 10 10 9 8 5 4 4 4 5 10 11 10 7 5 5 5 17 28 18 4 1 0 0 0 1
11 11 11 12 14 17 19 18 13 10 10 11 10 8 11 14 13 13 14 13 13 14 11 9 10 8 8 11 11 10 8 9 11 12 22 29 21 9 3 1 1 1 1
19 20 19 19 23 27 29 25 15 8 7 8 7 7 8 10 10 12 14 14 15 17 15 12 12 11 10 11 9 8 9 10 14 18 24 27 22 12 6 2 1 0 1
27 25 23 22 25 26 25 21 14 6 3 2 3 3 4 6 7 7 8 9 12 15 13 10 9 11 11 10 8 8 10 11 13 16 19 22 19 13 8 5 3 2 1
29 24 19 18 20 18 13 9 6 3 1 0 1 2 3 5 5 4 3 3 5 8 9 8 8 10 10 9 8 9 10 10 10 9 11 16 18 14 10 9 9 7 5
24 18 10 7 10 9 5 1 1 1 0 0 0 1 1 3 3 2 1 0 1 3 5 6 8 10 9 7 8 8 8 7 6 5 6 11 16 15 13 14 14 12 10
15 10 4 1 2 2 1 0 0 0 0 0 0 0 0 1 1 1 0 0 0 1 3 4 6 8 7 5 6 6 6 5 4 4 4 6 10 12 15 17 16 14 11
6 4 1 0 1 0 0 0 0 0 0 0 0 0 0 0 0 0 0 0 0 0 1 2 4 4 4 3 4 4 4 4 4 4 5 5 4 6 10 16 19 17 15
2 1 0 1 1 0 0 0 0 0 0 0 0 0 0 0 0 0 0 0 0 0 0 1 2 2 2 2 3 3 3 3 3 4 6 5 2 2 4 10 16 19 21
1 0 1 3 3 2 2 1 2 2 1 0 0 0 0 0 0 0 0 0 0 0 0 0 1 1 1 1 1 2 2 2 2 2 3 3 2 1 2 3 8 14 17
1 2 3 7 8 7 6 5 4 4 2 1 0 0 0 0 0 0 0 0 0 0 0 0 0 0 0 0 0 1 1 1 1 0 1 1 1 1 1 1 3 6 7
4 4 7 10 13 13 12 9 6 5 3 2 1 0 0 0 0 0 0 0 0 0 0 0 0 0 0 0 0 0 0 0 0 0 0 0 0 0 0 0 2 4 4
5 6 9 13 17 18 14 11 8 5 3 2 1 0 0 0 0 0 0 0 0 0 0 0 0 0 0 0 0 0 0 0 0 0 0 0 0 0 0 0 1 3 2
4 6 9 14 20 19 15 12 8 5 3 2 1 0 0 0 0 0 0 0 0 0 0 0 0 0 0 0 0 0 0 0 0 0 0 0 0 0 0 0 1 1 1

GEFSSE_con_prob3kmehi_066.txt.gz
EHI
23 24 29 26 13 4 1 0 0 0 0 1 1 1 0 0 0 0 0 0 0 0 0 0 0 0 0 0 0 0 0 0 0 0 0 0 0 0 0 0 0 0 0
22 22 26 25 14 5 1 0 0 0 0 0 0 0 0 1 1 0 0 0 0 0 0 0 0 0 0 0 0 0 0 0 0 0 0 0 0 0 0 0 0 0 0
11 12 17 19 14 7 2 0 1 1 2 1 1 1 1 2 1 0 0 0 0 0 0 0 0 0 0 0 0 0 0 0 0 0 0 0 0 0 0 0 0 0 0
6 7 10 13 13 9 4 2 2 3 3 3 3 2 1 1 1 0 0 0 0 0 0 0 0 0 0 0 0 0 0 0 1 1 1 0 0 0 0 0 0 0 0
11 11 11 12 11 8 6 4 4 5 5 5 4 2 1 0 0 0 0 0 0 0 0 0 0 0 0 0 0 0 0 0 2 3 1 0 0 0 0 0 0 0 0
17 13 12 13 10 6 6 5 6 6 6 5 3 1 0 0 0 0 0 0 0 0 0 0 0 0 0 0 0 0 0 1 2 2 2 2 2 1 0 0 0 0 0
28 17 12 14 10 5 3 3 4 5 3 2 2 1 1 1 1 1 0 0 0 0 0 0 0 0 0 0 0 0 0 2 3 2 4 6 5 3 1 0 0 0 0
43 25 12 12 9 4 2 2 2 2 1 1 1 2 2 2 2 1 0 0 0 0 0 0 0 0 0 0 0 0 0 2 3 2 6 13 12 7 3 0 0 0 0
45 27 11 6 5 3 2 3 3 4 4 3 2 1 1 1 1 1 0 0 0 0 0 0 0 0 0 0 0 0 0 1 2 1 7 20 24 17 8 1 0 0 0
36 23 12 6 3 3 4 5 6 8 6 4 2 1 1 0 1 2 3 2 2 2 1 1 1 0 0 1 2 1 0 0 0 1 11 30 39 32 17 5 0 0 0
30 24 20 16 9 7 10 9 7 7 6 3 2 2 2 2 4 7 9 8 7 4 2 2 2 1 2 2 3 3 2 0 0 3 20 45 53 43 29 13 4 0 0
30 29 31 30 23 22 23 18 11 8 8 6 6 6 5 6 9 12 16 15 11 5 2 3 4 4 4 5 6 6 3 1 0 6 29 55 60 50 38 24 11 3 1
36 36 38 41 42 42 38 28 19 17 15 13 14 13 10 10 11 17 21 20 14 7 4 7 10 9 7 7 8 7 4 1 1 9 32 56 60 51 43 32 18 8 4
53 50 50 53 57 58 51 36 26 23 19 15 16 16 13 10 11 18 23 21 16 12 11 15 18 15 11 9 8 7 5 4 3 9 29 51 57 51 45 36 24 14 10
74 70 66 65 63 61 55 40 26 20 16 12 12 13 11 8 10 16 19 18 16 16 17 19 19 16 13 11 9 7 6 6 5 8 22 42 51 49 47 41 31 22 17
85 82 73 62 55 51 44 30 18 12 10 9 8 8 7 7 9 12 13 13 12 13 16 15 13 11 10 10 10 7 5 4 5 8 17 32 41 42 44 43 38 31 26
86 79 62 47 42 38 28 15 7 5 6 6 5 5 5 6 7 8 8 8 8 7 9 10 8 6 5 6 7 6 4 5 6 8 14 23 28 30 35 40 41 40 38
78 69 52 38 33 26 17 8 4 2 3 4 4 4 3 4 4 4 4 4 4 3 3 5 5 4 2 2 4 4 5 7 6 5 8 13 18 21 26 31 35 39 40
65 60 49 38 26 16 10 8 5 3 3 3 5 5 3 1 1 1 1 2 2 1 1 1 3 3 2 2 2 2 3 5 4 2 3 7 12 18 20 20 22 25 26
51 48 43 34 22 12 9 7 6 4 3 3 4 5 3 0 0 0 0 0 0 0 0 0 1 1 1 1 1 0 1 2 1 0 0 2 8 13 14 15 16 15 13
37 36 33 28 21 15 12 9 7 5 4 3 3 4 2 1 0 0 0 0 0 0 0 0 0 0 1 1 0 0 0 0 0 0 0 1 3 6 8 13 17 17 16
29 28 27 29 27 22 18 14 11 8 4 2 3 4 3 1 0 0 0 0 0 0 0 0 0 0 0 0 0 0 0 0 0 0 1 2 1 2 4 9 15 18 19
26 26 30 39 41 32 23 16 10 7 4 2 4 5 3 1 0 0 0 0 0 0 0 0 0 0 0 0 0 0 0 0 0 0 0 1 0 0 1 3 7 11 11
23 27 40 55 56 43 27 15 8 5 4 5 7 7 4 1 0 0 0 0 0 0 0 0 0 0 0 0 0 0 0 0 0 0 0 0 0 0 0 0 1 2 2
19 29 48 63 65 51 31 17 10 6 5 6 8 7 4 1 0 0 0 0 0 0 0 0 0 0 0 0 0 0 0 0 0 0 0 0 0 0 0 0 0 0 0
17 28 48 64 66 54 33 18 12 8 5 6 6 5 2 0 0 0 0 0 0 0 0 0 0 0 0 0 0 0 0 0 0 0 0 0 0 0 0 0 0 0 0

GEFSSE_con_prob3kmehi_072.txt.gz
EHI
2 10 25 35 34 30 24 14 5 1 0 0 0 0 0 0 0 0 0 0 0 0 0 0 0 0 0 0 0 0 0 0 0 0 0 0 0 0 0 0 0 0 0
16 21 34 44 41 32 24 16 6 1 0 0 0 0 0 0 0 0 0 0 0 0 0 0 0 0 0 0 0 0 0 0 0 0 0 0 0 0 0 0 0 0 0
42 37 42 52 49 37 26 17 9 2 0 0 0 0 0 0 0 0 0 0 0 0 0 0 0 0 0 0 0 0 0 0 0 0 0 0 0 0 0 0 0 0 0
53 43 45 56 55 45 33 24 14 6 2 1 0 0 0 0 0 0 0 0 0 0 0 0 0 0 0 0 0 0 0 0 0 0 0 0 0 0 0 0 0 0 0
44 40 47 59 61 54 45 35 24 12 5 2 1 0 0 0 0 0 0 0 0 0 0 0 0 0 0 0 0 0 0 0 0 0 0 0 0 0 0 0 0 0 0
34 34 44 58 62 57 51 43 31 19 9 4 1 0 0 0 0 0 0 0 0 0 0 0 0 0 0 0 0 0 0 0 0 0 0 0 0 1 1 0 0 0 0
27 27 34 47 53 51 47 41 33 23 12 5 1 0 0 0 0 0 0 0 0 0 0 0 0 0 0 0 0 0 0 0 0 0 0 0 1 3 3 1 1 0 0
19 17 20 29 35 36 35 32 28 19 11 5 1 0 0 0 0 0 0 0 0 0 0 0 0 0 0 0 0 0 1 1 0 0 0 0 2 6 6 3 2 1 0
7 7 9 12 17 19 20 20 18 12 7 5 2 0 0 0 0 1 1 1 1 0 0 0 0 0 0 0 0 0 1 2 1 0 0 0 4 10 10 6 3 1 0
1 2 3 5 6 7 8 10 9 7 7 5 3 1 0 0 0 1 2 2 2 1 1 1 1 1 0 0 0 0 1 1 1 0 0 1 6 15 16 10 5 3 2
1 1 2 3 3 3 4 4 4 5 5 4 2 1 0 0 0 1 2 3 4 3 2 2 1 1 0 0 0 0 0 0 0 0 0 2 9 17 21 17 11 7 4
5 3 3 3 2 1 2 2 2 2 2 2 1 0 0 0 0 0 1 3 4 4 3 2 1 0 0 0 0 0 0 0 0 0 1 4 10 18 23 23 18 12 8
17 14 9 5 2 1 1 1 1 1 1 0 0 0 0 0 0 0 0 1 2 1 1 1 0 0 0 0 0 0 0 0 0 0 2 8 13 17 21 22 21 17 12
40 32 21 13 8 4 3 2 1 1 1 0 0 0 0 0 0 0 0 0 0 0 0 0 0 0 0 0 0 0 0 0 0 0 3 10 14 17 18 17 16 15 13
60 49 33 22 15 9 6 3 2 2 2 1 1 0 0 0 0 0 0 0 0 0 0 0 0 0 0 0 0 0 0 0 0 0 2 7 12 14 15 13 11 9 8
63 52 35 24 16 10 6 3 2 2 1 1 1 1 1 0 0 0 0 0 0 0 0 0 0 0 0 0 0 0 0 1 0 0 0 3 7 10 11 11 8 6 5
54 44 29 19 13 8 4 2 1 1 0 1 1 1 1 0 0 0 0 0 0 0 0 0 0 0 0 0 0 0 0 0 0 0 0 1 3 5 7 9 8 6 5
38 32 22 13 8 5 2 0 0 0 0 0 0 1 1 0 0 0 0 0 0 0 0 0 0 0 0 0 0 0 0 0 0 0 0 0 0 2 4 6 7 6 6
24 21 15 9 4 2 0 0 0 0 0 0 0 0 0 0 0 0 0 0 0 0 0 0 0 0 0 0 0 0 0 0 0 0 0 0 0 0 1 2 2 3 3
12 12 10 6 3 1 0 0 0 0 0 0 0 0 0 0 0 0 0 0 0 0 0 0 0 0 0 0 0 0 0 0 0 0 0 0 0 0 0 0 0 1 1
6 7 7 4 2 1 0 0 0 0 0 0 0 0 0 0 0 0 0 0 0 0 0 0 0 0 0 0 0 0 0 0 0 0 0 0 0 0 0 0 0 0 0
4 5 4 3 1 0 0 0 0 0 0 0 0 0 0 0 0 0 0 0 0 0 0 0 0 0 0 0 0 0 0 0 0 0 0 0 0 0 0 0 0 0 0
4 3 2 1 0 0 0 0 0 0 0 0 0 0 0 0 0 0 0 0 0 0 0 0 0 0 0 0 0 0 0 0 0 0 0 0 0 0 0 0 0 0 0
4 3 1 1 0 0 0 0 0 0 0 0 0 0 0 0 0 0 0 0 0 0 0 0 0 0 0 0 0 0 0 0 0 0 0 0 0 0 0 0 0 0 0
6 5 3 2 1 0 0 0 0 0 0 0 0 0 0 0 0 0 0 0 0 0 0 0 0 0 0 0 0 0 0 0 0 0 0 0 0 0 0 0 0 0 0
7 7 6 3 1 0 0 0 0 0 0 0 0 0 0 0 0 0 0 0 0 0 0 0 0 0 0 0 0 0 0 0 0 0 0 0 0 0 0 0 0 0 0

GEFSSE_con_prob3kmehi_078.txt.gz
EHI
1 2 3 9 25 45 57 59 51 43 35 27 21 15 8 2 0 0 0 0 0 0 0 0 0 0 0 0 0 0 0 0 0 0 0 0 0 0 0 0 0 0 0
5 5 6 14 31 49 58 57 48 38 30 23 16 11 6 1 0 0 0 0 0 0 0 0 0 0 0 0 0 0 0 0 0 0 0 0 0 0 0 0 0 0 0
11 7 9 20 37 52 58 56 46 34 25 18 12 6 2 0 0 0 0 0 0 0 0 0 0 0 0 0 0 0 0 0 0 0 0 0 0 0 0 0 0 0 0
12 8 11 25 40 50 55 53 46 33 22 14 8 3 0 0 0 0 0 0 0 0 0 0 0 0 0 0 0 0 0 0 0 0 0 0 0 0 0 0 0 0 0
11 9 16 34 46 50 51 51 45 32 17 8 4 2 0 0 0 0 0 0 0 0 0 0 0 0 0 0 0 0 0 0 0 0 0 0 0 0 0 0 0 0 0
15 15 25 43 54 54 52 50 45 31 15 7 4 2 0 0 0 0 0 0 0 0 0 0 0 0 0 0 0 0 0 0 0 0 0 0 0 0 0 0 0 0 0
24 25 33 46 55 56 54 50 42 29 16 10 6 3 0 0 0 0 0 0 0 0 0 0 0 0 0 0 0 0 0 0 0 0 0 0 0 0 0 0 0 0 0
32 33 35 39 45 49 50 46 37 26 17 11 6 2 1 1 1 1 1 1 0 0 0 0 0 0 0 0 0 0 0 0 0 0 0 0 0 0 0 0 0 0 0
30 30 30 29 30 34 38 39 33 25 18 11 4 2 2 2 2 2 2 1 0 0 0 0 0 0 0 0 1 0 0 0 0 0 0 0 0 0 0 0 1 0 0
17 18 19 21 21 21 24 28 27 22 16 10 4 1 2 1 1 2 2 1 0 0 0 0 0 0 0 0 1 1 1 0 0 0 1 1 1 1 1 0 0 0 0
5 5 7 11 14 15 15 15 15 13 10 6 2 1 1 0 0 1 2 2 2 1 1 2 1 1 1 1 1 2 1 1 0 1 2 2 2 2 2 1 0 0 0
1 1 2 4 8 9 8 6 5 4 3 1 0 0 0 0 0 0 2 3 3 2 2 2 2 2 1 1 1 1 1 1 0 1 2 2 2 3 3 1 0 0 0
1 1 1 2 3 4 4 3 3 1 0 0 0 0 0 0 0 0 1 2 2 1 1 1 2 1 1 0 0 0 0 0 0 0 1 1 2 3 3 1 0 0 0
2 2 1 1 1 1 3 3 2 1 0 0 0 0 0 0 0 0 0 0 0 0 0 0 0 0 0 0 0 0 0 0 0 0 0 0 1 3 3 2 1 1 0
1 1 0 0 0 1 2 2 1 0 0 0 0 0 0 0 0 0 0 0 0 0 0 0 0 0 0 0 0 0 0 0 0 0 0 0 0 2 3 2 1 1 1
1 0 0 0 0 0 1 1 0 0 0 0 0 0 0 0 0 0 0 0 0 0 0 0 0 0 0 0 0 0 0 0 0 0 0 0 0 1 2 1 1 1 1
2 1 1 0 0 0 0 0 0 0 0 0 0 0 0 0 0 0 0 0 0 0 0 0 0 0 0 0 0 0 0 0 0 0 0 0 0 0 1 1 1 0 1
3 3 2 1 0 0 0 0 0 0 0 0 0 0 0 0 0 0 0 0 0 0 0 0 0 0 0 0 0 0 0 0 0 0 0 0 0 0 1 1 1 0 0
4 3 3 2 1 0 0 0 0 0 0 0 0 0 0 0 0 0 0 0 0 0 0 0 0 0 0 0 0 0 0 0 0 0 0 0 0 0 1 1 1 0 0
4 4 3 2 1 0 0 0 0 0 0 0 0 0 0 0 0 0 0 0 0 0 0 0 0 0 0 0 0 0 0 0 0 0 0 0 0 0 1 1 0 0 0
4 4 3 2 1 0 0 0 0 0 0 0 0 0 0 0 0 0 0 0 0 0 0 0 0 0 0 0 0 0 0 0 0 0 0 0 0 0 0 0 0 0 0
4 4 3 1 0 0 0 0 0 0 0 0 0 0 0 0 0 0 0 0 0 0 0 0 0 0 0 0 0 0 0 0 0 0 0 0 0 0 0 0 0 0 0
3 3 2 1 0 0 0 0 0 0 0 0 0 0 0 0 0 0 0 0 0 0 0 0 0 0 0 0 0 0 0 0 0 0 0 0 0 0 0 0 0 0 0
3 3 1 0 0 0 0 0 0 0 0 0 0 0 0 0 0 0 0 0 0 0 0 0 0 0 0 0 0 0 0 0 0 0 0 0 0 0 0 0 0 0 0
3 2 1 0 0 0 0 0 0 0 0 0 0 0 0 0 0 0 0 0 0 0 0 0 0 0 0 0 0 0 0 0 0 0 0 0 0 0 0 0 0 0 0
3 2 1 0 0 0 0 0 0 0 0 0 0 0 0 0 0 0 0 0 0 0 0 0 0 0 0 0 0 0 0 0 0 0 0 0 0 0 0 0 0 0 0

GEFSSE_con_prob3kmehi_084.txt.gz
EHI
0 1 2 1 1 2 8 23 39 43 37 28 17 7 1 0 0 0 0 0 0 0 0 0 0 0 0 0 0 0 0 0 0 0 0 0 0 0 0 0 0 0 0
0 1 2 2 2 4 10 21 33 35 28 21 13 4 0 0 0 0 0 0 0 0 0 0 0 0 0 0 0 0 0 0 0 0 0 0 0 0 0 0 0 0 0
0 0 1 3 4 6 10 17 24 23 17 12 7 2 0 0 0 0 0 0 0 0 0 0 0 0 0 0 0 0 0 0 0 0 0 0 0 0 0 0 0 0 0
0 0 1 4 5 5 8 13 15 13 11 7 3 0 0 0 0 0 0 0 0 0 0 0 0 0 0 0 0 0 0 0 0 0 0 0 1 1 0 0 0 0 0
0 0 2 4 5 6 9 12 12 9 8 4 1 0 0 0 0 0 0 0 0 0 0 0 0 0 0 0 0 0 0 0 0 0 0 0 1 1 1 0 0 0 0
0 0 2 5 7 9 12 14 12 8 5 3 1 0 0 0 0 0 0 0 0 0 0 0 0 0 0 0 0 0 0 0 0 0 0 0 1 1 1 0 0 0 0
0 0 2 5 8 10 13 13 12 8 5 3 1 0 0 0 0 0 0 0 0 0 0 0 0 1 1 1 0 0 1 1 1 0 0 0 0 1 1 0 0 0 0
0 0 0 2 5 8 11 11 10 7 6 4 3 2 1 0 0 1 0 0 0 0 0 0 0 1 1 1 0 0 1 1 1 0 0 0 0 0 0 0 0 0 0
0 0 0 0 1 4 7 8 8 8 8 6 4 2 1 0 0 0 0 0 0 0 0 1 0 0 0 0 0 0 0 0 0 0 0 0 0 0 0 0 0 0 0
0 0 0 0 0 1 2 4 6 8 7 4 2 1 0 0 0 0 0 0 0 0 0 1 0 0 0 0 0 0 0 0 0 0 1 1 0 0 0 0 0 0 0
1 0 1 1 0 0 0 1 3 4 3 1 0 0 0 0 0 0 0 0 0 0 1 1 0 0 0 1 1 0 0 0 1 2 3 3 1 0 0 0 0 0 0
1 1 1 1 0 0 0 0 0 1 0 0 0 0 0 0 0 0 1 1 0 0 1 1 0 0 1 2 2 1 0 0 1 3 5 4 1 0 0 0 0 0 0
2 2 2 2 1 0 0 0 0 0 0 0 0 0 0 0 0 2 2 2 0 0 0 1 1 1 2 2 2 2 1 0 1 4 7 4 1 0 0 0 0 0 0
3 3 3 3 3 2 2 1 0 1 1 0 0 0 1 1 1 3 4 2 0 0 0 1 2 2 1 1 1 2 1 0 1 4 6 4 1 0 0 0 0 0 0
6 5 6 7 7 7 6 4 2 2 1 0 0 1 2 2 1 2 2 2 0 0 0 1 1 1 0 0 0 1 1 1 0 2 4 3 1 0 0 1 1 1 1
8 7 9 11 11 9 7 5 3 2 1 1 1 2 2 2 1 1 1 1 0 0 0 0 0 1 1 0 0 0 1 2 1 1 2 2 1 0 0 1 2 3 2
11 10 10 11 11 8 5 4 3 1 0 1 1 2 1 1 1 0 0 0 0 0 0 0 0 1 1 0 0 0 2 3 2 1 1 1 1 1 0 1 2 3 2
14 12 9 9 9 7 5 3 2 1 0 0 1 1 0 0 0 0 0 0 0 0 0 0 0 1 1 0 0 0 1 2 2 2 2 2 2 2 1 1 2 2 2
16 14 13 13 14 11 7 4 2 1 0 0 0 0 0 0 0 0 0 0 0 0 0 0 0 0 0 0 0 0 0 1 1 1 1 1 2 2 3 2 1 1 1
18 19 20 21 20 15 10 6 2 0 0 0 0 0 0 0 0 0 0 0 0 0 0 0 0 0 0 0 0 0 0 0 0 0 0 0 0 1 2 3 2 2 2
20 23 25 24 19 13 11 8 3 0 0 0 0 0 0 0 0 0 0 0 0 0 0 0 0 0 0 0 0 0 0 0 0 0 0 0 0 0 1 2 3 3 3
19 22 24 21 14 10 10 7 3 0 0 0 0 0 0 0 0 0 0 0 0 0 0 0 0 0 0 0 0 0 0 0 0 0 0 0 0 0 0 1 2 3 3
15 18 19 18 14 11 10 6 2 0 0 0 0 0 0 0 0 0 0 0 0 0 0 0 0 0 0 0 0 0 0 0 0 0 0 0 0 0 0 0 1 1 2
13 14 14 14 14 13 11 6 2 0 0 0 0 0 0 0 0 0 0 0 0 0 0 0 0 0 0 0 0 0 0 0 0 0 0 0 0 0 0 0 0 0 1
12 12 12 13 13 12 9 6 3 2 0 0 0 0 0 0 0 0 0 0 0 0 0 0 0 0 0 0 0 0 0 0 0 0 0 0 0 0 0 0 0 0 0
11 11 11 13 12 10 8 6 4 3 1 0 0 0 0 0 0 0 0 0 0 0 0 0 0 0 0 0 0 0 0 0 0 0 0 0 0 0 0 0 0 0 0

GEFSSE_con_prob3kmehi_090.txt.gz
EHI
38 35 35 29 14 4 1 0 0 0 0 0 0 0 0 0 0 0 0 0 0 0 0 0 0 0 0 0 0 0 0 0 0 0 0 0 0 0 0 0 0 0 0
44 41 41 33 17 6 2 0 0 0 0 0 0 0 0 0 0 0 0 0 0 0 0 0 0 0 0 0 0 0 0 0 0 0 0 0 0 0 0 0 0 0 0
40 38 38 34 20 9 3 0 0 0 0 0 0 0 0 0 0 0 0 0 0 0 0 0 0 0 0 0 0 0 0 0 0 0 0 0 0 0 0 0 0 0 0
26 25 29 31 21 8 2 1 0 0 0 0 0 0 0 0 0 0 0 0 0 0 0 0 0 0 0 0 0 0 0 0 1 1 0 0 0 0 0 0 0 0 0
19 20 25 29 20 8 2 1 1 0 0 0 0 0 0 0 0 0 0 0 0 0 0 0 0 0 0 0 0 0 0 3 5 3 0 0 0 0 0 0 0 0 0
19 19 22 25 19 9 4 2 1 0 0 0 0 0 0 0 0 0 0 0 0 0 0 0 0 0 0 0 0 0 2 7 10 6 3 2 1 0 0 0 0 0 0
19 16 17 21 18 10 4 2 1 0 0 0 0 0 0 0 0 0 0 0 0 0 0 0 0 0 0 0 0 0 2 8 8 7 7 5 2 2 1 0 0 0 0
23 17 13 14 12 7 3 1 0 0 0 0 0 0 0 0 0 0 0 0 0 0 0 0 0 0 0 0 0 0 2 5 4 6 8 5 2 3 1 0 0 0 0
28 17 8 5 4 3 1 0 0 0 0 0 0 0 0 0 0 0 0 0 0 0 0 0 0 0 0 0 0 0 1 2 2 5 6 4 2 2 1 0 0 0 0
31 18 4 0 0 1 1 0 0 0 0 0 0 0 0 0 0 0 0 0 0 0 0 0 0 0 0 0 0 0 0 1 2 5 7 5 3 2 0 0 0 0 0
34 21 9 4 1 1 1 1 0 0 0 0 0 0 0 0 0 0 0 0 0 0 0 0 0 0 0 0 0 0 0 0 2 6 8 7 5 3 1 1 1 0 0
34 27 21 14 6 5 5 3 0 0 0 0 0 0 0 0 0 1 1 0 0 0 0 0 0 0 0 0 0 0 0 1 2 5 7 9 10 7 4 3 2 1 0
35 33 33 29 22 20 17 9 3 1 1 1 1 2 2 1 1 2 2 1 0 0 0 0 0 0 0 1 2 1 1 2 3 4 7 11 13 11 7 4 3 1 1
42 42 44 47 50 47 35 19 9 7 5 5 5 5 3 3 4 5 5 4 2 1 1 1 0 0 1 2 3 2 3 5 5 5 7 10 11 10 8 5 3 1 1
52 54 59 65 70 65 50 31 20 16 12 10 8 6 4 4 6 7 8 7 4 2 2 2 1 1 1 2 2 2 3 5 5 5 6 7 7 7 6 5 3 2 2
62 66 70 72 71 63 50 37 25 17 13 11 9 5 3 4 4 5 6 6 5 3 2 2 2 1 0 1 1 1 2 4 3 4 4 4 3 3 4 3 3 2 1
70 70 66 63 60 52 41 32 20 12 9 9 6 2 1 1 1 2 3 2 2 2 1 1 1 1 1 0 0 1 2 2 2 3 4 3 1 1 1 1 1 1 1
72 68 58 50 49 45 36 26 17 12 10 6 3 1 0 0 0 0 1 1 0 0 0 0 0 1 2 1 0 1 2 2 1 2 3 3 2 1 1 1 1 1 1
69 64 56 50 47 42 34 26 22 19 12 6 4 3 1 0 0 0 0 0 0 0 0 0 0 1 1 1 0 1 1 1 0 1 2 3 3 2 2 2 2 2 3
64 62 60 56 50 43 35 30 26 19 12 8 7 6 2 0 0 0 0 0 0 0 0 0 0 0 0 0 0 0 0 0 0 0 1 1 2 1 1 2 2 2 2
61 62 61 57 51 43 36 29 23 16 11 10 10 8 4 1 0 0 0 0 0 0 0 0 0 0 0 0 0 0 0 0 0 0 0 0 0 0 0 2 2 1 1
59 59 58 55 49 41 33 26 20 13 9 9 11 11 5 1 0 0 0 0 0 0 0 0 0 0 0 0 0 0 0 0 0 0 0 0 0 0 0 1 1 1 0
52 52 54 55 50 40 30 24 19 12 6 7 12 10 5 1 0 0 0 0 0 0 0 0 0 0 0 0 0 0 0 0 0 0 0 0 0 0 0 0 0 0 0
45 46 52 57 55 45 32 23 17 11 5 6 12 13 7 2 0 0 0 0 0 0 0 0 0 0 0 0 0 0 0 0 0 0 0 0 0 0 0 0 0 0 0
41 45 52 58 59 49 33 22 16 10 7 8 15 18 11 3 1 0 0 0 0 0 0 0 0 0 0 0 0 0 0 0 0 0 0 0 0 0 0 0 0 0 0
41 45 52 58 59 49 32 20 16 11 9 11 17 18 11 3 1 0 0 0 0 0 0 0 0 0 0 0 0 0 0 0 0 0 0 0 0 0 0 0 0 0 0

GEFSSE_con_prob3kmehi_096.txt.gz
EHI
12 19 34 48 47 34 19 8 2 0 0 0 0 0 0 0 0 0 0 0 0 0 0 0 0 0 0 0 0 0 0 0 0 0 0 0 0 0 0 0 0 0 0
26 28 41 54 53 37 19 7 2 0 0 0 0 0 0 0 0 0 0 0 0 0 0 0 0 0 0 0 0 0 0 0 0 0 0 0 0 0 0 0 0 0 0
46 44 49 58 55 38 19 7 2 0 0 0 0 0 0 0 0 0 0 0 0 0 0 0 0 0 0 0 0 0 0 0 0 0 0 0 0 0 0 0 0 0 0
60 54 53 57 52 35 18 9 3 0 0 0 0 0 0 0 0 0 0 0 0 0 0 0 0 0 0 0 0 0 0 0 0 0 0 0 0 0 0 0 0 0 0
63 58 55 55 48 31 18 10 3 0 0 0 0 0 0 0 0 0 0 0 0 0 0 0 0 0 0 0 0 0 0 0 0 0 0 0 0 0 0 0 0 0 0
64 60 57 53 43 29 18 10 3 0 0 0 0 0 0 0 0 0 0 0 0 0 0 0 0 0 0 0 0 0 0 0 0 0 0 0 0 0 0 0 0 0 0
65 61 55 48 38 27 18 8 3 0 0 0 0 0 0 0 0 0 0 0 0 0 0 0 0 0 0 0 0 0 0 0 0 0 0 0 0 1 1 0 0 0 0
62 57 46 36 29 22 13 7 2 0 0 0 0 0 0 0 0 0 0 0 0 0 0 0 0 0 0 0 0 0 0 0 0 0 0 0 1 3 2 1 0 0 0
54 47 35 25 19 13 8 4 2 0 0 0 0 0 0 0 0 0 0 0 0 0 0 0 0 0 0 1 1 1 1 0 0 0 0 0 2 3 2 1 0 0 0
41 35 25 17 13 8 4 1 0 0 0 0 0 0 0 0 0 0 0 0 0 0 0 0 0 0 1 2 4 4 2 0 0 0 0 0 1 1 1 0 0 0 0
26 21 15 10 9 6 2 0 0 0 0 0 0 0 0 0 0 0 0 0 0 0 0 0 0 0 1 2 4 4 2 0 0 0 0 0 1 1 0 0 0 0 0
13 11 8 6 5 4 2 1 0 0 0 0 0 0 0 0 0 0 0 0 0 0 0 0 0 0 0 1 2 2 1 0 0 0 0 0 1 2 1 1 0 0 0
7 7 5 4 3 2 1 1 1 0 0 0 0 0 0 0 0 0 0 0 0 0 0 0 0 0 0 0 0 0 0 0 0 0 0 1 2 2 2 1 1 0 0
9 8 5 3 2 1 0 0 0 0 0 0 0 0 0 0 0 0 0 0 0 0 0 0 0 0 0 0 0 0 0 0 0 0 0 1 1 2 2 1 1 1 1
14 12 8 4 2 1 1 0 0 0 0 0 0 0 0 0 0 0 0 0 0 0 0 0 0 0 0 0 0 0 0 0 0 0 0 0 0 1 1 0 0 0 0
20 18 14 9 5 4 3 1 0 0 0 0 0 0 0 0 0 0 0 0 0 0 0 0 0 0 0 0 0 0 0 0 0 0 0 0 0 0 1 0 0 0 0
25 25 22 16 12 10 6 3 1 0 0 0 0 0 0 0 0 0 0 0 0 0 0 0 0 0 0 0 0 0 0 0 0 0 0 0 0 0 0 0 0 0 0
31 30 27 21 16 12 7 4 2 0 0 0 0 0 0 0 0 0 0 0 0 0 0 0 0 0 0 0 0 0 0 0 0 0 0 0 0 0 0 0 0 0 0
35 33 29 22 16 12 9 6 3 1 0 0 0 0 0 0 0 0 0 0 0 0 0 0 0 0 0 0 0 0 0 0 0 0 0 0 0 0 0 0 0 0 0
35 33 28 22 16 13 10 7 4 1 0 0 0 0 0 0 0 0 0 0 0 0 0 0 0 0 0 0 0 0 0 0 0 0 0 0 0 0 0 0 0 0 0
32 31 27 21 15 12 10 7 4 2 1 0 0 0 0 0 0 0 0 0 0 0 0 0 0 0 0 0 0 0 0 0 0 0 0 0 0 0 0 0 0 0 0
30 29 27 21 14 10 8 5 4 3 1 0 0 0 0 0 0 0 0 0 0 0 0 0 0 0 0 0 0 0 0 0 0 0 0 0 0 0 0 0 0 0 0
29 29 27 20 12 8 6 5 4 2 1 0 0 0 0 0 0 0 0 0 0 0 0 0 0 0 0 0 0 0 0 0 0 0 0 0 0 0 0 0 0 0 0
29 29 26 19 11 7 6 5 4 2 1 0 0 0 0 0 0 0 0 0 0 0 0 0 0 0 0 0 0 0 0 0 0 0 0 0 0 0 0 0 0 0 0
27 27 24 18 11 7 6 4 3 1 0 0 0 0 0 0 0 0 0 0 0 0 0 0 0 0 0 0 0 0 0 0 0 0 0 0 0 0 0 0 0 0 0
25 24 23 18 11 7 4 2 1 1 0 0 0 0 0 0 0 0 0 0 0 0 0 0 0 0 0 0 0 0 0 0 0 0 0 0 0 0 0 0 0 0 0

GEFSSE_con_prob3kmehi_102.txt.gz
EHI
10 13 19 24 26 31 38 44 44 42 40 36 29 20 10 2 0 0 0 0 0 0 0 0 0 0 0 0 0 0 0 0 0 0 0 0 0 0 0 0 0 0 0
20 19 24 29 31 33 39 43 45 40 33 26 19 11 5 1 0 0 0 0 0 0 0 0 0 0 0 0 0 0 0 0 0 0 0 0 0 0 0 0 0 0 0
37 31 30 35 38 40 40 43 43 35 25 16 8 3 1 0 0 0 0 0 0 0 0 0 0 0 0 0 0 0 0 0 0 0 0 0 0 0 0 0 0 0 0
47 39 34 39 44 43 41 40 37 29 18 9 3 0 0 0 0 0 0 0 0 0 0 0 0 0 0 0 0 0 0 0 0 0 0 0 0 0 0 0 0 0 0
49 40 37 43 45 41 38 34 28 20 10 3 1 0 0 0 0 0 0 0 0 0 0 0 0 0 0 0 0 0 0 0 0 0 0 0 0 0 0 0 0 0 0
48 42 41 45 43 38 34 28 20 12 4 1 0 0 0 0 0 0 0 0 0 0 0 0 0 0 0 0 0 0 0 0 0 0 0 0 0 0 0 0 0 0 0
52 48 47 46 41 35 30 23 15 8 2 0 0 0 0 0 0 0 0 0 0 0 0 0 0 0 0 0 0 0 0 0 0 0 0 0 0 0 0 0 0 0 0
59 56 51 44 37 31 24 17 11 6 1 0 0 0 0 0 0 0 0 0 0 0 0 0 0 0 0 0 0 0 0 0 0 0 0 0 0 0 0 0 0 0 0
61 59 51 41 33 25 18 12 7 3 1 0 0 0 0 0 0 0 0 0 0 0 0 0 0 0 0 0 0 0 0 1 0 0 0 0 0 0 0 1 0 0 0
57 53 46 40 32 23 15 10 5 1 0 0 0 0 0 0 0 0 0 0 0 0 0 0 0 0 0 0 0 0 1 2 1 0 0 0 0 0 0 0 0 0 0
49 43 37 35 31 24 15 11 8 4 1 0 0 0 0 0 0 0 0 0 0 0 0 0 0 0 0 0 0 0 0 1 0 0 0 0 0 0 0 0 0 0 0
40 34 27 27 30 25 16 12 11 8 2 0 0 0 0 0 0 0 0 0 0 0 0 0 0 0 0 0 0 0 0 0 0 0 0 0 0 0 0 0 0 0 0
32 26 19 21 26 22 14 10 10 8 3 0 0 0 0 0 0 0 0 0 0 0 0 0 0 0 0 0 0 0 0 0 0 0 0 0 0 0 0 0 0 0 0
22 18 14 16 20 16 9 7 6 5 2 0 0 0 0 0 0 0 0 0 0 0 0 0 0 0 0 0 0 0 0 0 0 0 0 0 0 0 0 0 0 0 0
13 10 9 12 14 12 7 4 4 3 1 0 0 0 0 0 0 0 0 0 0 0 0 0 0 0 0 0 0 0 0 0 0 0 0 0 0 0 0 0 0 0 0
7 6 6 8 9 9 6 3 2 2 1 0 0 0 0 0 0 0 0 0 0 0 0 0 0 0 0 0 0 0 0 0 0 0 0 0 0 0 0 0 0 0 0
4 4 5 5 5 5 3 1 1 1 0 0 0 0 0 0 0 0 0 0 0 0 0 0 0 0 0 0 0 0 0 0 0 0 0 0 0 0 0 0 0 0 0
3 3 3 4 4 3 1 0 0 0 0 0 0 0 0 0 0 0 0 0 0 0 0 0 0 0 0 0 0 0 0 0 0 0 0 0 0 0 0 0 0 0 0
2 1 1 2 3 2 1 0 0 0 0 0 0 0 0 0 0 0 0 0 0 0 0 0 0 0 0 0 0 0 0 0 0 0 0 0 0 0 0 0 0 0 0
3 2 1 2 2 1 1 0 0 0 0 0 0 0 0 0 0 0 0 0 0 0 0 0 0 0 0 0 0 0 0 0 0 0 0 0 0 0 0 0 0 0 0
7 4 3 3 2 2 1 1 1 1 0 0 0 0 0 0 0 0 0 0 0 0 0 0 0 0 0 0 0 0 0 0 0 0 0 0 0 0 0 0 0 0 0
10 7 5 5 5 4 2 1 1 1 0 0 0 0 0 0 0 0 0 0 0 0 0 0 0 0 0 0 0 0 0 0 0 0 0 0 0 0 0 0 0 0 0
12 10 8 7 6 5 3 1 1 0 0 0 0 0 0 0 0 0 0 0 0 0 0 0 0 0 0 0 0 0 0 0 0 0 0 0 0 0 0 0 0 0 0
12 12 10 8 7 6 4 2 1 0 0 0 0 0 0 0 0 0 0 0 0 0 0 0 0 0 0 0 0 0 0 0 0 0 0 0 0 0 0 0 0 0 0
11 11 10 8 6 5 4 2 1 0 0 0 0 0 0 0 0 0 0 0 0 0 0 0 0 0 0 0 0 0 0 0 0 0 0 0 0 0 0 0 0 0 0
10 9 9 7 5 4 4 2 1 0 0 0 0 0 0 0 0 0 0 0 0 0 0 0 0 0 0 0 0 0 0 0 0 0 0 0 0 0 0 0 0 0 0

GEFSSE_con_prob3kmehi_108.txt.gz
EHI
6 8 7 3 2 6 15 25 33 38 38 30 17 7 2 0 0 0 0 0 0 0 0 0 0 0 0 0 0 0 0 0 0 0 0 0 0 0 0 0 0 0 0
14 13 9 4 4 8 15 22 28 32 32 25 15 6 1 0 0 0 0 0 0 0 0 0 0 0 0 0 0 0 0 0 0 0 0 0 0 0 0 0 0 0 0
21 19 11 5 5 9 14 19 23 25 23 18 10 3 0 0 0 0 0 0 0 0 0 0 0 0 0 0 0 0 0 0 0 0 0 0 0 0 0 0 0 0 0
19 21 16 9 6 8 12 16 18 18 16 10 4 1 0 0 0 0 0 0 0 0 0 0 0 0 0 0 0 0 0 0 0 0 0 0 0 0 0 0 0 0 0
19 24 25 16 7 7 11 14 15 13 10 5 2 1 0 0 0 0 0 0 0 0 0 0 0 0 0 0 0 0 0 0 0 0 0 0 0 0 0 0 0 0 0
21 27 30 21 11 9 11 12 11 9 6 3 2 1 0 0 0 0 0 0 0 0 0 0 0 0 0 0 0 0 0 0 0 0 0 0 0 0 0 0 0 0 0
20 26 31 25 15 10 9 8 7 5 4 3 2 1 0 1 1 1 0 0 0 0 0 0 0 0 0 0 0 0 0 0 0 0 0 0 0 0 0 0 0 0 0
17 24 29 24 15 11 8 6 5 4 4 5 4 1 0 1 1 1 0 0 0 0 0 0 0 0 0 0 0 0 0 0 0 0 0 0 0 0 0 0 0 0 0
16 20 22 16 11 9 7 5 4 3 4 5 4 2 1 0 0 0 0 0 0 0 0 0 0 0 0 0 0 0 0 0 0 0 0 0 0 0 0 0 0 0 0
20 20 17 12 8 6 4 3 3 4 5 4 3 2 1 0 0 0 0 0 0 0 0 0 0 0 0 0 0 0 1 1 0 0 0 0 0 0 0 0 0 0 0
29 26 20 15 11 6 3 1 1 3 4 3 2 1 0 0 0 0 0 0 0 0 0 0 0 0 0 0 0 0 1 1 0 0 0 0 0 0 0 0 0 0 0
39 34 27 20 15 10 5 3 2 3 3 2 1 0 0 0 0 0 0 0 0 0 0 0 0 0 0 0 0 0 1 1 0 0 0 0 0 0 0 0 0 0 0
45 39 31 24 19 15 10 6 5 5 3 1 0 0 0 0 0 0 0 0 0 0 0 0 0 0 0 0 0 0 0 0 0 0 0 0 0 0 0 0 0 0 0
44 38 31 26 24 20 14 8 6 5 3 1 1 0 0 0 0 0 0 0 0 0 0 0 0 0 0 0 0 0 0 0 0 1 0 0 0 0 0 0 0 0 0
40 34 27 25 25 24 19 11 6 4 3 1 1 0 0 0 0 0 0 0 0 0 0 0 0 0 0 0 0 0 0 0 0 0 0 0 0 0 0 0 0 0 0
35 31 25 21 22 22 18 11 6 4 4 2 0 0 0 0 1 0 0 0 0 0 0 0 0 0 0 0 0 0 0 0 0 0 0 0 0 0 0 0 0 0 0
31 29 24 19 17 16 13 9 5 5 4 2 0 0 0 0 0 0 0 0 0 0 0 0 0 0 0 0 0 0 0 0 0 0 0 0 0 0 0 0 0 0 0
27 27 22 15 12 12 11 10 7 5 4 2 1 1 0 0 0 0 0 0 0 0 0 0 0 0 0 0 0 0 0 0 0 0 0 0 0 0 0 0 1 0 0
26 25 19 12 9 11 14 14 11 7 3 1 1 1 0 0 0 0 0 0 0 0 0 0 0 0 0 0 0 0 0 0 0 0 0 0 0 0 0 0 0 0 0
23 20 16 13 12 15 17 17 13 6 1 0 1 1 0 0 0 0 0 0 0 0 0 0 0 0 0 0 0 0 0 0 0 0 0 0 0 0 0 0 0 0 0
18 15 13 13 15 18 19 18 14 7 2 0 0 1 1 0 0 0 0 0 0 0 0 0 0 0 0 0 0 0 0 0 0 0 0 0 0 0 0 0 0 0 0
15 13 12 12 13 14 16 19 16 10 4 1 1 2 2 1 0 0 0 0 0 0 0 0 0 0 0 0 0 0 0 0 0 0 0 0 0 0 0 0 0 0 0
12 13 13 13 10 9 12 16 14 9 4 1 1 2 2 1 0 0 0 0 0 0 0 0 0 0 0 0 0 0 0 0 0 0 0 0 0 0 0 0 0 0 0
9 10 12 14 13 10 10 11 9 5 2 1 1 1 2 1 0 0 1 1 0 0 0 0 0 0 0 0 0 0 0 0 0 0 0 0 0 0 0 0 0 0 0
7 8 9 13 16 14 11 9 6 3 1 1 1 1 1 1 0 0 1 2 1 0 0 0 0 0 0 0 0 0 0 0 0 0 0 0 0 0 0 0 0 0 0
6 5 7 12 16 16 13 8 5 3 2 2 2 0 0 0 0 1 2 2 1 0 0 0 0 0 0 0 0 0 0 0 0 0 0 0 0 0 0 0 0 0 0

GEFSSE_con_prob3kmehi_114.txt.gz
EHI
39 39 40 31 15 5 1 1 0 0 0 0 0 0 0 0 0 0 0 0 0 0 0 0 0 0 0 0 0 0 0 0 1 3 3 2 1 0 0 0 0 0 0
49 48 47 37 19 8 3 1 0 0 0 0 0 0 0 0 0 0 0 0 0 0 0 0 0 0 0 0 0 0 0 0 0 1 1 1 0 0 0 0 0 0 0
55 51 49 41 25 12 5 2 0 0 0 0 0 0 0 0 0 0 0 0 0 0 0 0 0 0 0 0 0 0 0 0 0 0 0 0 0 0 0 0 0 0 0
51 46 47 44 29 14 5 2 0 0 0 0 0 0 0 0 0 0 0 0 0 0 0 0 0 0 0 0 0 0 0 0 0 0 0 0 0 0 0 0 0 0 0
48 49 51 47 30 12 3 1 0 0 0 0 0 0 0 0 0 0 0 0 0 0 0 0 0 0 0 0 0 0 0 0 0 0 0 0 0 0 0 0 0 0 0
53 54 53 47 29 10 1 0 0 0 0 0 0 0 0 0 0 0 0 0 0 0 0 0 0 0 0 0 0 0 0 0 0 0 0 0 0 0 0 0 0 0 0
61 56 51 44 27 8 1 0 0 0 0 0 0 0 0 0 0 0 0 0 0 0 0 0 0 0 0 0 0 0 0 0 1 1 0 0 0 0 0 0 0 0 0
69 61 49 37 21 7 1 0 0 0 0 0 0 0 0 0 0 0 0 0 0 0 0 0 0 0 0 0 0 0 1 2 2 1 1 1 0 0 0 0 0 0 0
71 62 46 28 15 7 2 0 0 0 0 0 0 0 0 0 0 0 0 0 0 0 0 0 0 0 0 0 0 0 3 6 4 2 2 1 0 0 0 0 0 0 0
66 56 38 21 12 6 1 0 0 0 0 0 0 0 0 0 0 0 0 0 0 0 0 0 0 0 0 0 0 0 3 5 4 3 4 3 1 0 0 0 0 0 0
62 50 31 19 13 6 2 1 1 0 0 0 0 0 0 0 0 0 0 0 0 0 0 0 0 0 0 0 0 0 1 2 2 4 7 6 3 1 0 0 0 0 0
61 48 33 24 16 10 8 6 3 2 2 1 0 0 0 0 0 0 0 1 0 0 0 0 0 0 0 0 1 0 0 0 1 4 8 8 5 1 0 0 0 0 0
62 54 43 33 24 19 17 12 7 5 4 2 1 1 0 0 0 0 1 1 0 0 0 0 0 0 0 0 0 0 0 1 2 5 7 8 5 2 0 0 0 1 1
63 59 51 42 37 35 27 16 11 9 6 3 3 2 1 1 2 2 2 1 0 0 0 0 0 1 1 1 0 0 1 2 4 5 5 7 6 4 2 1 1 2 2
62 59 55 53 53 50 40 27 19 15 10 8 7 4 3 4 4 5 4 3 2 2 2 0 0 1 2 1 1 0 1 2 4 4 3 5 8 7 3 2 3 3 3
60 59 60 60 60 57 48 38 29 20 15 14 11 7 6 8 9 9 6 4 4 4 3 1 1 1 1 1 1 1 1 2 4 4 3 3 6 6 4 3 3 3 3
59 59 60 59 58 54 46 37 29 21 18 20 18 12 9 12 15 13 9 6 5 5 3 2 1 1 0 1 1 2 2 3 4 3 3 3 4 4 4 4 3 3 3
59 58 56 54 52 48 41 34 28 23 23 26 26 20 15 15 15 13 11 8 6 4 3 2 2 1 0 1 2 2 3 4 4 2 1 3 3 4 4 4 4 4 2
61 58 53 49 47 44 41 40 38 33 32 32 30 26 20 14 12 9 9 8 5 2 2 3 3 1 0 2 2 2 2 2 3 2 1 1 2 3 4 4 5 4 2
61 58 52 47 43 41 42 45 44 38 34 32 30 28 22 13 8 7 6 6 3 1 2 3 3 1 0 1 1 1 0 0 2 3 2 1 1 2 4 4 4 3 1
60 58 51 44 41 40 40 42 40 34 30 29 28 28 21 12 7 6 6 5 3 2 3 3 2 1 0 0 0 0 0 0 2 3 2 1 2 2 4 5 4 2 1
60 56 47 41 39 36 35 36 34 29 27 27 28 25 18 12 8 7 8 7 5 4 3 1 1 0 0 0 0 0 0 0 1 1 1 1 1 1 3 4 4 3 2
59 53 45 41 38 32 27 27 28 26 24 26 27 23 16 11 8 8 8 7 6 6 4 2 1 0 0 0 0 0 0 0 0 0 0 0 1 1 1 2 3 3 2
53 47 43 43 39 29 22 20 21 21 20 23 25 22 17 11 7 6 6 5 5 6 5 2 1 1 0 0 0 0 0 0 0 0 0 0 0 0 0 1 2 2 1
43 41 40 42 39 31 24 20 19 17 17 19 21 21 17 11 8 6 5 5 5 4 3 1 1 1 1 0 0 0 0 1 0 0 0 0 0 0 0 1 1 1 0
36 35 38 41 39 32 27 23 19 17 17 18 19 19 15 10 8 6 6 6 5 3 1 1 2 2 1 0 0 0 0 1 0 0 0 0 0 0 0 1 1 0 0

GEFSSE_con_prob3kmehi_120.txt.gz
EHI
13 18 28 35 35 31 27 18 9 4 3 3 4 5 5 5 6 6 6 6 4 3 2 1 1 2 2 2 3 3 3 3 3 2 1 0 1 2 3 3 3 3 3
26 26 33 41 42 37 30 21 10 4 3 3 3 4 4 4 4 5 6 5 4 3 2 1 0 1 1 1 2 3 3 3 3 1 0 0 0 1 2 2 3 3 3
45 40 41 50 51 44 35 24 13 5 3 3 3 3 3 3 3 4 4 4 3 3 3 1 0 0 0 0 1 1 2 3 2 1 0 0 0 1 2 1 2 3 3
58 50 49 55 56 48 37 26 15 7 3 3 3 3 3 3 3 3 3 3 3 3 3 2 1 0 0 0 0 0 1 1 1 1 0 0 0 1 2 1 1 3 3
61 56 55 60 60 51 39 26 15 7 3 3 3 3 3 3 3 3 3 3 2 2 3 3 1 0 0 0 0 0 0 0 0 0 0 0 0 2 2 1 1 3 3
60 58 59 64 64 54 40 25 13 7 4 3 3 3 3 3 3 3 3 1 1 1 2 2 1 0 0 0 0 0 0 0 0 0 0 0 0 2 3 3 3 3 3
60 58 60 65 64 53 40 25 13 7 4 3 3 3 3 3 3 3 2 1 0 0 1 1 1 0 0 0 0 0 0 0 0 0 0 0 1 2 3 3 3 3 3
63 59 57 58 56 48 37 25 14 7 4 3 3 3 3 3 3 3 2 1 0 0 0 0 0 0 0 0 0 0 0 0 0 0 0 1 2 3 3 3 3 3 3
62 58 50 45 42 39 33 23 15 8 5 3 3 3 3 3 3 3 3 1 0 0 0 0 0 0 0 0 0 0 0 0 0 0 0 1 2 2 2 2 3 3 3
53 50 43 35 30 27 24 18 13 8 5 4 4 3 3 3 2 2 2 1 0 0 0 0 0 0 0 0 0 0 0 0 0 0 0 1 2 1 0 1 3 3 3
47 43 38 32 24 18 14 11 9 6 4 4 4 3 2 1 1 1 1 1 0 0 0 0 0 0 0 0 0 0 0 0 0 0 0 1 1 1 0 1 2 3 3
51 44 36 28 19 12 8 6 5 4 3 2 1 1 1 0 0 0 0 0 0 0 0 0 0 0 0 0 0 0 0 0 0 0 0 0 0 0 0 0 1 2 2
56 47 34 23 14 8 6 5 4 4 2 1 0 0 0 0 0 0 0 0 0 0 0 0 0 0 0 0 0 0 0 0 0 0 0 0 0 0 0 0 0 1 1
54 46 32 18 10 6 6 5 4 4 3 1 0 0 0 0 0 0 0 0 0 0 0 0 0 0 0 0 0 0 0 0 0 0 0 0 0 0 0 0 0 0 1
49 42 29 17 9 6 5 4 3 3 2 1 0 0 0 0 0 0 0 0 0 0 0 0 0 0 0 0 0 0 0 0 0 0 0 0 0 0 0 0 0 0 0
44 37 26 16 11 8 5 3 2 1 1 0 0 0 0 0 0 0 0 0 0 0 0 0 0 0 0 0 0 0 0 0 0 0 0 0 0 1 1 1 0 0 0
39 32 24 18 14 10 5 2 1 0 0 0 0 0 0 0 0 0 0 0 0 0 0 0 0 0 0 0 0 0 0 0 0 0 0 0 0 1 1 1 0 0 0
36 30 23 20 18 13 7 4 2 2 1 1 0 0 0 0 0 0 0 0 0 0 0 0 0 0 0 0 0 0 0 0 0 0 0 0 0 0 0 0 0 0 0
36 31 25 24 22 18 12 8 7 6 5 3 1 0 0 0 0 0 0 0 0 0 0 0 0 0 0 0 0 0 0 0 0 0 0 0 0 0 0 0 0 0 0
38 33 29 26 24 21 17 14 12 11 9 5 1 0 0 0 0 0 0 0 0 0 0 0 0 0 0 0 0 0 0 0 0 0 0 0 0 0 0 0 0 0 0
41 37 32 26 21 19 17 14 13 13 10 5 1 0 0 0 1 0 0 0 0 0 0 0 0 0 0 0 0 0 0 0 0 0 0 0 0 0 0 0 0 0 0
43 38 30 24 19 16 13 11 10 10 8 4 1 0 0 0 0 0 0 0 0 0 0 0 0 0 0 0 0 0 0 0 0 0 0 0 0 0 0 0 0 0 0
40 35 28 23 19 15 12 9 8 7 5 2 0 0 0 1 1 0 0 0 0 0 0 0 0 0 0 0 0 0 0 0 0 0 0 0 0 0 0 0 0 0 0
33 30 25 22 19 16 12 10 8 6 3 1 0 0 0 1 1 0 0 0 0 0 0 0 0 0 0 0 0 0 0 0 0 0 0 0 0 0 0 0 0 0 0
26 24 21 19 18 15 11 8 6 4 3 1 0 0 0 1 1 0 0 0 0 0 0 0 0 0 0 0 0 0 0 0 0 0 0 0 0 0 0 0 0 0 0
22 21 19 17 16 14 9 6 5 4 3 2 1 0 0 0 0 0 0 0 0 0 0 0 0 0 0 0 0 0 0 0 0 0 0 0 0 0 0 0 0 0 0

GEFSSE_con_prob3kmehi_126.txt.gz
EHI
3 10 18 24 30 36 40 43 49 55 56 52 42 30 18 9 4 1 0 0 0 0 0 0 0 0 0 0 1 1 1 0 0 0 0 0 0 0 0 0 0 0 0
11 16 23 31 37 42 42 41 42 44 45 43 34 24 16 9 3 1 0 0 0 0 0 0 0 0 0 0 0 0 0 0 0 0 0 0 0 0 0 0 0 0 0
28 28 32 41 48 49 46 41 36 33 33 31 24 17 11 5 1 0 0 0 0 0 0 0 0 0 0 0 0 0 0 0 0 0 0 0 0 0 0 0 0 0 0
42 39 42 50 55 53 48 41 34 28 25 21 15 10 6 2 0 0 0 0 0 0 0 0 0 0 0 0 0 0 0 0 0 0 0 0 0 0 0 0 0 0 0
48 46 49 57 58 54 49 40 32 25 17 11 7 5 2 0 0 0 0 0 0 0 0 0 0 0 0 0 0 0 0 0 0 0 0 0 0 0 0 0 0 0 0
52 50 54 60 60 55 48 37 28 20 12 6 4 2 1 0 0 0 0 0 0 0 0 0 0 0 0 0 0 0 0 0 0 0 0 0 0 0 0 0 0 0 0
58 55 55 60 59 53 43 32 23 15 8 3 2 1 0 0 0 0 0 0 0 0 0 0 0 0 0 0 0 0 0 0 0 0 0 0 0 0 0 0 0 0 0
65 59 55 56 55 48 38 28 19 12 6 2 1 0 0 0 0 0 0 0 0 0 0 0 0 0 0 0 0 0 0 0 0 0 0 0 0 0 0 0 0 0 0
67 62 55 51 49 42 34 25 18 11 4 1 0 0 0 0 0 0 0 0 0 0 0 0 0 0 0 0 0 0 0 0 0 0 0 0 0 0 0 0 0 0 0
64 61 55 50 45 37 27 21 16 10 4 1 0 0 0 0 0 0 0 0 0 0 0 0 0 0 0 0 0 0 0 0 0 0 0 0 0 0 0 0 0 0 0
61 57 53 50 44 34 24 18 13 8 5 2 1 0 1 1 0 0 0 0 0 0 0 0 0 0 0 0 0 0 0 0 0 0 0 0 0 0 0 0 0 0 0
61 55 48 45 40 34 29 22 13 7 4 1 1 1 1 0 0 0 0 0 0 0 0 0 0 0 0 0 0 0 0 0 0 0 0 0 0 0 0 0 0 0 0
59 54 45 39 35 34 33 26 15 7 2 0 1 1 0 0 0 0 0 0 0 0 0 0 0 0 0 0 0 0 0 0 0 0 0 0 0 0 0 0 0 0 0
53 50 43 35 31 30 29 23 13 5 1 0 1 0 0 0 0 0 0 0 0 0 0 0 0 0 0 0 0 0 0 0 0 0 0 0 0 0 0 0 0 0 0
45 43 38 31 26 21 17 13 7 2 0 0 0 0 0 0 0 0 0 0 0 0 0 0 0 0 0 0 0 0 0 0 0 0 0 0 0 0 0 0 0 0 0
38 35 31 26 20 13 8 6 3 1 0 0 0 0 0 0 0 0 0 0 0 0 0 0 0 0 0 0 0 0 0 0 0 0 0 0 0 0 0 0 0 0 0
32 30 26 21 15 8 5 3 2 0 0 0 0 0 0 0 0 0 0 0 0 0 0 0 0 0 0 0 0 0 0 0 0 0 0 0 0 0 0 0 0 0 0
26 24 20 16 11 6 3 1 1 0 0 0 0 0 0 0 0 0 0 0 0 0 0 0 0 0 0 0 0 0 0 0 0 0 0 0 0 0 0 0 0 0 0
20 18 15 11 7 3 1 0 0 0 0 0 0 0 0 0 0 0 0 0 0 0 0 0 0 0 0 0 0 0 0 0 0 0 0 0 0 0 0 0 0 0 0
16 14 11 8 4 2 0 0 0 0 0 0 0 0 0 0 0 0 0 0 0 0 0 0 0 0 0 0 0 0 0 0 0 0 0 0 0 0 0 0 0 0 0
14 12 10 8 5 3 1 0 0 0 0 0 0 0 0 0 0 0 0 0 0 0 0 0 0 0 0 0 0 0 0 0 0 0 0 0 0 0 0 0 0 0 0
13 11 9 6 5 5 3 1 1 1 1 1 1 1 0 0 0 0 0 0 0 0 0 0 0 0 0 0 0 0 0 0 0 0 0 0 0 0 0 0 0 0 0
10 10 8 5 5 6 5 3 2 1 1 2 2 2 1 0 0 0 0 0 0 0 0 0 0 0 0 0 0 0 0 0 0 0 0 0 0 0 0 0 0 0 0
6 6 7 5 5 5 6 5 4 3 2 2 2 2 1 0 0 0 0 0 0 0 0 0 0 0 0 0 0 0 0 0 0 0 0 0 0 0 0 0 0 0 0
4 4 5 5 4 5 4 4 4 3 3 3 1 1 1 0 0 0 0 0 0 0 0 0 0 0 0 0 0 0 0 0 0 0 0 0 0 0 0 0 0 0 0
5 4 4 4 4 4 4 3 3 3 3 2 1 0 0 0 0 0 0 0 0 0 0 0 0 0 0 0 0 0 0 0 0 0 0 0 0 0 0 0 0 0 0

GEFSSE_con_prob3kmehi_132.txt.gz
EHI
6 11 14 9 5 9 21 31 32 27 22 16 10 5 2 1 0 0 0 0 0 0 0 0 0 0 0 0 0 0 0 0 0 0 0 0 0 0 0 0 0 0 0
12 15 17 15 13 17 26 36 37 31 24 17 10 6 3 2 1 0 0 0 0 0 0 0 0 0 0 0 0 0 0 0 0 0 0 0 0 0 0 0 0 0 0
18 18 19 23 24 25 32 40 40 33 24 17 12 8 5 2 1 0 0 0 0 0 0 0 0 0 0 0 0 0 0 0 0 0 0 0 0 0 0 0 0 0 0
18 18 22 29 29 28 32 35 35 30 23 18 14 10 5 2 1 0 0 0 0 0 0 0 0 0 0 0 0 0 0 0 0 0 0 0 0 0 0 0 0 0 0
17 21 31 35 31 28 29 29 27 24 20 16 12 8 3 1 0 0 0 0 0 0 0 0 0 0 0 0 0 0 0 0 0 0 0 0 0 0 0 0 0 0 0
18 26 37 40 34 30 28 25 21 17 13 10 6 3 1 0 0 0 0 0 0 0 0 0 0 0 0 0 0 0 0 0 0 0 0 0 0 0 0 0 0 0 0
20 27 38 41 37 33 29 22 15 10 7 5 3 1 0 0 0 0 0 0 0 0 0 0 0 0 0 0 0 0 0 0 0 0 0 0 0 0 0 0 0 0 0
22 29 37 37 33 31 27 19 13 8 5 4 3 2 1 1 0 0 0 0 0 0 0 0 0 0 0 0 0 0 0 0 0 0 0 0 0 0 0 0 0 0 0
25 31 34 28 23 22 20 16 11 7 5 4 4 3 2 1 0 0 0 0 0 0 0 0 0 0 0 0 0 0 0 0 0 0 0 0 0 0 0 0 0 0 0
27 29 28 22 17 13 12 11 7 4 2 2 3 3 2 1 0 0 0 0 0 0 0 0 0 0 0 0 0 0 0 0 0 0 0 0 0 0 0 0 0 0 0
33 29 23 19 15 10 8 8 4 1 0 1 1 1 1 1 0 0 0 0 0 0 0 0 0 0 0 0 0 0 0 0 0 0 0 0 0 0 0 0 0 0 0
43 34 23 18 15 12 10 9 5 2 1 0 0 1 1 0 0 0 1 0 0 0 0 0 0 0 0 0 0 0 0 0 0 0 0 0 0 0 0 0 0 0 0
52 42 31 24 19 15 13 11 9 7 4 2 1 1 1 0 0 2 3 2 0 0 0 0 0 0 0 0 0 0 0 0 0 0 0 0 0 0 0 0 0 0 0
55 49 39 33 28 22 17 13 11 10 8 5 3 2 1 0 1 3 4 3 1 0 0 0 0 0 0 0 0 0 0 0 0 0 0 0 0 0 0 0 0 0 0
55 50 44 40 36 30 24 17 12 12 10 7 4 2 1 0 0 2 4 4 2 1 0 0 0 0 0 0 0 0 0 0 0 0 0 0 0 0 0 0 0 0 0
52 48 44 41 36 31 26 17 11 10 9 5 2 1 0 0 0 1 2 4 3 1 0 0 0 0 0 0 0 0 0 0 0 0 0 0 0 0 0 0 0 0 0
48 45 41 35 28 25 21 14 10 7 4 2 0 0 0 0 0 0 1 3 2 1 0 0 0 0 0 0 0 0 0 0 0 0 0 0 0 0 0 0 0 0 0
43 41 34 24 19 20 19 15 11 6 2 0 0 0 0 0 0 0 1 1 1 1 1 0 0 0 0 0 0 0 0 0 0 0 0 0 0 0 0 0 0 0 0
39 36 29 20 17 18 18 17 14 8 3 1 0 0 0 0 0 0 0 1 0 0 0 0 0 0 0 0 0 0 0 0 0 0 0 0 0 0 0 0 0 0 0
35 32 26 22 18 17 14 13 12 7 3 1 0 1 2 1 0 0 0 1 1 1 0 0 0 0 0 0 0 0 0 0 0 0 0 0 0 0 0 0 0 0 0
33 30 25 20 18 16 11 8 8 6 3 2 1 2 3 2 1 0 1 2 3 2 0 0 0 0 0 0 0 0 0 0 0 0 0 0 0 0 0 0 0 0 0
31 29 23 15 13 12 8 7 8 8 5 3 2 3 3 3 2 1 1 2 2 1 0 0 0 0 0 0 0 0 0 0 0 0 0 0 0 0 0 0 0 0 0
29 26 18 11 8 8 7 6 7 7 5 3 3 4 4 3 2 1 0 1 1 0 0 0 0 0 0 0 1 0 0 0 0 0 0 0 0 0 0 0 0 0 0
26 23 17 10 8 9 9 7 5 4 3 3 4 4 4 4 3 1 0 0 0 0 0 0 0 0 0 0 0 0 0 0 0 0 0 0 0 0 0 0 0 0 0
21 20 17 14 11 11 10 7 5 3 2 2 3 4 4 5 4 3 2 2 1 0 0 0 0 0 0 0 0 0 0 0 0 0 0 0 0 0 0 0 0 0 0
18 19 19 16 12 11 10 8 6 4 2 1 2 2 5 6 6 5 4 3 2 0 0 0 0 0 0 0 0 0 0 0 0 0 0 0 0 0 0 0 0 0 0

GEFSSE_con_prob3kmehi_138.txt.gz
EHI
22 24 27 21 7 1 0 0 0 0 0 0 0 0 0 0 0 0 0 0 0 0 0 0 0 0 0 0 0 0 0 0 0 0 0 0 0 0 0 0 0 0 0
26 26 29 24 11 3 0 0 0 0 0 0 0 0 0 0 0 0 0 0 0 0 0 0 0 0 0 0 0 0 0 0 0 0 0 0 0 0 0 0 0 0 0
26 23 26 26 17 9 4 1 0 0 0 0 0 0 0 0 0 0 0 0 0 0 0 0 0 0 0 0 0 0 0 0 0 0 0 0 0 0 0 0 0 0 0
21 18 23 28 23 16 10 4 1 0 0 0 0 0 0 0 0 0 0 0 0 0 0 0 0 0 0 0 0 0 0 0 0 0 0 0 0 0 0 0 0 0 0
21 22 29 32 27 21 14 8 3 1 0 0 0 0 0 0 0 0 0 0 0 0 0 0 0 0 0 0 0 0 0 0 0 0 0 0 0 0 0 0 0 0 0
29 28 32 34 29 22 16 10 4 1 0 0 0 0 0 0 0 0 0 0 0 0 0 0 0 0 0 0 0 0 0 0 1 0 0 0 0 0 0 0 0 0 0
37 32 30 32 27 19 14 9 3 1 0 0 0 0 0 0 0 1 1 1 0 0 0 0 0 0 0 0 0 0 0 1 1 0 0 0 0 0 0 0 0 0 0
44 36 31 29 22 14 9 5 1 0 0 0 0 0 0 0 0 1 1 1 0 0 0 0 0 0 0 0 0 0 1 2 1 0 0 0 0 0 0 0 0 0 0
49 41 32 25 18 11 5 1 0 0 0 0 0 0 0 0 0 0 0 0 0 0 0 0 0 0 0 0 0 0 1 2 1 0 0 0 0 0 0 1 0 0 0
53 45 31 23 17 9 4 1 0 0 0 0 0 0 0 0 0 0 0 0 0 0 0 0 0 0 0 0 0 0 1 1 1 0 0 0 0 0 0 0 0 0 0
61 50 35 26 18 8 4 3 1 0 0 0 0 0 0 0 0 0 0 0 0 0 0 0 0 0 0 0 0 0 1 2 1 1 1 1 1 0 0 0 0 0 0
67 56 43 34 22 10 7 6 3 0 0 0 0 0 0 1 1 1 0 0 0 0 0 0 0 0 0 0 0 1 2 3 3 1 2 4 3 1 0 0 1 1 1
67 58 50 43 31 21 17 11 4 2 2 1 1 0 1 3 2 2 1 1 1 1 1 0 0 0 0 0 0 1 1 2 2 1 2 4 5 3 1 1 1 2 2
67 61 55 51 46 41 31 17 8 5 5 4 4 3 3 4 3 2 2 2 2 2 1 0 0 0 0 0 0 0 1 1 1 1 2 4 5 4 3 1 1 1 1
69 65 60 58 59 58 47 28 16 14 11 11 9 6 5 5 5 5 5 4 3 2 2 1 0 0 0 0 0 0 0 1 2 2 2 3 4 4 3 1 0 0 0
69 66 62 60 62 61 52 38 27 21 17 16 15 11 7 8 11 10 6 5 4 4 3 2 1 1 1 1 1 1 1 3 5 5 3 2 3 4 2 1 1 0 0
68 65 60 57 56 55 49 40 30 23 19 19 22 19 13 12 14 11 6 4 5 4 3 2 2 2 1 0 1 2 3 4 6 6 3 2 3 3 1 0 0 0 0
68 64 57 51 48 45 42 37 30 25 24 26 30 28 19 15 14 10 5 4 4 3 1 1 2 2 1 0 1 3 4 4 5 4 2 2 3 3 2 1 0 0 0
66 62 56 50 43 37 35 35 34 33 33 33 33 30 22 16 14 12 7 5 3 3 2 2 3 3 2 1 1 3 4 4 5 4 2 2 3 3 3 2 1 1 1
64 61 57 50 42 34 31 33 36 37 35 33 29 25 20 15 14 13 10 7 4 3 4 4 5 5 4 3 2 2 3 4 5 6 4 2 3 4 6 6 4 2 2
61 59 54 49 40 33 32 34 34 32 29 26 25 22 17 11 10 11 10 9 6 4 6 7 8 7 5 4 3 2 2 2 3 5 4 2 1 4 8 10 7 5 4
56 53 48 45 39 33 33 33 32 30 24 21 22 21 14 7 5 7 11 11 8 8 9 12 13 9 5 5 5 3 1 0 1 3 3 2 1 3 7 9 8 8 7
48 46 44 43 39 34 32 30 31 30 23 19 21 19 13 7 5 7 11 12 11 11 13 15 16 12 7 5 5 4 1 0 0 1 2 1 2 4 5 4 6 9 10
41 42 45 46 42 38 33 29 28 25 20 18 19 17 13 9 6 7 10 13 13 14 14 14 14 13 8 5 4 3 1 0 0 0 0 0 2 4 4 2 3 8 10
42 45 49 51 47 42 37 31 26 21 16 15 17 16 14 11 7 6 10 15 17 18 16 14 14 13 8 3 2 1 0 0 0 0 0 0 0 2 2 2 3 7 9
47 49 52 53 50 45 39 32 25 19 15 14 15 14 13 12 8 7 11 17 21 21 20 17 16 13 6 2 1 0 0 0 0 0 0 0 0 0 2 2 3 6 10

GEFSSE_con_prob3kmehi_144.txt.gz
EHI
1 7 19 22 19 16 12 9 6 4 5 5 5 4 3 2 3 4 3 2 1 0 0 0 0 0 0 0 0 0 0 0 0 0 0 0 0 0 1 1 1 0 0
11 14 23 26 21 17 13 8 4 2 3 3 3 3 1 1 1 2 2 1 0 0 0 0 0 0 0 0 0 0 0 0 0 0 0 0 0 0 0 0 0 0 0
30 26 29 33 27 20 14 8 3 1 1 1 1 1 0 0 0 1 1 0 0 0 0 0 0 0 1 1 0 0 0 0 0 0 0 0 0 0 0 0 0 0 0
41 35 35 39 35 24 17 11 5 1 0 0 0 0 0 0 0 0 0 0 0 0 0 0 0 0 1 1 0 0 0 0 0 0 0 0 0 0 0 0 0 0 0
40 37 39 44 39 27 18 11 7 3 1 0 0 0 0 0 0 0 0 0 0 0 0 0 0 0 1 1 0 0 0 0 0 0 0 0 0 0 0 0 0 0 0
39 37 41 46 40 28 17 11 8 6 3 1 0 0 0 0 0 0 0 0 0 0 0 0 0 0 0 0 0 0 0 0 0 0 0 0 0 0 0 0 0 0 0
43 40 42 46 41 28 18 12 10 7 3 1 0 0 0 0 0 0 0 0 0 0 0 0 0 0 0 0 0 0 0 0 0 0 0 0 0 0 0 0 0 0 0
48 43 41 42 38 29 19 13 11 7 3 1 0 0 0 0 0 0 0 0 0 0 0 0 0 0 0 0 0 0 0 0 0 0 0 0 0 0 0 0 0 0 0
47 44 38 33 29 25 19 14 12 8 3 0 0 0 0 0 0 0 0 0 0 0 0 0 0 0 0 0 0 0 0 0 0 0 0 0 0 0 0 0 0 0 0
45 43 37 28 23 21 17 14 12 8 2 0 0 0 0 0 0 0 0 0 0 0 0 0 0 0 0 0 0 0 0 0 0 0 0 0 0 0 0 0 0 0 0
46 43 36 30 24 20 16 13 10 6 2 0 0 0 0 0 0 0 0 0 0 0 0 0 0 0 0 0 0 0 0 0 0 0 0 1 2 1 0 0 0 0 0
47 41 33 27 23 19 15 11 8 4 1 0 0 0 0 0 0 0 0 0 0 0 0 0 0 0 0 0 0 0 0 0 0 0 1 2 3 2 0 0 0 0 0
42 36 26 21 18 16 14 11 6 2 0 0 0 0 0 0 0 0 0 0 0 0 0 0 0 0 0 0 0 0 0 0 0 0 1 3 3 1 0 0 0 0 0
37 32 22 16 14 12 12 10 6 2 0 0 0 0 0 0 0 0 0 0 0 0 0 0 0 0 0 0 0 0 0 0 0 0 1 3 4 2 1 0 0 0 0
38 32 23 17 14 12 12 9 5 2 0 0 0 0 0 0 0 0 0 0 0 0 0 0 0 0 0 0 0 0 0 0 0 0 1 2 4 4 2 1 0 0 0
43 37 28 22 19 16 13 10 6 3 2 1 0 0 0 1 1 1 0 0 0 0 0 0 0 0 0 0 0 0 0 0 0 0 0 1 2 3 3 2 1 0 0
50 44 35 28 24 20 15 11 7 4 3 2 1 0 0 1 1 1 0 0 0 0 0 0 0 0 0 0 0 0 0 0 0 0 0 0 0 1 1 2 1 1 1
53 49 40 31 25 21 16 10 6 4 3 2 1 0 0 0 0 0 0 0 0 0 0 0 0 0 0 0 0 0 0 0 0 0 0 0 0 0 0 1 1 1 2
53 49 42 33 25 20 16 11 6 4 3 1 1 0 0 0 0 0 0 0 0 0 0 0 0 0 0 0 0 0 0 0 0 0 0 0 0 0 0 0 0 1 2
51 48 42 34 26 19 16 13 7 3 2 1 0 0 0 0 0 0 0 0 0 0 0 0 0 0 0 0 0 0 0 0 0 0 0 0 0 0 0 0 0 1 2
48 45 39 33 25 19 16 12 6 2 1 1 0 0 0 0 0 0 0 0 0 0 0 0 0 0 0 0 0 0 0 0 0 0 0 0 0 0 0 0 0 0 1
45 41 36 29 24 19 15 10 5 1 1 1 0 0 0 0 0 0 0 0 0 0 0 0 0 0 0 0 0 0 0 0 0 0 0 0 0 0 0 0 0 0 0
41 38 32 26 21 18 13 8 5 3 1 1 0 0 0 0 0 0 0 0 0 0 0 0 0 0 0 0 0 0 0 0 0 0 0 0 0 0 0 0 0 0 0
38 35 29 22 17 14 11 8 6 5 2 1 1 1 1 0 0 0 0 0 0 0 0 0 0 0 0 0 0 0 0 0 0 0 0 0 0 0 0 0 0 0 0
34 31 26 20 16 12 9 7 6 5 2 1 1 1 1 0 0 0 0 0 0 0 0 0 0 0 0 0 0 0 0 0 0 0 0 0 0 0 0 0 0 0 0
29 28 25 22 16 11 9 6 5 3 1 0 0 1 0 0 0 0 0 0 0 0 0 0 0 0 0 0 0 0 0 0 0 0 0 0 0 0 0 0 0 0 0

GEFSSE_con_prob3kmehi_150.txt.gz
EHI
0 3 9 12 16 27 34 36 36 35 34 29 20 12 8 6 3 2 2 1 0 0 0 0 0 0 0 0 0 0 0 0 0 0 0 0 0 0 0 0 0 0 0
4 6 10 14 19 27 34 37 37 37 34 28 19 13 9 5 2 1 1 0 0 0 0 0 0 0 0 0 0 0 0 0 0 0 0 0 0 0 0 0 0 0 0
13 11 13 17 22 28 31 34 35 35 32 24 16 11 8 5 2 0 0 0 0 0 0 0 0 0 0 0 0 0 0 0 0 0 0 0 0 0 0 0 0 0 0
20 15 15 21 25 27 28 29 29 29 26 19 12 7 5 3 1 0 0 0 0 0 0 0 0 0 0 0 0 0 0 0 0 0 0 0 0 0 0 0 0 0 0
20 16 18 25 28 27 27 26 25 24 21 16 9 5 4 3 1 0 0 0 0 0 0 0 0 0 0 0 0 0 0 0 1 0 0 0 0 0 0 0 0 0 0
21 18 23 32 34 29 25 22 22 21 18 13 7 3 3 2 1 0 0 0 0 0 0 0 0 0 0 0 0 0 0 0 0 0 0 0 0 0 0 0 0 0 0
28 25 29 39 40 32 24 19 18 17 14 9 5 3 2 2 1 0 0 0 0 0 0 0 0 0 0 0 0 0 0 0 0 0 0 0 0 0 0 0 0 0 0
39 34 33 37 38 32 25 18 15 13 9 6 4 3 1 1 1 0 0 0 0 0 0 0 0 0 0 0 0 0 0 0 0 0 0 0 0 0 0 0 0 0 0
43 40 34 30 28 25 22 17 15 11 7 4 3 3 1 0 0 1 1 1 0 0 0 0 0 0 0 0 0 0 0 0 0 0 0 0 0 0 0 0 0 0 0
40 39 33 26 20 17 15 14 13 11 7 4 3 3 2 1 0 1 1 1 0 0 0 0 0 0 0 0 0 0 0 0 0 0 0 0 0 0 0 0 0 0 0
37 35 30 25 19 14 12 12 12 11 7 4 3 3 2 1 0 0 1 1 0 0 0 0 0 0 0 0 0 0 0 0 0 0 0 0 0 0 0 0 0 0 0
37 33 27 23 20 16 13 11 11 10 7 4 2 1 1 1 0 0 0 1 0 0 0 0 0 0 0 0 0 0 0 0 0 0 0 0 0 0 0 0 0 0 0
36 33 26 21 19 17 14 12 11 9 7 4 1 0 0 0 0 0 0 0 0 0 0 0 0 0 0 0 0 0 0 0 0 0 0 0 0 0 0 0 0 0 0
32 29 24 20 16 15 15 13 11 9 6 4 1 0 0 0 0 0 0 0 0 0 0 0 0 0 0 0 0 0 0 0 0 0 0 0 0 0 0 0 0 0 0
27 25 21 19 16 14 13 12 11 9 6 3 1 0 0 0 0 0 0 0 0 0 0 0 0 0 0 0 0 0 0 0 0 0 0 0 0 0 0 0 0 0 0
22 21 20 19 17 13 11 10 9 8 6 3 1 0 0 0 0 0 0 0 0 0 0 0 0 0 0 0 0 0 0 0 0 0 0 0 0 0 0 0 0 0 0
19 19 20 19 16 13 10 9 8 7 5 3 2 0 0 0 0 0 0 0 0 0 0 0 0 0 0 0 0 0 0 0 0 0 0 0 0 0 0 0 0 0 0
16 18 18 17 15 13 9 8 7 6 4 2 1 0 0 0 0 0 0 0 0 0 0 0 0 0 0 0 0 0 0 0 0 0 0 0 0 0 0 0 0 0 0
12 14 15 15 13 10 7 6 5 4 3 1 0 0 0 0 0 0 0 0 0 0 0 0 0 0 0 0 0 0 0 0 0 0 0 0 0 0 0 0 0 0 0
13 12 11 11 9 6 6 5 4 2 2 1 0 0 0 0 0 0 0 0 0 0 0 0 0 0 0 0 0 0 0 0 0 0 0 0 0 0 0 0 0 0 0
18 15 11 9 7 6 6 5 2 1 1 0 0 0 0 0 0 0 0 0 0 0 0 0 0 0 0 0 0 0 0 0 0 0 0 0 0 0 0 0 0 0 0
24 20 15 11 9 9 8 4 1 0 0 0 0 0 1 1 1 0 0 0 0 0 0 0 0 0 0 0 0 0 0 0 0 0 0 0 0 0 0 0 0 0 0
25 22 19 14 11 9 7 4 2 1 1 0 0 0 1 1 1 0 0 0 0 0 0 0 0 0 0 0 0 0 0 0 0 0 0 0 0 0 0 0 0 0 0
22 20 17 14 10 8 6 4 3 3 2 0 0 0 0 0 0 0 0 0 0 0 0 0 0 0 0 0 0 0 0 0 0 0 0 0 0 0 0 0 0 0 0
18 16 13 11 8 6 4 4 4 4 2 1 0 0 0 0 0 0 0 0 0 0 0 0 0 0 0 0 0 0 0 0 0 0 0 0 0 0 0 0 0 0 0
16 14 11 9 7 5 4 3 4 4 3 1 0 0 0 0 0 0 0 0 0 0 0 0 0 0 0 0 0 0 0 0 0 0 0 0 0 0 0 0 0 0 0

GEFSSE_con_prob3kmehi_156.txt.gz
EHI
0 0 1 0 0 1 7 13 17 17 13 8 4 2 1 0 0 0 0 0 0 0 0 0 0 0 0 0 0 0 0 0 0 0 0 0 0 0 0 0 0 0 0
0 1 2 1 0 2 9 17 20 18 14 8 3 1 0 0 0 0 0 0 0 0 0 0 0 0 0 0 0 0 0 0 0 0 0 0 0 0 0 0 0 0 0
1 2 3 2 2 4 11 20 22 18 13 7 2 1 1 2 1 0 0 0 0 0 0 0 0 0 0 0 0 0 0 0 0 0 0 0 0 0 0 0 0 0 0
1 3 4 4 3 4 11 20 21 16 10 5 1 2 3 3 1 0 0 0 0 0 0 0 0 0 0 0 0 0 0 0 0 0 0 0 0 0 0 0 0 0 0
1 4 8 7 5 4 9 15 16 12 7 4 2 3 4 3 1 0 0 0 0 0 0 0 0 1 1 0 0 0 0 0 0 0 0 0 0 0 0 0 0 0 0
1 5 11 12 7 5 6 9 9 7 5 4 4 4 3 1 0 0 0 0 0 0 0 0 0 1 1 0 0 0 0 0 0 0 0 0 0 0 0 0 0 0 0
0 5 12 15 11 7 5 6 6 5 4 3 3 2 1 0 0 0 0 0 0 0 0 0 0 1 1 0 0 0 0 0 0 0 0 0 0 0 0 0 0 0 0
0 5 13 15 12 8 6 6 7 6 4 3 2 1 0 0 0 0 0 0 0 0 0 0 0 0 0 0 0 0 1 2 1 0 0 0 0 0 0 0 0 0 0
1 6 12 13 10 8 7 7 8 8 7 5 3 1 0 0 0 0 0 0 0 0 0 0 0 0 0 0 0 0 1 2 1 0 0 0 0 0 0 0 0 0 0
3 6 9 10 8 7 7 7 8 9 8 6 4 1 0 0 0 0 0 0 0 0 0 0 0 0 0 0 0 0 1 2 1 0 0 0 0 0 0 0 0 0 0
6 5 6 7 6 6 6 7 8 8 6 4 2 0 0 0 0 0 0 0 0 0 0 0 0 0 0 0 0 0 0 0 0 0 0 0 0 0 0 0 0 0 0
10 7 5 5 5 5 5 7 8 6 3 1 0 0 0 1 0 0 1 0 0 0 0 0 0 0 0 0 0 0 0 0 0 0 0 0 0 0 0 0 0 0 0
19 14 8 8 7 6 6 9 9 6 3 2 1 0 0 0 0 0 0 0 0 0 0 0 0 0 0 0 0 0 0 0 0 0 0 0 0 0 0 0 0 0 0
32 25 18 14 12 11 11 11 10 8 5 4 2 1 0 0 1 1 1 1 0 0 0 0 0 0 0 0 0 0 0 0 0 0 0 0 0 0 0 0 0 0 0
38 33 27 22 18 17 16 13 9 7 6 5 4 3 1 0 1 2 2 1 0 0 0 0 0 0 0 0 0 0 0 0 0 0 0 0 0 0 0 0 0 0 0
38 35 29 25 23 20 16 12 7 5 5 5 4 3 1 0 1 1 1 1 0 0 0 0 0 0 0 0 0 0 0 0 0 0 0 0 0 0 0 0 0 0 0
37 33 26 22 21 20 15 9 5 4 4 3 2 1 0 0 0 0 0 0 0 0 0 0 0 0 0 0 0 0 0 0 0 0 0 0 0 1 1 0 0 0 0
37 33 25 18 16 19 16 10 6 5 4 2 1 0 0 0 0 0 0 0 0 0 0 0 0 0 0 0 0 0 0 0 0 0 0 0 0 1 1 1 1 0 0
38 35 27 18 15 17 17 13 10 8 4 2 1 0 0 0 0 0 0 0 1 1 1 0 0 0 0 0 0 0 0 0 0 0 0 0 0 0 1 2 2 1 0
37 34 28 22 19 19 18 16 14 10 5 2 1 0 0 0 0 0 0 1 1 1 1 0 0 0 0 0 0 0 0 0 0 0 0 0 0 0 0 2 2 1 0
36 34 30 25 23 23 22 20 16 10 5 2 1 0 0 0 0 0 0 0 1 1 0 0 0 0 0 0 0 0 0 0 0 0 0 0 0 0 0 1 1 1 0
38 35 31 28 27 25 24 21 16 10 5 2 1 0 0 0 0 0 0 0 1 1 0 0 0 0 0 0 0 1 1 1 0 0 0 0 0 0 0 1 2 2 1
35 32 27 26 26 25 23 20 17 13 8 4 2 1 1 1 0 0 0 0 1 1 0 0 1 1 1 0 0 1 2 1 0 0 0 0 0 0 0 1 2 2 1
30 24 21 22 23 22 20 19 18 15 11 8 5 3 2 2 1 0 0 0 1 1 0 0 0 1 1 1 2 2 1 1 0 0 0 0 0 0 0 0 1 1 0
25 21 18 21 22 19 18 17 16 14 11 9 8 5 3 2 1 0 0 0 0 1 1 1 0 0 1 2 4 3 1 1 1 1 0 1 1 1 0 0 0 0 0
23 19 19 22 21 18 17 16 14 11 9 10 10 7 3 1 0 0 1 1 1 1 2 2 1 0 1 2 4 3 2 3 3 2 1 1 2 2 1 1 1 1 0

GEFSSE_con_prob3kmehi_162.txt.gz
EHI
10 6 5 3 0 0 0 0 0 0 0 0 0 0 0 0 0 0 0 0 0 0 0 0 0 0 0 0 0 0 0 0 0 0 0 0 0 0 0 0 1 0 0
11 8 7 5 1 0 0 0 0 0 0 0 0 0 0 0 0 0 0 0 0 0 0 0 0 0 0 0 0 0 0 0 0 0 0 0 0 0 0 0 1 0 0
9 8 8 7 3 0 0 0 0 0 0 0 0 0 0 0 0 0 0 0 0 0 0 0 0 0 0 0 0 0 0 0 0 0 0 0 0 0 0 0 0 0 0
4 5 8 9 5 1 0 0 0 0 0 0 0 0 0 0 0 0 0 0 0 0 0 0 0 0 0 0 0 0 0 0 0 0 0 0 0 0 0 0 0 0 0
6 8 10 11 7 2 1 0 0 0 0 0 0 0 0 0 0 0 0 0 0 0 0 0 0 0 0 0 0 0 0 0 0 0 0 0 0 0 0 0 0 0 0
15 14 14 14 9 4 2 1 0 0 0 0 0 0 0 0 0 0 0 0 0 0 0 0 0 0 0 0 0 0 0 1 0 0 0 0 0 0 0 0 0 0 0
25 19 17 18 12 6 3 1 1 0 0 0 0 1 1 1 0 0 0 0 0 0 0 0 0 0 0 0 0 0 2 3 2 0 0 0 0 0 0 0 0 0 0
35 26 20 18 13 7 4 3 2 1 1 1 1 2 2 1 0 0 0 0 0 0 0 0 0 0 0 0 0 0 4 6 3 0 0 0 0 0 0 0 0 0 0
40 29 19 16 12 7 4 3 3 3 2 2 3 3 3 2 0 0 0 0 0 0 0 0 0 0 0 0 0 1 5 7 3 0 0 0 0 0 0 0 0 0 0
35 26 18 14 10 5 4 3 3 3 3 3 3 2 2 1 0 0 0 0 0 0 0 0 0 0 0 0 1 3 6 5 2 0 0 0 0 0 0 0 0 0 0
33 26 20 18 12 5 4 4 3 3 3 2 2 2 2 1 0 0 0 1 0 0 0 0 0 0 1 1 3 6 6 3 1 0 0 0 0 0 0 0 0 0 0
35 30 26 23 17 10 9 8 5 2 2 1 1 3 3 1 1 1 2 3 2 0 0 0 0 0 1 2 4 5 4 2 1 0 0 0 0 0 0 0 0 0 0
36 34 33 31 24 20 18 13 7 4 3 3 4 5 3 2 3 3 4 5 3 1 0 0 0 0 1 2 2 2 2 1 0 0 1 1 1 0 0 0 0 0 0
41 40 41 40 35 32 28 19 10 7 6 7 8 6 3 2 3 4 4 4 3 2 1 0 0 0 1 2 1 1 1 0 0 1 1 1 1 0 0 0 0 0 0
52 51 51 50 46 41 35 26 18 14 12 13 12 7 3 3 2 2 2 1 2 2 1 0 0 0 0 1 1 1 1 0 0 1 1 0 0 0 0 0 0 0 0
60 59 57 54 49 43 35 28 22 19 18 18 16 11 6 3 3 2 1 0 1 1 1 0 0 0 0 0 0 0 0 0 1 1 1 0 0 1 1 0 0 0 0
63 60 54 49 45 39 29 22 17 18 18 20 21 18 8 4 6 5 2 1 1 1 0 0 0 0 0 0 0 0 1 1 2 2 1 0 1 1 2 1 0 0 0
63 59 49 41 40 35 25 17 13 15 18 22 26 21 10 6 7 5 3 3 2 1 0 0 0 0 0 0 0 1 3 4 3 2 2 1 2 2 2 2 2 2 1
61 56 47 40 36 30 23 19 16 18 21 23 25 22 14 8 6 4 5 7 4 1 1 1 1 1 1 0 0 1 3 5 4 2 1 2 4 5 4 4 5 5 3
61 57 50 45 38 29 25 24 23 24 25 23 23 23 19 11 7 6 8 10 7 2 2 2 3 3 2 1 1 2 3 5 5 3 2 3 4 6 7 9 9 6 4
64 61 55 50 41 31 28 30 30 29 25 23 23 24 20 13 9 7 9 11 9 6 5 4 3 3 2 2 2 2 3 4 4 3 3 4 4 5 9 13 14 12 9
65 61 56 51 42 32 29 31 32 30 26 24 24 24 22 16 10 8 9 10 9 9 9 6 3 2 1 1 2 2 1 1 1 1 2 4 3 3 7 12 19 21 17
62 58 53 48 41 33 28 27 28 28 25 23 23 25 24 18 12 10 11 9 7 9 10 7 3 1 0 1 3 2 0 0 0 0 1 3 4 4 4 7 16 22 22
55 53 48 45 40 34 28 26 26 25 21 20 23 26 26 23 18 16 16 13 10 10 10 7 3 1 1 1 3 3 1 1 1 0 0 1 4 5 5 4 9 18 23
48 46 44 43 40 34 29 27 26 23 20 21 26 30 31 29 26 23 22 20 16 14 14 10 6 3 3 2 2 2 1 2 1 0 0 1 2 5 8 7 7 13 20
44 43 42 42 40 35 31 29 27 24 21 24 29 32 33 33 31 28 27 25 20 17 17 14 9 6 4 3 2 2 1 2 1 0 1 1 2 4 9 12 9 11 16

GEFSSE_con_prob3kmehi_168.txt.gz
EHI
2 4 7 8 6 5 4 3 3 3 3 3 2 1 0 0 0 0 0 0 0 0 0 0 0 0 0 0 0 1 2 2 2 1 1 2 2 1 0 0 0 0 0
6 6 8 8 6 4 4 3 3 3 3 3 1 0 0 0 0 0 0 0 0 0 0 0 0 0 0 0 0 0 1 1 1 0 0 1 1 0 0 0 0 0 0
13 10 8 8 6 4 4 3 3 3 3 2 1 0 0 0 0 0 0 0 0 0 0 0 0 0 0 0 0 0 0 0 0 0 0 0 0 0 0 0 1 1 1
16 13 11 11 9 5 3 2 2 2 3 2 1 0 0 0 0 0 0 0 0 0 0 0 0 0 0 0 0 0 0 0 0 0 0 0 0 0 0 0 1 2 3
17 15 16 18 14 7 4 3 2 3 2 1 0 0 0 0 0 0 0 0 0 0 0 0 0 0 0 0 0 0 0 0 0 0 0 0 0 0 0 0 1 2 2
19 18 21 22 17 10 6 4 4 3 2 1 0 0 0 0 0 0 0 0 0 0 0 0 0 0 0 0 0 1 1 0 0 0 0 0 0 0 0 0 0 1 1
23 22 23 24 19 11 7 5 4 3 2 1 0 0 0 0 0 0 0 0 0 0 0 0 0 0 0 0 1 3 3 1 0 0 0 0 0 0 0 0 0 0 1
25 23 22 22 18 11 7 5 4 4 3 2 1 0 0 0 0 0 0 0 0 0 0 0 0 0 0 0 1 3 3 1 0 0 0 0 0 0 0 0 0 0 1
26 25 22 18 14 10 8 7 6 5 4 3 1 0 0 0 0 0 0 0 0 0 0 0 0 0 0 0 0 1 2 1 0 0 0 0 0 0 0 0 0 0 0
27 25 22 16 12 9 8 7 7 6 5 3 1 1 0 0 0 0 0 0 0 0 0 0 0 0 0 0 0 0 0 0 0 0 0 1 1 1 0 0 0 0 0
25 24 21 17 12 9 8 7 6 5 4 3 2 1 0 0 0 0 0 0 0 0 0 0 0 0 0 1 0 0 0 0 0 0 1 2 2 1 0 0 0 0 0
22 20 18 16 12 10 9 7 5 4 3 3 2 1 1 0 0 0 0 0 0 0 0 0 1 0 0 0 0 0 0 0 0 0 1 2 3 2 1 0 0 0 0
23 20 17 13 10 10 9 7 5 3 3 3 3 2 2 1 0 0 0 0 0 0 0 0 0 0 0 0 0 0 0 0 0 0 1 2 3 3 3 1 1 1 0
28 25 19 12 9 8 8 7 5 3 3 3 3 3 3 2 1 0 0 0 0 0 0 0 0 0 0 0 0 0 0 0 0 0 1 2 4 5 5 3 2 1 1
34 31 24 16 12 10 9 7 5 3 3 3 3 3 3 2 1 0 0 0 1 0 0 0 0 0 0 0 0 0 0 0 0 0 0 1 4 6 5 4 3 1 0
38 35 30 24 19 15 11 8 4 3 3 3 2 3 3 1 0 0 0 0 0 0 0 0 0 0 0 0 0 0 0 0 0 0 0 1 4 5 5 5 3 1 0
40 37 33 29 25 20 14 9 5 3 3 3 3 3 2 1 0 0 0 0 0 0 0 0 0 0 0 0 0 0 0 0 0 0 0 0 2 3 4 5 4 2 0
42 38 33 30 26 21 16 12 7 5 5 4 4 2 1 0 0 0 0 0 0 0 0 0 0 0 0 0 0 0 0 0 0 0 0 0 0 1 2 4 5 3 2
43 39 34 30 25 21 18 14 9 6 6 6 4 2 0 0 0 0 0 0 0 0 0 0 0 0 0 0 0 0 0 0 0 0 0 0 0 0 1 2 4 4 2
43 39 35 31 25 19 17 14 9 7 7 7 5 3 1 0 0 0 0 0 0 0 0 0 0 0 0 0 0 0 0 0 0 0 0 0 0 0 0 0 1 1 1
41 39 36 32 26 20 15 12 8 6 6 5 5 3 2 1 0 0 0 0 0 0 0 0 0 0 0 0 0 0 0 0 0 0 0 0 0 0 0 0 0 0 0
40 38 33 29 24 19 14 11 7 4 2 2 3 3 3 2 1 1 0 0 0 0 0 0 0 0 0 0 0 0 0 0 0 0 0 0 0 0 0 0 0 0 0
42 37 30 24 20 17 15 12 8 4 1 1 2 3 3 3 2 1 0 0 0 0 0 0 0 0 0 0 0 0 0 0 0 0 0 0 0 0 0 0 0 0 0
42 37 29 23 18 16 15 14 12 7 2 1 1 2 3 3 3 2 1 0 0 0 0 0 0 0 0 0 0 0 0 0 0 0 0 0 0 0 0 0 0 0 0
39 36 30 24 19 15 14 14 13 9 3 0 0 1 2 3 4 3 2 0 0 0 0 0 0 0 0 0 0 0 0 0 0 0 0 0 0 0 0 0 0 0 0
36 36 31 23 19 16 13 13 14 10 3 0 0 0 1 3 4 3 2 1 0 0 0 0 0 0 0 0 0 0 0 0 0 0 0 0 0 0 0 0 0 0 0

GEFSSE_con_prob3kmehi_174.txt.gz
EHI
0 1 2 3 1 2 6 8 8 7 6 6 6 5 4 2 1 0 0 0 0 0 0 0 1 1 1 0 0 0 0 0 0 1 1 1 0 0 0 1 1 1 0
1 2 3 4 4 5 8 9 8 6 5 5 5 5 5 3 1 0 0 0 0 0 0 0 1 1 0 0 0 0 0 0 0 0 0 0 0 0 0 0 0 0 0
4 3 5 6 7 8 10 10 8 5 3 4 4 4 4 3 1 0 0 0 0 0 0 0 0 0 0 0 0 0 0 0 0 0 0 0 0 0 0 0 0 0 0
5 4 6 8 9 10 11 11 8 5 3 3 3 3 2 1 0 0 0 0 0 0 0 0 0 0 0 0 0 0 0 0 0 0 0 0 0 0 0 0 0 0 0
3 4 7 11 12 11 11 11 9 6 4 3 3 2 1 1 1 0 0 0 0 0 0 0 0 0 0 0 0 0 0 0 0 0 0 0 0 0 0 0 0 0 0
3 4 9 14 15 13 12 10 8 6 3 2 1 1 1 1 1 0 0 0 0 0 0 0 0 0 0 0 0 0 0 0 0 0 0 0 0 0 0 0 0 0 0
7 7 11 15 16 14 12 9 8 5 3 1 1 0 0 0 0 0 0 0 0 0 0 0 0 0 1 1 1 0 0 0 0 0 0 0 0 0 0 0 0 0 0
13 13 14 16 16 14 12 10 8 6 3 2 2 1 0 0 0 0 0 0 0 0 0 0 0 0 1 2 1 0 0 0 0 0 0 0 0 0 0 0 0 0 0
14 14 14 14 14 13 11 10 8 6 4 3 3 2 0 0 0 0 0 0 0 0 0 1 1 0 0 1 1 0 0 0 0 0 0 0 0 0 0 0 0 0 0
8 9 11 11 11 10 9 9 8 6 5 4 3 2 0 0 0 0 0 0 0 0 0 1 1 0 0 0 0 1 0 0 0 0 0 0 1 0 0 0 0 0 0
4 6 7 8 8 8 9 9 7 6 5 5 3 2 1 1 0 0 0 0 0 0 0 1 1 0 0 0 1 2 1 0 0 0 0 0 0 0 0 0 0 0 0
7 6 7 7 7 7 9 10 7 5 4 4 3 3 3 2 1 0 0 0 0 0 0 0 0 0 0 0 1 2 1 0 0 0 0 0 0 0 0 0 0 0 0
10 9 7 7 7 7 8 9 7 4 3 3 3 3 3 2 1 0 0 0 0 0 0 0 0 0 0 0 0 0 0 0 0 0 0 0 0 0 0 0 0 0 0
8 8 7 7 7 6 7 8 7 4 3 3 3 3 2 1 0 0 0 0 0 0 0 0 0 0 0 0 0 0 0 0 0 0 0 0 0 0 0 0 0 0 0
5 4 5 7 7 6 6 6 5 4 3 3 3 3 1 0 0 0 0 0 0 0 0 0 0 0 0 0 0 0 0 0 0 0 0 0 1 1 1 0 0 0 0
5 4 4 6 7 6 6 4 3 3 3 3 3 2 1 0 0 0 0 0 0 0 0 0 0 0 0 0 0 0 0 0 0 0 0 0 1 2 3 2 1 0 0
8 6 4 5 7 6 5 2 1 1 1 2 1 1 0 0 0 0 0 0 0 0 0 0 0 0 0 0 0 0 0 0 0 0 0 0 0 1 2 2 2 1 0
10 7 5 6 6 5 3 1 0 0 0 0 0 0 0 0 0 0 0 0 0 0 0 0 0 0 0 0 0 0 0 0 0 0 0 0 0 0 1 2 2 1 0
12 9 6 5 3 2 1 0 0 0 0 0 0 0 0 0 0 0 0 0 0 0 0 0 0 0 0 0 0 0 0 0 0 0 0 0 0 0 0 0 1 1 1
15 12 8 4 3 2 2 1 1 0 0 0 0 0 0 0 0 0 0 0 0 0 0 0 0 0 0 0 0 0 0 0 0 0 0 0 0 0 0 0 0 0 0
20 18 13 9 8 8 6 4 2 0 0 0 0 0 0 0 0 0 0 0 0 0 0 0 0 0 0 0 0 0 0 0 0 0 0 0 0 0 0 0 0 0 0
24 22 18 14 13 11 9 7 3 0 0 0 0 0 0 0 0 0 0 0 0 0 0 0 0 0 0 0 0 0 0 0 0 0 0 0 0 0 0 0 0 0 0
22 22 20 15 12 10 9 7 5 2 1 1 0 0 0 0 0 0 0 0 0 0 0 0 0 0 0 0 0 0 0 0 0 0 0 0 0 0 0 0 0 0 0
21 20 19 15 12 9 8 9 8 6 4 2 0 0 0 0 0 0 0 0 0 0 0 0 0 0 0 0 0 0 0 0 0 0 0 0 0 0 0 0 0 0 0
21 20 18 16 12 10 9 11 11 9 5 2 0 0 0 0 0 0 0 0 0 0 0 0 0 0 0 0 0 0 0 0 0 0 0 0 0 0 0 0 0 0 0
21 19 18 16 12 9 10 12 12 10 5 1 0 0 0 0 0 0 0 0 0 0 0 0 0 0 0 0 0 0 0 0 0 0 0 0 0 0 0 0 0 0 0

GEFSSE_con_prob3kmehi_180.txt.gz
EHI
0 1 2 1 0 1 0 1 3 4 4 4 3 1 0 0 0 0 0 0 0 0 0 0 0 0 0 0 0 0 0 0 0 0 0 0 0 0 0 0 0 0 0
0 1 2 1 0 1 1 2 4 5 5 4 4 3 1 0 0 0 0 0 0 0 0 0 0 0 0 0 0 0 0 0 0 0 0 0 0 0 0 0 0 0 0
1 2 3 2 1 2 3 3 5 6 6 6 5 4 3 1 0 0 0 0 0 0 0 0 0 0 0 0 0 0 0 0 0 0 0 0 0 0 0 0 0 0 0
0 2 4 4 3 3 4 4 5 5 6 5 4 3 2 1 0 0 0 0 0 0 0 0 0 0 0 0 0 0 0 0 0 0 0 0 0 0 0 0 0 0 0
0 2 5 6 4 3 4 3 2 3 4 3 2 1 1 0 0 0 0 0 0 0 0 0 0 0 0 0 0 0 0 0 0 0 0 0 0 0 0 0 0 0 0
0 2 5 6 5 4 3 3 1 1 3 3 2 1 0 0 0 0 0 0 0 0 0 0 0 0 0 0 0 0 0 0 0 0 0 0 0 0 0 0 0 0 0
1 3 6 7 6 5 4 4 3 2 3 3 3 2 1 1 1 1 0 0 0 0 0 0 0 0 0 0 0 0 0 0 0 0 0 0 0 0 0 0 0 0 0
2 3 5 6 7 6 6 6 5 3 3 3 3 3 3 2 2 2 1 0 0 0 0 0 0 0 0 0 0 0 0 0 0 0 0 0 0 0 0 0 0 0 0
2 2 2 4 5 6 6 6 6 4 3 3 3 3 3 3 3 2 1 0 0 0 0 0 0 0 0 0 0 0 0 0 0 0 0 0 0 0 0 0 0 0 0
2 1 0 2 3 3 4 6 6 4 3 3 3 3 3 3 1 1 0 0 0 1 0 0 0 0 0 0 0 0 0 0 0 0 0 0 0 0 0 0 0 0 0
2 1 0 0 1 1 3 5 5 4 3 3 3 3 3 2 1 0 0 0 0 0 0 0 0 0 0 0 0 0 0 0 0 0 0 0 0 0 0 0 0 0 0
3 2 1 0 0 0 2 4 4 3 3 3 3 3 3 2 1 0 0 0 0 0 0 0 0 0 0 0 0 0 0 0 0 0 0 0 0 0 0 0 0 0 0
4 3 3 3 2 2 2 3 4 4 4 3 2 2 3 3 2 1 1 0 0 0 0 0 0 0 0 0 0 0 0 0 0 0 0 0 0 0 0 0 0 0 0
5 5 6 7 8 7 6 6 6 6 5 4 3 3 3 3 3 2 1 0 0 0 0 0 0 0 0 0 0 0 0 0 0 0 0 0 0 0 0 0 0 0 0
7 8 9 11 12 12 10 8 7 6 5 4 4 3 3 3 3 3 1 0 0 0 0 0 0 0 0 0 0 0 0 0 0 0 0 0 0 0 0 0 0 0 0
11 11 12 13 13 13 11 8 6 5 4 4 4 4 3 3 3 3 2 0 0 0 0 0 0 0 0 0 0 0 0 0 0 0 0 0 0 0 0 0 0 0 0
14 16 15 12 12 11 9 7 6 5 4 4 4 4 3 3 3 3 2 1 0 0 0 0 0 0 0 0 0 0 0 0 0 0 0 0 0 0 0 0 0 0 0
18 22 22 16 12 10 8 8 7 5 4 4 4 3 3 3 2 1 1 0 0 0 0 0 0 0 0 0 0 0 0 0 0 0 0 0 0 0 0 1 0 0 0
25 28 29 24 18 12 9 9 8 5 4 4 4 3 3 2 1 0 0 0 0 0 0 0 0 0 0 0 0 0 0 0 0 0 0 0 0 0 0 1 1 0 0
33 33 32 29 25 18 12 10 8 6 6 6 4 2 1 1 0 0 0 0 0 0 0 0 0 0 0 0 0 0 0 0 0 0 0 0 0 0 0 1 2 2 1
39 38 36 33 30 25 18 12 8 7 7 7 4 1 0 0 0 0 0 0 0 0 0 0 0 0 0 0 0 0 0 0 0 0 0 0 0 0 0 1 2 2 3
44 43 41 37 34 29 23 16 11 9 8 6 3 1 0 0 0 0 0 0 0 0 0 0 0 0 0 0 0 0 0 0 0 0 0 0 0 0 0 0 1 1 1
43 41 38 36 33 28 24 17 13 11 9 6 3 1 0 0 0 0 0 0 0 0 0 0 0 0 0 0 0 0 0 0 0 0 0 0 0 1 0 0 0 0 0
35 35 36 34 31 26 21 16 13 12 8 5 3 2 1 1 1 0 0 0 0 0 0 0 0 0 0 1 1 1 0 0 0 0 0 0 0 0 0 0 1 0 0
28 31 35 35 31 26 21 18 15 11 8 6 5 4 2 2 2 1 0 1 0 0 0 1 1 1 1 2 2 3 1 0 1 1 1 0 0 0 0 1 1 1 1
28 30 33 34 32 27 23 20 17 12 9 8 7 6 4 3 3 1 1 2 1 0 1 2 2 1 2 3 4 4 2 1 2 2 2 1 0 0 1 1 2 3 3

GEFSSE_con_prob3kmehi_186.txt.gz
EHI
7 5 4 4 3 3 3 3 3 3 3 3 3 3 3 3 3 3 3 3 3 3 3 3 3 3 3 3 3 3 3 3 3 3 4 4 4 5 5 4 2 1 1
7 5 4 3 3 3 3 3 3 3 3 3 3 3 3 3 3 4 3 3 3 3 3 3 3 3 3 3 3 3 3 3 3 3 3 4 4 4 4 3 3 2 1
6 4 3 3 3 3 3 3 3 3 3 3 3 3 3 3 4 4 4 3 3 3 3 3 3 3 3 3 3 4 3 3 3 3 3 3 3 3 3 3 3 3 2
6 6 5 4 3 3 3 3 3 3 3 3 3 3 3 3 3 4 3 3 3 3 3 3 3 3 3 3 4 4 4 3 3 3 3 3 3 3 3 3 3 3 4
10 10 9 5 3 3 3 3 3 3 3 3 3 3 3 3 3 3 3 3 3 3 3 3 3 3 3 3 4 4 4 3 4 3 3 3 3 3 3 3 3 4 5
17 15 10 6 3 3 3 3 3 3 3 3 3 3 3 3 3 3 3 3 3 3 3 3 3 3 3 3 3 4 4 5 5 4 3 3 3 4 3 3 4 5 6
23 18 11 8 5 4 3 3 3 3 3 3 3 3 3 3 3 3 3 3 3 3 3 3 3 3 3 3 3 3 6 9 7 4 3 3 4 5 4 4 4 5 6
25 19 13 10 7 5 4 4 4 4 4 4 4 4 4 3 3 3 3 3 3 3 3 3 3 3 3 3 3 4 9 13 9 4 3 3 4 5 5 4 4 4 4
19 16 12 10 9 7 6 5 5 5 6 6 6 6 5 4 3 3 3 4 4 4 3 3 3 3 3 3 4 5 9 11 8 4 3 3 3 4 4 4 4 4 4
10 10 10 11 12 11 9 7 7 7 7 6 6 6 6 5 4 3 4 4 5 5 4 4 3 3 3 3 5 7 10 9 7 4 3 3 3 3 3 3 3 4 4
8 8 10 13 14 14 13 11 9 8 7 6 6 7 7 6 4 3 3 4 4 5 5 4 4 3 3 4 6 11 12 10 6 5 4 4 4 3 3 3 3 3 4
12 11 12 12 14 17 16 13 11 10 9 7 6 7 8 7 4 3 3 3 4 4 4 4 3 3 4 5 7 11 13 9 5 4 5 6 5 4 3 3 3 3 3
17 15 14 14 16 20 18 13 12 12 12 10 8 8 8 7 5 5 4 4 4 4 3 3 3 3 3 4 5 8 9 5 4 5 6 7 6 4 3 3 3 3 3
22 20 19 19 21 24 22 15 12 13 15 14 10 8 7 8 7 7 8 7 4 3 3 3 3 3 3 3 4 6 6 3 3 6 7 8 7 4 3 3 3 3 2
26 26 26 25 26 27 26 18 11 11 14 15 13 9 8 9 9 9 10 9 5 4 4 3 3 3 3 3 4 5 4 4 4 5 7 8 8 5 4 3 3 3 2
32 33 35 33 30 28 24 17 10 8 11 14 14 12 10 9 9 8 7 8 6 4 4 4 4 3 3 3 3 4 4 4 4 5 6 8 7 6 5 5 5 4 4
42 43 41 37 35 31 23 15 9 7 10 14 17 16 11 8 7 6 5 5 5 4 5 5 4 4 3 3 3 3 4 4 4 5 7 9 8 7 7 8 9 8 8
50 50 42 38 41 38 26 18 12 10 13 17 19 17 11 7 7 6 5 4 4 4 4 5 4 3 3 3 3 4 4 5 5 5 7 10 11 10 10 11 13 13 12
58 55 47 43 45 42 31 23 16 15 18 20 19 17 11 6 5 6 5 4 4 4 4 4 5 5 5 4 3 3 4 5 7 7 7 8 11 14 13 12 14 14 13
62 60 54 51 50 46 36 27 22 20 21 21 21 19 14 8 5 5 4 4 4 4 4 4 6 7 6 5 4 3 3 6 11 14 10 7 10 15 17 16 15 13 12
64 62 58 55 53 49 42 33 27 23 21 21 23 24 20 13 8 6 4 4 3 4 4 4 5 5 6 5 4 3 3 6 12 17 14 10 10 13 17 21 21 18 15
64 62 60 57 55 52 45 38 31 25 23 22 24 27 25 19 14 9 6 5 4 5 4 4 4 4 4 4 3 3 3 5 8 11 13 12 13 14 17 22 26 25 22
64 62 60 59 57 54 48 41 35 30 26 25 27 29 28 24 19 14 9 7 7 6 5 4 5 5 4 3 3 3 3 4 4 6 8 10 15 18 17 17 22 27 28
62 61 61 59 58 56 51 45 39 33 29 29 30 32 31 27 22 18 14 12 12 9 6 6 7 6 5 4 4 3 4 4 4 4 5 7 13 18 16 13 16 24 28
57 58 58 57 57 55 51 46 40 33 28 29 31 32 32 29 26 21 18 18 18 14 10 9 8 7 6 7 6 5 4 4 4 4 4 5 9 12 12 11 13 19 24
54 55 55 55 55 52 49 46 41 33 28 28 30 32 32 32 29 24 20 22 22 17 13 12 10 7 7 8 8 6 4 4 5 5 4 4 6 8 10 11 12 16 20

GEFSSE_con_prob3kmehi_192.txt.gz
EHI
3 4 6 6 6 5 4 3 3 3 3 3 4 5 6 6 6 5 6 6 6 4 3 3 3 3 3 3 4 4 4 3 3 3 3 3 3 3 3 3 3 3 3
4 4 6 6 5 4 3 3 3 3 3 3 4 5 6 6 6 6 6 7 6 4 3 3 3 3 3 3 3 4 3 3 3 3 3 3 3 3 3 3 3 3 3
5 4 5 6 5 4 4 3 3 3 3 3 3 4 5 6 6 6 6 7 6 5 4 3 3 3 3 3 3 3 3 3 3 3 3 3 3 3 3 3 3 3 3
5 4 5 6 6 5 5 4 3 3 4 4 3 3 4 6 6 5 5 5 5 5 4 4 3 3 3 3 3 3 3 3 3 3 3 3 3 3 3 3 3 3 3
6 5 6 10 11 9 7 6 4 4 5 5 4 4 5 6 6 6 5 5 5 5 5 5 4 3 3 3 3 3 3 3 3 2 2 3 3 3 3 3 3 3 3
6 6 9 14 15 12 10 8 6 6 6 6 6 6 6 6 6 6 5 5 5 6 6 6 5 4 3 3 3 4 3 3 2 1 1 3 3 3 3 3 4 3 3
6 8 12 17 17 14 11 9 7 6 6 6 6 6 6 6 5 4 4 4 5 6 6 6 4 3 3 3 4 4 4 3 2 1 2 3 3 3 3 4 4 4 3
7 8 11 14 15 12 10 9 7 6 6 6 6 6 6 6 5 4 3 3 4 4 5 5 4 3 3 3 3 4 4 4 3 2 3 3 3 3 3 4 5 4 4
7 7 7 9 10 9 8 8 7 6 6 6 6 6 6 6 5 4 3 3 3 3 4 4 4 4 3 3 3 3 4 3 2 1 3 3 3 3 3 3 4 5 5
8 6 4 5 6 6 6 6 6 6 6 6 6 6 6 6 6 5 4 3 3 4 3 3 4 4 4 4 4 4 3 1 0 1 2 3 3 3 3 3 3 4 4
8 5 3 4 4 4 4 4 5 6 6 6 6 6 6 6 6 6 5 4 4 5 4 3 4 4 4 4 4 4 2 0 0 1 3 4 3 3 3 3 3 3 3
8 7 5 4 4 4 3 3 4 5 6 6 5 4 4 4 4 5 6 5 5 5 3 3 4 4 3 2 2 2 1 0 0 2 4 6 5 4 3 3 3 3 3
11 11 9 6 4 4 3 2 3 4 5 5 4 3 3 3 3 4 4 4 4 3 1 1 1 1 1 0 0 0 0 0 0 1 5 9 8 5 3 3 3 3 2
17 16 13 8 4 3 1 1 2 3 4 4 3 3 3 3 3 3 2 2 1 1 0 0 0 0 0 0 0 0 0 0 0 1 5 10 10 6 3 3 3 2 2
23 21 17 13 8 4 2 2 3 3 3 3 3 3 2 2 2 2 1 0 0 0 0 0 0 0 0 0 0 0 0 0 0 1 4 8 10 8 6 5 3 2 2
26 22 18 16 13 9 6 3 3 3 3 2 2 1 1 1 1 1 0 0 0 0 0 0 0 0 0 0 0 0 0 0 0 1 3 5 7 9 10 10 8 6 5
28 24 19 16 14 12 8 4 3 2 2 2 1 1 0 0 0 0 0 0 0 0 0 0 0 0 0 0 0 0 0 0 0 1 2 3 5 8 11 15 16 13 11
31 27 20 14 13 11 7 3 1 1 2 2 2 1 0 0 0 0 0 0 0 0 0 0 0 0 0 0 0 0 0 0 0 0 1 2 3 4 8 13 17 17 15
30 27 21 15 12 9 5 2 1 1 1 3 3 1 0 0 0 0 0 0 0 0 0 0 0 0 0 0 0 0 0 0 0 0 0 1 1 1 4 7 12 14 14
31 28 24 19 13 9 6 3 2 1 1 2 2 1 1 1 1 1 0 0 0 0 0 0 0 0 0 0 0 0 0 0 0 0 0 0 0 0 1 3 5 7 9
39 35 30 25 19 13 10 6 3 2 1 1 2 2 3 3 2 1 0 0 0 0 0 0 0 0 0 0 0 0 0 0 0 0 0 0 0 0 1 1 1 2 4
47 42 35 30 25 20 14 7 4 3 2 1 1 2 3 3 2 2 1 1 1 0 0 0 0 0 0 0 0 0 0 0 0 1 0 0 0 0 1 2 1 1 1
51 48 40 33 28 23 16 9 5 3 3 2 2 2 2 3 3 2 2 2 1 0 0 0 0 0 0 0 0 0 0 0 0 0 0 0 0 0 1 2 2 2 2
53 51 46 39 32 25 18 10 5 3 3 3 3 2 2 2 2 3 3 3 2 0 0 0 0 0 0 0 0 0 0 0 0 0 0 0 0 0 0 1 2 2 2
50 49 47 43 36 30 23 13 6 5 3 3 3 4 3 2 3 4 4 4 2 1 0 0 0 0 0 0 0 0 0 0 0 0 0 0 0 0 0 0 1 1 1
46 46 47 45 39 34 27 16 9 7 4 3 4 6 5 4 5 6 6 5 3 1 0 0 0 0 0 0 0 0 0 0 0 0 0 0 0 0 0 0 0 0 0

GEFSSE_con_prob3kmehi_198.txt.gz
EHI
0 0 1 1 1 1 0 1 2 2 1 1 2 1 1 1 1 2 3 3 1 0 0 0 0 0 0 0 0 0 0 0 1 1 1 1 1 0 0 0 0 0 0
0 1 2 2 2 1 0 0 1 1 1 1 2 2 3 2 2 3 4 3 2 1 1 0 0 0 0 0 0 0 0 0 1 1 1 1 0 0 0 0 0 0 0
0 1 2 3 3 2 0 0 0 0 1 1 1 3 3 3 3 3 4 4 3 2 1 0 0 0 0 0 0 0 0 0 0 0 0 0 0 0 0 0 0 0 1
0 0 2 4 4 2 1 1 1 1 0 0 0 1 2 3 3 3 4 3 3 2 1 0 0 0 0 0 0 0 0 0 0 0 0 0 0 0 0 0 0 0 1
0 0 2 5 5 4 3 2 2 2 1 1 1 1 2 3 3 3 3 2 1 1 0 0 0 0 0 0 0 0 0 0 0 0 0 0 0 0 0 0 0 0 1
0 0 2 5 6 5 4 3 3 3 3 2 2 2 3 3 3 2 2 1 0 0 0 0 0 0 0 0 0 0 0 0 0 0 0 0 0 0 0 0 0 0 0
0 0 1 4 6 6 5 4 3 3 2 3 3 3 3 3 3 3 2 1 0 0 0 0 0 0 0 0 0 0 0 0 0 0 0 0 0 0 0 0 0 0 0
0 0 1 3 4 4 4 3 2 1 1 1 2 2 2 3 3 3 3 2 0 0 0 0 0 0 0 0 0 0 0 0 0 0 0 0 0 0 0 0 0 0 0
0 0 0 1 2 2 2 2 2 1 0 0 1 1 1 1 2 2 2 1 0 0 0 0 0 0 0 0 0 0 1 1 0 0 0 0 0 0 0 0 0 0 0
0 0 0 0 0 1 1 1 1 1 0 0 0 0 0 0 1 1 1 0 0 0 0 0 0 0 0 0 0 0 1 1 0 0 0 0 0 0 0 0 0 0 0
0 1 1 1 0 0 0 1 1 0 0 0 0 0 0 0 0 0 0 0 0 0 0 0 0 0 0 0 0 0 1 1 0 0 0 0 0 0 0 0 0 0 0
0 1 2 2 0 0 0 0 0 0 0 0 0 0 0 0 0 0 0 0 0 0 0 0 0 0 0 0 0 0 0 0 0 0 0 0 0 0 0 0 0 0 0
0 1 1 1 0 0 0 0 0 0 0 0 0 0 0 0 0 0 0 0 0 0 0 0 0 0 0 0 0 0 0 0 0 0 0 0 0 0 0 0 0 0 0
1 1 1 0 0 0 0 0 0 0 0 0 0 0 0 0 0 0 0 0 0 0 0 0 0 0 0 0 0 0 0 0 0 0 0 0 1 0 0 0 0 0 0
2 2 1 0 0 0 0 0 0 0 0 0 0 0 0 0 0 0 0 0 0 0 0 0 0 0 0 0 0 0 0 0 0 0 0 0 0 0 0 0 1 1 0
2 1 1 0 0 0 0 0 0 0 0 0 0 0 0 0 0 0 0 0 0 0 0 0 0 0 0 0 0 0 0 0 0 0 0 0 0 0 0 1 2 2 1
1 1 1 1 1 0 0 0 0 0 0 0 0 0 0 0 0 0 0 0 0 0 0 0 0 0 0 0 0 0 0 0 0 0 0 0 0 0 0 1 2 3 3
2 1 1 3 2 1 0 0 0 0 0 0 0 0 0 0 0 0 0 0 0 0 0 0 0 0 0 0 0 0 0 0 0 0 0 0 0 0 0 1 3 3 4
3 2 2 3 2 1 0 0 1 1 1 0 0 0 0 0 0 0 0 0 0 0 0 0 0 0 0 0 0 0 0 0 0 0 0 0 0 0 0 1 2 3 3
6 5 3 2 2 1 1 1 2 2 1 1 0 0 0 0 0 0 0 0 0 0 0 0 0 0 0 0 0 0 0 0 0 0 0 0 0 0 0 0 1 1 1
7 6 5 4 3 3 3 3 2 1 1 1 1 1 0 0 0 0 0 0 0 0 0 0 0 0 0 0 0 0 0 0 0 0 0 0 0 0 0 0 0 0 0
7 6 6 5 4 4 4 3 2 0 0 1 2 2 0 0 0 0 0 0 0 0 0 0 0 0 0 0 0 0 0 0 0 0 0 0 0 0 0 0 0 0 0
8 7 7 7 6 5 5 4 2 1 0 1 1 1 0 0 0 0 0 0 0 0 0 0 0 0 0 0 0 0 0 0 0 0 0 0 0 0 0 0 0 0 0
12 11 9 9 8 7 6 5 3 2 1 0 0 0 0 0 0 0 0 0 0 0 0 0 0 0 0 0 0 0 0 0 0 0 0 0 0 0 0 0 0 0 0
16 15 13 12 11 11 9 6 4 2 1 0 0 0 0 0 0 0 0 0 0 0 0 0 0 0 0 0 0 0 0 0 0 0 0 0 0 0 0 0 0 0 0
17 17 15 13 13 13 10 7 4 2 1 0 0 0 0 0 0 0 0 0 0 0 0 0 0 0 0 0 0 0 0 0 0 0 0 0 0 0 0 0 0 0 0

GEFSSE_con_prob3kmehi_204.txt.gz
EHI
1 2 2 1 0 0 0 0 0 0 0 0 0 0 0 0 0 0 0 0 0 0 0 0 0 0 0 0 0 0 0 0 0 0 1 0 0 0 0 0 0 0 0
1 2 3 1 0 0 0 0 0 0 0 0 0 0 0 0 0 0 0 0 0 0 0 0 0 0 0 0 0 0 0 0 0 0 1 0 0 0 0 0 0 0 0
1 2 3 2 1 0 0 0 0 0 0 0 0 0 0 0 0 1 1 0 0 0 0 0 0 0 0 0 0 0 0 0 0 0 0 0 0 0 0 0 0 0 0
0 1 3 4 2 0 0 0 0 0 0 0 0 0 0 0 1 2 1 0 0 0 0 0 0 0 0 0 0 0 1 1 0 0 0 0 0 0 0 0 0 0 0
0 1 4 5 4 2 0 0 0 0 0 0 0 0 0 0 1 2 1 0 0 0 0 0 0 0 0 0 0 1 2 2 1 0 0 0 0 0 0 0 0 0 0
0 1 4 4 4 3 1 0 0 0 0 0 0 0 0 0 1 1 0 0 0 0 0 0 0 0 0 0 0 1 2 2 1 0 0 0 0 0 0 0 0 0 0
0 1 2 3 4 3 1 0 1 1 0 0 0 0 0 0 0 0 0 0 0 0 0 0 0 0 0 0 0 1 2 2 1 0 0 0 0 0 0 0 0 0 0
0 0 1 3 4 3 1 1 2 2 1 0 0 0 0 0 0 0 0 0 0 0 0 0 0 0 0 0 0 1 2 1 0 0 0 0 0 0 0 0 0 0 0
0 0 1 2 4 3 1 1 2 2 1 0 0 0 0 0 0 0 0 0 0 0 0 0 0 0 0 0 0 1 1 1 0 0 0 0 0 0 0 0 0 0 0
0 0 0 1 2 2 1 1 2 1 0 0 0 0 0 0 0 0 0 0 0 0 0 0 0 0 0 0 0 0 0 0 0 0 0 0 0 0 0 0 0 0 0
1 1 0 0 1 1 0 1 1 0 0 0 0 0 0 0 0 0 0 0 0 0 0 0 0 0 0 0 0 0 0 0 0 0 0 0 0 0 0 0 0 0 0
3 2 0 0 0 0 0 0 0 0 0 0 0 0 0 0 0 0 0 0 0 0 0 0 0 0 0 0 0 0 0 0 0 1 1 0 0 0 0 0 0 0 0
4 2 1 0 0 0 0 0 0 0 0 0 0 0 0 0 0 0 0 0 0 0 0 0 0 0 0 0 0 0 0 0 1 1 1 0 0 0 0 0 0 0 0
3 3 1 0 0 0 0 1 1 0 0 0 0 0 0 0 0 0 0 0 0 0 0 0 0 0 0 0 0 0 0 0 1 1 1 0 0 0 0 0 0 0 0
4 3 3 2 2 1 1 1 1 1 0 0 0 0 0 0 0 0 0 0 0 0 0 0 0 0 0 0 0 0 0 0 0 1 1 0 0 0 0 0 0 0 0
4 4 4 4 5 4 2 0 1 1 0 0 1 1 0 0 0 0 0 0 0 0 0 0 0 0 0 0 0 0 0 0 0 0 0 0 0 0 0 0 0 0 0
4 6 6 5 6 6 2 0 0 0 0 0 1 2 2 1 0 0 0 0 0 0 0 0 0 0 0 0 0 0 0 0 0 0 0 0 0 0 0 0 0 0 0
7 8 8 6 6 6 4 2 0 0 0 0 2 3 3 2 1 1 0 0 0 0 0 0 0 0 0 0 0 0 0 0 0 0 0 0 0 0 0 1 1 1 1
11 12 12 10 8 7 6 4 2 0 1 1 1 3 4 3 3 2 1 0 0 0 0 0 0 0 0 0 0 0 0 0 0 0 0 0 0 1 0 1 3 2 2
16 16 16 15 13 11 8 6 4 2 2 1 1 2 3 3 3 2 1 0 0 0 0 0 0 0 0 0 0 0 0 0 0 0 0 0 0 0 0 1 2 2 1
22 22 22 22 21 16 11 8 5 3 2 1 0 1 3 4 4 3 2 1 1 1 1 1 1 0 0 0 0 0 0 0 1 1 0 0 0 0 0 1 2 2 2
27 27 28 29 27 22 14 9 6 4 2 0 0 1 2 4 4 4 4 4 3 3 2 2 2 1 0 0 0 0 0 1 2 1 0 1 1 1 1 2 3 4 3
28 27 28 32 32 27 18 11 9 7 3 2 2 1 1 2 3 3 4 6 5 4 3 3 3 3 1 1 0 0 0 1 2 2 1 2 3 3 2 1 2 3 3
25 25 29 33 34 31 24 18 16 12 7 5 3 2 1 1 2 3 4 6 6 4 3 3 4 4 3 2 1 1 0 0 1 2 2 3 3 2 1 0 1 2 3
20 24 30 34 35 33 28 25 23 19 13 9 6 4 3 3 2 3 4 5 6 4 3 4 4 4 3 2 2 2 2 1 0 1 1 1 1 0 0 0 1 3 3
18 23 30 35 36 33 29 28 28 23 17 12 8 5 5 5 3 3 4 5 6 5 4 4 4 3 3 3 2 3 4 3 1 0 0 0 0 0 0 0 1 2 2

GEFSSE_con_prob3kmehi_210.txt.gz
EHI
7 7 9 7 4 2 1 0 0 0 0 0 0 0 0 0 1 2 2 2 2 3 3 3 3 4 4 3 3 5 5 5 5 5 4 3 4 4 4 3 2 1 1
7 7 8 7 4 1 0 0 0 0 0 0 0 0 0 0 0 1 1 2 2 3 3 3 3 3 3 2 3 4 4 5 5 5 4 3 4 5 4 4 3 1 1
6 5 7 7 4 1 0 0 0 0 0 0 0 0 0 0 0 0 1 1 2 3 3 3 3 3 2 2 3 3 4 4 5 5 3 2 3 4 5 6 4 1 0
7 7 8 8 4 0 0 0 0 0 0 0 0 0 1 1 0 0 0 1 2 3 3 3 3 3 2 2 3 3 4 4 3 3 1 0 1 3 4 4 3 1 0
12 11 10 7 4 1 1 0 0 0 0 0 0 1 2 1 0 0 0 1 2 3 3 3 3 3 1 1 2 4 5 4 2 1 0 0 1 2 3 3 2 1 0
11 11 9 7 5 2 1 0 0 0 0 0 0 1 2 1 0 0 0 1 2 3 3 3 3 2 1 1 3 6 7 5 2 0 0 0 1 2 3 2 1 0 0
9 8 8 8 6 3 1 1 1 0 0 0 0 1 2 1 0 0 0 1 3 3 3 3 2 1 0 0 3 7 8 5 3 1 1 1 1 2 3 1 0 0 0
8 8 7 7 7 5 3 3 2 1 0 0 0 1 1 0 0 0 1 2 3 3 3 3 1 0 0 1 3 6 7 5 2 1 1 1 2 3 2 1 0 0 0
5 6 6 6 7 7 7 5 3 1 0 0 0 0 0 0 0 0 1 2 3 3 3 2 1 0 0 1 3 5 7 6 3 1 1 1 2 3 2 1 1 0 0
3 3 5 7 9 10 9 7 5 2 0 0 1 1 1 0 0 0 1 2 3 2 1 1 0 0 1 3 4 6 6 5 3 1 0 1 3 5 3 1 1 1 1
3 3 4 7 9 9 9 10 8 5 3 3 3 4 3 1 0 0 1 3 2 1 1 1 1 1 2 3 6 8 6 4 2 1 0 2 4 6 5 2 1 2 2
5 4 4 6 8 7 8 11 10 7 7 6 6 6 5 2 0 0 2 3 2 1 2 3 3 2 2 2 4 6 5 3 1 0 2 5 8 7 5 3 1 1 1
8 8 7 8 10 10 9 9 9 9 10 9 6 6 5 3 2 2 3 4 3 2 3 4 3 2 1 1 1 2 3 2 1 1 5 10 11 9 6 4 1 0 0
10 11 11 12 14 16 13 10 8 9 10 9 7 5 5 5 4 4 5 6 4 4 4 3 2 1 1 0 0 0 1 1 1 3 8 14 15 13 10 7 4 2 1
10 11 13 15 17 17 17 14 10 9 9 10 8 6 5 7 7 8 8 8 5 5 5 3 2 2 1 0 0 1 1 1 2 3 9 15 17 15 13 11 8 6 5
16 16 17 19 22 19 17 16 11 8 8 8 8 8 8 8 9 10 9 7 5 4 5 5 4 3 2 1 1 2 2 2 3 3 6 12 16 15 14 13 11 10 10
25 25 22 22 25 23 17 13 9 6 6 7 9 11 10 10 10 10 9 6 5 4 6 7 5 4 2 2 2 3 3 4 4 4 5 8 13 15 16 15 14 13 13
36 32 24 22 25 25 19 14 9 8 8 9 11 11 11 10 11 10 8 7 7 7 6 6 6 4 2 2 3 4 4 5 5 6 6 8 12 15 16 18 18 17 17
44 39 29 24 27 28 24 19 14 12 13 13 13 12 12 12 10 9 8 9 9 7 6 5 4 4 3 3 3 3 5 6 7 6 5 8 13 15 15 18 20 20 19
48 44 36 32 32 33 30 27 22 18 18 18 18 17 19 19 14 11 11 10 9 9 8 6 5 4 4 3 2 2 4 7 10 7 4 5 10 13 15 18 19 19 19
50 47 43 40 38 36 34 33 30 26 24 24 25 24 25 25 21 15 12 11 11 11 12 10 8 6 5 4 2 2 3 7 10 8 5 5 7 10 14 18 21 21 20
51 49 48 47 43 38 36 34 32 29 28 28 29 28 26 25 22 16 12 10 10 12 13 13 10 7 6 5 3 1 2 4 5 4 4 6 7 8 11 15 20 24 23
51 50 51 52 47 40 35 31 29 28 27 28 30 29 24 20 19 17 15 11 9 11 13 13 11 7 6 5 4 2 1 1 1 1 3 5 6 7 8 9 14 20 22
49 51 55 55 50 41 33 28 27 26 26 26 27 27 25 20 19 21 22 18 13 12 12 12 9 6 6 5 4 3 3 1 1 1 1 2 4 6 7 7 9 14 17
45 50 56 58 53 43 35 30 28 27 26 25 24 26 27 25 23 23 25 25 20 15 13 12 10 9 9 8 5 4 3 2 2 2 1 1 3 4 5 7 8 13 17
42 48 55 58 56 47 38 34 30 27 25 24 24 25 29 29 25 23 26 28 23 17 14 12 11 12 14 11 7 4 3 3 3 2 1 1 2 2 4 6 10 14 19

GEFSSE_con_prob3kmehi_216.txt.gz
EHI
0 2 5 3 0 0 0 0 0 0 0 0 0 0 0 1 2 3 3 4 5 5 2 2 3 4 3 2 1 1 1 2 2 3 3 3 2 1 1 1 0 1 3
0 2 5 4 1 0 0 0 0 0 0 0 0 0 0 1 2 3 3 3 3 4 3 2 3 3 3 2 2 1 1 1 1 2 2 2 1 1 3 2 1 1 2
0 1 4 4 1 0 0 0 0 0 0 0 0 0 0 1 2 2 2 1 1 1 1 2 1 2 2 2 2 1 0 0 0 1 1 1 1 2 4 3 2 3 2
0 0 2 2 1 0 0 0 0 0 0 0 0 0 0 0 1 1 1 0 0 0 0 0 0 0 1 2 1 0 0 0 0 0 0 0 1 3 4 4 3 2 2
0 0 1 1 1 1 0 0 0 0 0 0 0 0 0 0 0 0 0 0 0 0 0 0 0 1 1 1 0 0 0 0 0 0 0 0 1 2 2 1 1 1 0
0 0 2 4 4 2 1 0 0 0 0 0 0 0 0 0 0 0 0 0 0 0 0 0 0 1 2 1 0 0 0 0 0 0 0 0 1 2 1 0 0 0 0
0 1 4 7 6 3 1 0 1 1 1 0 0 0 0 0 0 0 0 0 0 0 0 0 0 1 1 1 0 0 0 0 0 0 0 0 1 3 3 1 0 0 0
0 0 3 5 5 3 1 0 1 2 1 0 0 0 0 0 0 0 0 0 0 0 0 0 0 0 1 1 1 1 1 0 0 0 0 0 2 4 4 2 1 0 0
0 0 1 2 2 2 1 0 1 1 1 0 0 0 0 0 0 0 0 0 0 0 0 0 0 0 0 2 3 3 2 1 0 0 0 1 2 4 3 2 1 0 0
1 0 0 0 1 1 0 0 0 0 0 1 1 0 0 0 0 0 0 0 0 0 0 0 1 1 1 2 4 4 2 1 0 0 0 1 3 2 1 1 0 0 0
2 1 0 0 1 1 1 0 0 0 0 1 1 0 0 0 0 0 1 1 1 1 0 1 2 2 2 1 2 2 2 1 0 0 0 2 3 3 1 1 0 0 0
2 1 0 1 2 2 2 1 0 0 0 1 1 0 0 0 0 0 1 2 2 1 1 1 2 2 1 0 0 1 1 0 0 0 1 4 5 4 4 4 2 1 0
2 1 0 1 2 3 2 1 0 0 0 0 0 0 0 0 0 0 0 1 1 1 0 1 1 1 0 0 0 0 0 0 0 0 2 5 6 5 6 7 5 3 2
3 2 1 2 4 3 2 0 0 0 0 0 0 0 0 0 0 0 0 0 0 0 0 0 0 0 0 0 0 0 0 0 0 0 2 5 7 8 9 9 8 6 4
7 6 5 5 5 3 1 0 0 0 0 0 0 0 0 0 0 0 0 0 0 0 0 0 0 0 0 0 0 0 0 0 0 0 1 5 9 11 12 12 10 8 6
11 11 9 8 6 3 1 0 0 0 0 0 0 0 0 0 0 0 0 0 0 0 0 0 0 0 0 0 0 0 0 0 0 0 0 3 8 12 14 14 13 11 8
13 13 12 10 7 3 1 0 0 0 0 0 0 0 0 0 0 0 0 0 0 0 0 0 0 0 0 0 0 0 0 0 0 0 0 1 3 7 11 14 15 14 11
16 14 13 11 8 4 1 0 0 0 0 0 0 0 1 1 0 0 0 0 0 0 0 0 0 0 0 0 0 0 0 0 0 0 0 0 0 2 5 10 13 13 12
19 17 14 11 9 6 2 0 0 0 0 0 1 2 2 1 0 0 0 0 0 0 0 0 0 0 0 0 0 0 0 0 0 0 0 0 0 0 1 4 8 10 11
23 21 17 13 10 7 3 1 0 1 1 2 2 4 3 2 1 1 1 0 0 0 0 0 0 0 0 0 0 0 0 0 0 0 0 0 0 0 0 1 2 5 7
28 26 22 18 14 11 6 3 1 2 3 3 3 4 4 3 2 2 2 1 0 0 0 0 0 0 0 0 0 0 0 0 0 0 0 0 0 0 0 0 0 1 2
33 32 29 25 23 18 12 7 3 3 3 3 3 3 3 3 3 3 2 1 0 0 0 0 0 0 0 0 0 0 0 0 0 0 0 0 0 0 0 0 0 0 0
35 34 31 29 27 23 18 13 8 6 5 4 3 3 3 3 3 3 2 0 0 0 0 0 0 0 1 0 0 0 0 0 0 0 0 0 0 0 0 0 0 0 0
38 35 30 27 26 25 22 17 12 10 8 6 4 3 3 3 3 3 2 1 0 0 0 0 0 0 0 0 0 0 0 0 0 0 0 0 0 0 0 0 0 0 0
38 36 30 26 25 25 23 18 14 11 9 8 5 4 3 3 3 4 4 2 1 0 0 0 0 0 0 0 0 0 0 0 0 0 0 0 0 0 0 0 0 0 0
37 35 32 29 27 26 23 19 15 11 9 9 7 5 4 3 3 4 5 3 2 1 0 0 0 0 0 0 0 0 0 0 0 0 0 0 0 0 0 0 0 0 0

GEFSSE_con_prob3kmehi_222.txt.gz
EHI
0 0 0 0 0 1 3 3 3 2 1 0 0 0 0 0 0 0 0 0 0 0 0 0 1 1 1 0 0 0 0 0 1 2 3 3 3 2 3 3 2 1 1
0 0 0 1 1 2 2 3 3 3 2 1 0 0 0 0 0 0 0 0 0 0 0 2 3 3 2 1 0 0 0 0 0 1 1 1 1 2 2 3 3 2 1
0 0 0 1 2 3 2 2 3 4 3 2 0 0 0 0 0 0 0 0 0 0 1 3 4 3 3 2 0 0 0 0 0 0 0 0 0 1 2 2 3 2 1
0 0 1 2 3 3 3 3 4 5 3 2 0 0 0 0 0 0 0 0 0 0 1 3 3 2 2 1 0 0 0 0 1 1 0 0 0 1 1 1 1 1 0
0 0 1 2 3 3 3 4 4 4 3 1 0 0 0 0 0 0 0 1 1 1 1 1 1 1 1 0 0 0 0 0 1 1 0 0 0 0 0 0 0 0 0
0 0 0 1 1 1 2 3 3 2 1 1 0 0 0 1 0 0 0 1 2 1 0 0 0 0 0 0 0 0 0 0 0 0 0 0 0 0 0 0 0 0 0
0 0 0 0 0 0 1 1 1 1 0 0 0 0 0 0 0 0 0 1 1 1 0 0 0 0 0 0 0 0 0 0 0 0 0 0 0 1 1 1 1 0 0
0 0 0 0 1 1 1 0 0 0 0 0 0 0 0 0 0 0 1 2 2 1 0 0 0 0 1 0 0 0 0 0 0 0 0 0 0 1 2 3 2 1 0
0 0 0 0 1 1 1 0 0 0 0 0 0 0 0 0 0 0 1 2 3 1 0 0 0 0 0 0 0 0 0 0 0 0 0 0 1 2 3 3 3 2 1
0 0 0 0 0 1 1 0 0 0 0 0 1 2 1 0 0 0 1 2 2 1 0 0 0 0 0 0 0 0 0 0 0 0 0 0 1 2 4 4 3 3 2
0 0 0 0 0 0 0 0 0 0 0 0 1 2 1 0 0 0 0 1 1 1 0 0 0 0 0 0 0 0 0 0 0 0 0 0 1 2 4 4 4 3 3
0 0 0 0 0 0 0 0 0 0 0 0 1 1 1 0 0 0 0 0 0 0 0 0 0 0 0 0 0 0 0 0 0 0 0 1 2 3 4 4 3 3 3
0 0 0 0 0 0 0 0 0 0 0 0 0 0 0 0 0 0 0 1 0 0 0 0 0 0 0 0 0 0 0 0 0 0 0 1 2 3 4 4 3 3 2
0 0 0 0 0 0 0 0 0 0 0 0 0 0 0 0 0 0 0 0 0 0 0 0 0 0 0 0 0 0 0 0 0 0 0 0 2 4 5 5 4 4 4
0 0 0 0 0 0 0 0 0 0 0 0 0 0 0 0 0 0 0 0 0 0 0 0 0 0 0 0 0 0 0 0 0 0 0 0 1 4 6 5 5 6 6
1 0 0 0 0 0 0 0 0 0 0 0 0 0 0 0 0 0 0 0 0 0 0 0 0 0 0 0 0 0 0 0 0 0 0 0 1 3 5 4 5 5 6
1 0 0 0 0 0 0 0 0 0 0 0 0 0 0 0 0 0 0 0 0 0 0 0 0 0 0 0 0 0 0 0 0 0 0 0 0 2 3 2 2 4 4
1 1 0 0 0 0 0 0 0 0 0 0 0 0 0 0 0 0 0 0 0 0 0 0 0 0 0 0 0 0 0 0 0 0 0 0 0 0 1 1 2 3 4
2 2 1 0 0 0 0 0 0 0 0 0 0 0 0 0 0 0 0 0 0 0 0 0 0 0 0 0 0 0 0 0 0 0 0 0 0 0 0 1 2 3 3
3 2 2 2 1 1 1 1 0 0 0 0 0 0 0 1 1 1 0 0 0 0 0 0 0 0 0 0 0 0 0 0 0 0 0 0 0 0 0 0 1 1 1
3 3 4 5 4 3 3 2 1 0 0 0 0 0 1 2 2 2 1 0 0 0 0 0 0 0 0 0 0 0 0 0 0 0 0 0 0 0 0 0 0 0 0
6 7 7 7 7 6 5 3 2 0 0 0 0 0 1 2 3 2 1 0 0 0 0 0 0 0 0 0 0 0 0 0 0 0 0 0 0 0 0 0 0 0 0
10 9 9 9 9 8 6 5 3 1 1 2 1 1 1 3 3 2 1 0 0 0 0 0 0 0 0 0 0 0 0 0 0 0 0 0 0 0 0 0 0 0 0
11 11 11 11 10 8 6 5 4 3 3 3 3 2 3 3 3 3 1 0 0 0 0 0 0 0 0 0 0 0 0 0 0 0 0 0 0 0 0 0 0 0 0
12 13 15 14 12 9 6 5 5 4 3 3 3 3 3 3 3 3 2 1 0 0 0 0 0 0 0 0 0 0 0 0 0 0 0 0 0 0 0 0 0 0 0
12 15 18 17 14 10 7 6 5 4 3 3 3 3 3 3 3 3 2 1 0 0 0 0 0 0 0 0 0 0 0 0 0 0 0 0 0 0 0 0 0 0 0

GEFSSE_con_prob3kmehi_228.txt.gz
EHI
0 0 0 1 3 3 3 3 3 3 3 3 3 3 3 3 3 3 4 4 4 4 3 3 3 3 3 3 4 5 6 6 6 4 4 5 6 7 7 6 4 4 5
0 0 1 2 3 3 3 3 3 3 3 3 3 3 3 3 3 3 3 5 5 4 3 3 3 3 3 3 3 4 5 6 6 4 4 5 6 6 6 6 4 4 5
0 1 1 3 3 2 2 3 3 3 3 3 3 3 3 3 2 1 2 4 5 5 4 3 3 3 3 4 4 4 4 6 6 5 4 4 4 4 5 5 4 4 5
1 2 3 3 3 1 1 3 3 3 3 3 3 3 2 1 1 0 1 2 3 3 3 3 3 3 4 5 5 4 4 6 6 5 3 3 3 3 4 4 3 4 5
2 3 4 5 3 1 2 3 3 3 3 3 3 2 1 0 0 0 0 1 1 1 3 3 3 3 3 4 5 4 4 5 5 3 2 3 3 3 3 3 3 3 4
1 2 3 4 2 0 1 2 3 3 3 2 1 1 0 0 0 0 0 0 0 1 2 3 3 3 3 3 4 3 3 4 3 1 1 3 3 3 3 3 3 3 3
0 1 2 2 1 0 1 2 3 2 1 1 0 0 0 0 0 0 0 0 0 1 3 3 3 3 3 3 3 3 3 3 1 1 2 3 3 3 3 3 3 3 3
0 0 0 1 0 0 1 1 1 1 0 0 0 0 0 0 0 0 0 0 0 2 3 3 3 3 3 4 3 3 3 3 1 1 3 3 3 3 3 3 3 3 3
0 0 0 0 0 0 0 0 0 0 0 0 0 0 0 0 0 0 0 0 1 2 3 3 3 3 4 4 4 3 3 3 3 3 3 3 3 3 3 3 3 3 3
0 0 0 0 0 0 0 0 0 0 0 0 0 0 0 0 0 0 0 1 2 3 3 3 3 3 3 4 3 3 3 3 3 3 3 3 3 4 3 2 2 2 3
0 0 0 0 0 0 0 0 0 0 0 0 0 0 0 0 0 0 1 2 3 3 3 3 3 3 3 3 3 3 3 3 3 3 3 3 4 4 3 1 0 1 2
0 0 0 0 0 0 0 0 0 0 0 0 0 0 1 1 1 1 2 3 3 3 3 3 3 2 1 1 2 2 2 2 3 3 2 2 4 4 2 0 0 0 1
0 0 0 0 0 0 0 0 0 0 0 0 0 1 2 2 2 3 3 3 3 3 2 2 2 1 0 0 0 1 1 2 3 3 2 2 3 3 2 1 0 0 0
0 0 0 1 2 2 1 0 0 0 0 0 0 1 2 3 3 3 4 4 3 2 2 1 1 1 1 1 0 0 1 2 3 3 3 3 2 1 2 2 1 0 0
0 0 0 1 3 4 3 2 1 1 1 0 0 1 2 3 3 4 5 5 3 2 1 1 1 2 2 2 1 1 1 3 3 3 3 3 2 1 3 4 3 1 1
0 0 0 1 3 5 6 5 3 2 2 2 1 1 1 2 3 5 6 6 5 3 2 2 3 3 4 3 2 2 3 3 3 3 3 2 2 3 4 5 4 4 5
0 0 0 2 4 6 6 5 4 3 3 3 2 2 2 3 4 5 6 6 6 5 3 3 3 4 4 3 2 3 3 3 3 3 3 3 3 4 4 4 4 5 6
1 2 2 3 4 7 7 6 5 5 4 3 3 3 3 3 4 5 5 5 5 5 4 3 3 4 4 4 3 3 3 3 3 3 4 4 4 4 4 4 5 5 5
3 5 7 7 7 8 9 9 8 8 6 4 3 3 4 4 4 4 4 4 4 4 3 3 2 3 4 3 3 3 3 3 3 3 3 4 5 4 4 5 6 6 5
6 9 11 12 11 11 11 12 12 11 9 6 3 4 5 5 4 4 3 3 3 3 3 3 3 3 3 3 3 3 3 3 3 4 3 3 4 4 4 5 6 6 6
8 11 14 15 16 15 13 14 16 15 12 8 5 6 7 7 6 5 5 4 4 4 4 4 4 4 3 3 3 3 3 3 3 4 3 3 3 4 4 4 4 5 6
10 13 15 17 19 19 16 15 17 17 14 11 8 9 10 10 9 7 7 6 5 5 6 6 6 5 4 3 4 3 3 3 3 3 3 3 4 4 4 3 4 5 5
13 13 15 20 23 25 22 17 17 18 16 12 10 10 11 11 10 8 7 7 6 6 7 8 7 6 4 4 5 4 3 2 3 3 3 3 3 4 3 3 3 4 4
13 13 16 23 28 29 26 21 19 18 15 11 10 9 10 11 11 9 7 7 7 7 8 8 7 7 6 5 6 6 4 3 4 3 3 3 3 3 3 2 2 3 3
11 12 17 24 29 31 27 23 21 19 16 14 14 13 12 11 10 9 8 9 9 9 9 8 8 8 7 6 7 7 7 6 4 3 3 3 3 3 3 3 4 4 4
9 12 17 23 29 30 27 24 22 21 20 20 19 17 14 12 10 8 8 10 10 10 9 9 9 8 7 7 7 7 7 7 6 4 3 3 3 3 3 4 4 5 5

GEFSSE_con_prob3kmehi_234.txt.gz
EHI
6 2 0 1 0 0 1 2 2 2 3 3 3 1 0 1 1 1 0 0 0 1 3 3 2 2 2 2 1 0 1 2 3 3 3 2 3 3 1 0 0 0 0
4 2 1 1 1 0 1 2 1 1 1 2 2 2 1 0 0 0 0 0 1 2 3 3 1 1 1 1 0 0 1 2 3 3 3 1 2 2 2 1 0 0 0
2 1 1 3 2 1 1 1 1 0 0 0 1 1 1 0 0 0 0 0 1 2 3 2 1 0 0 0 0 0 1 3 3 3 2 1 1 2 2 2 1 0 0
2 2 3 5 4 2 1 1 0 0 0 0 0 0 0 0 0 0 0 0 0 1 2 2 1 0 0 0 0 1 2 3 3 2 1 0 0 1 2 2 2 1 0
5 5 7 8 7 5 3 1 0 0 0 0 0 0 0 0 0 0 1 1 0 1 2 2 1 0 0 0 0 1 2 3 2 1 0 0 1 1 2 2 3 1 0
9 10 10 10 9 7 4 2 0 0 0 0 0 0 0 1 1 1 2 2 1 1 3 3 2 1 0 0 0 1 2 3 1 0 1 1 1 2 2 3 3 1 0
10 11 11 11 10 7 4 2 1 0 0 0 0 0 0 1 2 2 2 3 2 2 3 3 2 2 1 0 0 1 2 2 1 0 1 2 2 3 3 3 2 1 1
9 10 11 11 9 5 3 2 1 0 0 0 0 0 0 1 1 1 1 2 2 1 1 1 1 2 2 1 1 1 1 2 1 0 1 1 2 4 4 3 2 1 0
5 6 8 8 6 3 1 1 0 0 0 0 0 0 0 0 0 0 0 1 1 0 0 0 0 2 3 3 2 1 2 2 2 0 0 1 4 5 5 4 1 0 1
3 4 4 4 5 3 1 1 0 0 0 0 0 0 1 1 0 0 1 1 0 0 0 0 0 2 3 4 3 2 1 1 1 0 0 3 7 7 5 4 2 1 1
3 4 3 2 4 4 2 0 0 0 0 1 1 1 3 3 1 1 2 3 2 1 0 1 2 2 3 3 3 2 1 1 2 1 2 6 11 10 7 5 3 1 1
3 4 4 2 2 3 1 0 1 2 2 2 1 2 4 4 2 2 4 5 4 2 1 2 3 3 2 2 1 1 1 1 2 2 4 9 14 13 9 7 5 2 1
2 3 4 4 4 4 3 2 2 4 4 3 3 3 3 2 1 2 4 5 4 3 2 3 4 2 1 0 1 1 1 1 1 2 5 10 14 13 10 8 6 3 2
2 4 5 6 8 10 8 5 4 4 4 4 4 3 1 0 0 2 4 3 2 2 2 3 3 1 0 1 2 1 1 0 1 1 5 11 13 13 12 10 7 5 4
4 5 7 9 11 13 13 11 8 5 3 4 5 4 1 0 1 2 3 2 1 1 2 3 2 1 1 3 3 1 1 1 1 2 5 11 14 14 14 12 9 5 4
5 6 8 10 11 12 14 15 11 6 4 6 8 7 3 1 2 2 2 1 1 2 2 2 2 2 3 3 2 1 1 1 1 4 7 9 12 14 14 13 10 6 3
9 8 8 9 11 12 13 11 7 5 5 8 10 10 8 5 3 1 1 1 1 3 4 4 5 5 4 2 1 1 2 1 2 5 8 8 8 9 11 13 12 9 6
16 14 10 9 12 15 14 10 7 6 8 11 13 14 13 9 5 2 2 3 4 3 4 4 5 7 4 1 1 3 4 4 3 4 6 7 5 5 6 11 14 13 11
25 20 14 11 14 18 18 15 12 12 15 17 17 16 15 11 8 7 7 8 7 5 4 3 4 5 4 2 2 5 7 7 6 4 4 4 5 5 5 9 13 14 12
31 26 19 15 16 20 20 19 18 17 18 20 21 20 17 13 11 10 10 10 7 6 6 4 4 5 5 4 3 4 7 8 7 6 4 3 5 8 8 11 14 14 13
37 33 27 22 21 22 19 17 19 18 17 20 23 24 21 17 13 11 9 8 6 6 6 5 4 5 6 5 3 3 4 6 6 5 4 4 5 8 10 14 18 17 13
42 39 32 27 27 24 19 16 17 18 18 22 25 26 24 20 16 14 11 9 7 6 7 8 6 5 4 4 3 2 2 3 4 4 4 4 5 7 10 13 18 19 16
45 40 33 30 29 26 22 18 15 16 20 25 28 27 24 21 19 16 14 12 10 10 11 10 9 6 2 1 2 1 1 2 3 3 2 2 4 7 8 10 13 16 17
44 40 36 35 31 28 26 22 18 17 19 23 26 26 24 22 20 19 17 15 14 13 12 11 9 6 2 1 2 3 2 2 2 2 2 2 2 5 7 8 9 11 14
39 40 41 41 36 32 30 28 24 21 19 20 24 25 24 24 24 23 21 17 15 13 11 9 8 5 3 1 2 2 3 2 2 2 2 3 3 3 4 5 5 8 12
36 39 43 44 40 35 33 32 28 23 20 20 24 26 25 25 27 25 21 17 14 11 9 8 6 4 2 1 1 1 3 3 2 2 3 4 4 3 2 2 3 7 13